     2.11           OBSERVATION DATA    G (GPS)             RINEX VERSION / TYPE
teqc 2010Oct21 OPUS Account 20111026 21:36:37UTC            PGM / RUN BY / DATE
F 1524                                                      MARKER NAME
1210                                                        MARKER NUMBER
CSMIDDLETON NGS                                             OBSERVER / AGENCY
4624K01584 TRIMBLE NETR5 4.41                               REC # / TYPE / VERS
60177755 TRM41249.00 NONE                                   ANT # / TYPE
  -755896.9990 -5526769.5742  3082365.3671                  APPROX POSITION XYZ
        2.0000        0.0000        0.0000                  ANTENNA: DELTA H/E/N
     1     1                                                WAVELENGTH FACT L1/2
     5    L1    L2    C1    P1    P2                        # / TYPES OF OBSERV
    15                                                      LEAP SECONDS
  2011     8    12    17    33    0.0000000     GPS         TIME OF FIRST OBS
                                                            END OF HEADER
 11  8 12 17 33  0.0000000  0 11G06G11G08G13G19G10G03G28G07G01G23
 128114093.59316  99829212.06153  24379304.305                    24379314.234
 122890808.98217  95759092.04254  23385344.102                    23385352.910
 119411276.62217  93047771.79755  22723210.133                    22723219.281
 107841079.67118  84032031.19756  20521475.828                    20521483.465
 110706923.85218  86265153.80056  21066827.586                    21066833.840
 129145057.86916 100632563.81953  24575491.172                    24575501.320
 117622068.78617  91653586.63554  22382735.906                    22382745.957
 123367267.72517  96130363.17253  23476010.766                    23476018.992
 110950357.24218  86454840.53717  21113151.719                    21113159.125
 129645786.02116 101022690.09516  24670773.305                    24670787.262
 115381730.64618  89907863.54355  21956413.875                    21956420.680
 11  8 12 17 33 30.0000000  0 11G06G11G08G13G19G10G03G28G07G01G23
 128211153.833 6  99904843.36743  24397774.188                    24397784.711
 122813530.548 7  95698875.12044  23370638.172                    23370647.023
 119339132.402 7  92991555.53344  22709481.945                    22709490.773
 107895976.355 8  84074807.79346  20531921.977                    20531930.195
 110735813.678 7  86287665.32846  21072324.984                    21072331.348
 129196371.289 6 100672548.24243  24585255.680                    24585265.941
 117712478.059 7  91724035.37644  22399940.594                    22399949.945
 123314500.649 7  96089245.99844  23465969.180                    23465977.371
 110903742.184 8  86418517.106 7  21104280.969                    21104289.098
 129588074.968 6 100977720.494 6  24659790.797                    24659805.117
 115479781.237 7  89984266.52345  21975072.375                    21975079.430
 11  8 12 17 34  0.0000000  0 11G06G11G08G13G19G10G03G28G07G01G23
 128308409.502 6  99980626.99743  24416281.180                    24416291.406
 122736354.912 7  95638738.27544  23355951.773                    23355960.824
 119266978.874 7  92935332.01944  22695751.172                    22695760.426
 107951412.970 8  84118005.11246  20542471.641                    20542479.543
 110765301.023 8  86310642.46346  21077936.094                    21077942.781
 129247899.048 6 100712699.63443  24595060.578                    24595071.586
 117803234.227 7  91794754.40244  22417211.406                    22417220.250
 123261945.544 7  96048294.00544  23455967.953                    23455977.246
 110857285.886 8  86382317.399 7  21095441.047                    21095448.762
 129530515.715 6 100932869.174 6  24648838.438                    24648851.945
 115578142.447 8  90060911.53545  21993789.766                    21993796.500
 11  8 12 17 34 30.0000000  0 11G06G11G08G13G19G10G03G28G07G01G23
 128405857.587 6 100056560.49443  24434824.641                    24434835.859
 122659284.860 7  95578683.69844  23341286.461                    23341295.555
 119194817.291 7  92879102.24145  22682019.648                    22682028.742
 108007387.514 8  84161621.60446  20553123.172                    20553131.145
 110795384.063 8  86334083.77046  21083661.063                    21083667.180
 129299637.778 6 100753015.40943  24604905.805                    24604918.082
 117894334.362 7  91865741.46344  22434546.742                    22434556.109
 123209601.328 7  96007506.33744  23446007.625                    23446016.215
 110810989.752 8  86346242.489 7  21086630.891                    21086638.625
 129473110.667 6 100888137.988 6  24637914.641                    24637927.855
 115676811.064 8  90137796.09845  22012565.906                    22012572.871
 11  8 12 17 35  0.0000000  0 11G06G11G08G13G19G10G03G28G07G01G23
 128503494.761 6 100132641.38143  24453404.336                    24453415.566
 122582322.102 7  95518712.77644  23326640.688                    23326649.973
 119122647.342 7  92822865.95845  22668286.227                    22668295.137
 108063896.970 8  84205654.93646  20563876.273                    20563884.063
 110826060.523 8  86357987.51246  21089498.258                    21089504.711
 129351583.772 6 100793492.75943  24614790.766                    24614802.297
 117985774.665 7  91936993.61344  22451947.156                    22451956.234
 123157466.757 7  95966882.06644  23436086.336                    23436095.648
 110764854.324 8  86310292.830 7  21077851.922                    21077859.633
 129415861.163 6 100843528.071 6  24627020.422                    24627033.219
 115775783.169 8  90214917.17145  22031399.711                    22031406.531
 11  8 12 17 35 30.0000000  0 11G06G11G08G13G19G10G03G28G07G01G23
 128601318.442 6 100208867.56143  24472019.023                    24472030.391
 122505469.822 7  95458827.91544  23312016.242                    23312025.070
 119050470.357 7  92766624.16045  22654551.484                    22654560.129
 108120939.953 8  84250103.97746  20574731.164                    20574739.086
 110857329.575 8  86382352.97946  21095448.516                    21095455.043
 129403734.540 5 100834129.59242  24624714.523                    24624726.883
 118077552.371 7  92008508.64244  22469412.320                    22469420.789
 123105541.557 7  95926420.92444  23426205.523                    23426214.699
 110718881.769 8  86274470.061 7  21069103.531                    21069111.020
 129358770.477 6 100799041.835 6  24616156.703                    24616169.406
 115875056.216 8  90292272.69845  22050290.820                    22050297.773
 11  8 12 17 36  0.0000000  0 11G06G11G08G13G19G10G03G28G07G01G23
 128699326.586 6 100285237.49243  24490670.563                    24490680.824
 122428731.402 7  95399031.77944  23297412.977                    23297422.305
 118978287.689 7  92710377.94845  22640815.000                    22640824.348
 108178515.055 8  84294967.64546  20585687.758                    20585695.723
 110889190.218 8  86407179.43446  21101511.523                    21101517.898
 129456087.371 6 100874923.91842  24634677.516                    24634689.035
 118169664.634 7  92080284.37844  22486940.398                    22486949.859
 123053825.354 7  95886122.61144  23416363.828                    23416373.230
 110673073.591 8  86238775.374 7  21060386.234                    21060393.875
 129301841.655 6 100754681.750 6  24605321.617                    24605336.215
 115974627.675 8  90369860.77145  22069239.047                    22069245.598
 11  8 12 17 36 30.0000000  0 11G06G11G08G13G19G10G03G28G07G01G23
 128797516.545 6 100361749.05743  24509356.211                    24509365.680
 122352109.650 7  95339326.55244  23282832.211                    23282841.613
 118906100.349 7  92654128.09045  22627078.469                    22627087.883
 108236620.346 8  84340244.45846  20596744.844                    20596752.594
 110921641.214 8  86432465.90746  21107686.852                    21107692.824
 129508639.695 6 100915873.64842  24644678.461                    24644689.680
 118262108.802 7  92152318.73044  22504532.258                    22504541.559
 123002317.695 7  95845986.84344  23406562.242                    23406571.344
 110627431.335 8  86203209.996 7  21051700.891                    21051708.551
 129245077.500 6 100710449.968 6  24594520.703                    24594534.285
 116074494.761 8  90447679.20645  22088243.234                    22088250.313
 11  8 12 17 37  0.0000000  0 11G06G11G08G13G19G10G03G28G07G01G23
 128895885.932 6 100438400.45543  24528074.531                    24528084.973
 122275607.852 7  95279714.78044  23268274.641                    23268284.262
 118833910.197 7  92597876.04745  22613341.453                    22613350.082
 108295254.391 8  84385933.28146  20607902.484                    20607910.340
 110954681.481 8  86458211.55146  21113974.477                    21113980.801
 129561388.875 6 100956976.78742  24654715.883                    24654727.613
 118354882.196 7  92224609.61744  22522186.836                    22522195.227
 122951018.149 7  95806013.22344  23396800.297                    23396809.223
 110581957.325 8  86167775.703 7  21043047.391                    21043055.250
 129188481.282 6 100666349.046 6  24583750.047                    24583764.297
 116174654.810 8  90525725.90945  22107302.977                    22107309.891
 11  8 12 17 37 30.0000000  0 11G06G11G08G13G19G10G03G28G07G01G23
 128994432.440 6 100515189.83743  24546827.672                    24546838.211
 122199229.133 7  95220198.92044  23253740.609                    23253749.570
 118761718.065 7  92541622.46145  22599603.258                    22599612.180
 108354415.631 8  84432032.90946  20619160.664                    20619168.566
 110988309.634 7  86484415.29046  21120373.453                    21120379.719
 129614332.125 6 100998231.22743  24664790.750                    24664801.883
 118447981.770 7  92297154.67944  22539902.930                    22539911.977
 122899926.592 7  95766201.66644  23387077.406                    23387087.422
 110536653.150 8  86132473.751 7  21034426.398                    21034434.164
 129132055.676 6 100622381.088 6  24573013.516                    24573026.805
 116275105.236 7  90603998.87945  22126417.789                    22126425.105
 11  8 12 17 38  0.0000000  0 11G06G11G08G13G19G10G03G28G07G01G23
 129093153.829 6 100592115.52243  24565614.070                    24565624.715
 122122976.400 7  95160781.25844  23239229.766                    23239239.129
 118689525.055 7  92485368.19045  22585865.242                    22585874.332
 108414102.085 8  84478541.78946  20630518.078                    20630526.504
 111022524.395 8  86511076.12946  21126884.086                    21126890.758
 129667466.600 6 101039634.63043  24674902.570                    24674914.016
 118541404.745 7  92369951.72744  22557680.648                    22557689.621
 122849042.411 7  95726551.69944  23377395.820                    23377404.574
 110491520.527 8  86097305.478 7  21025838.258                    21025845.418
 129075803.523 6 100578548.279 6  24562308.438                    24562322.660
 116375843.064 7  90682495.79345  22145587.836                    22145595.016
 11  8 12 17 38 30.0000000  0 11G06G11G08G13G19G10G03G28G07G01G23
 129192046.934 6 100669174.99743  24584432.875                    24584443.281
 122046852.668 7  95101464.08444  23224743.758                    23224752.879
 118617332.138 7  92429113.98745  22572127.781                    22572136.715
 108474311.530 8  84525458.20246  20641975.742                    20641983.473
 111057324.330 8  86538192.93146  21133506.813                    21133512.809
 129720789.527 6 101081184.86442  24685049.305                    24685060.527
 118635148.180 6  92442998.49544  22575519.492                    22575528.211
 122798365.022 7  95687062.87144  23367751.695                    23367760.391
 110446560.660 8  86062271.817 7  21017282.609                    21017290.324
 129019727.612 6 100534852.816 6  24551637.852                    24551651.680
 116476865.197 7  90761214.24645  22164811.266                    22164819.004
 11  8 12 17 39  0.0000000  0 11G06G11G08G13G19G10G03G28G07G01G23
 129291109.356 6 100746366.42243  24603283.930                    24603293.852
 121970860.829 7  95042249.70044  23210283.648                    23210292.098
 118545140.444 7  92372860.75245  22558389.688                    22558398.984
 108535042.060 8  84572780.64846  20653532.602                    20653540.523
 111092707.763 8  86565764.42646  21140239.898                    21140246.449
 129774297.951 6 101122879.62343  24695232.109                    24695243.105
 118729209.055 7  92516292.60744  22593418.773                    22593427.922
 122747893.476 7  95647734.43444  23358147.313                    23358155.750
 110401775.239 8  86027374.089 7  21008759.836                    21008767.746
 128963830.328 6 100491296.526 6  24541001.008                    24541014.723
 116578168.772 7  90840152.01045  22184088.938                    22184096.641
 11  8 12 17 39 30.0000000  0 11G06G11G08G13G19G10G03G28G07G01G23
 129390335.692 6 100823685.53243  24622166.203                    24622176.195
 121895000.934 7  94983138.11944  23195847.727                    23195856.797
 118472948.064 7  92316606.97045  22544652.344                    22544660.902
 108596289.247 8  84620505.69746  20665187.516                    20665195.863
 111128670.320 8  86593787.18246  21147083.016                    21147089.695
 129827986.468 6 101164714.81642  24705448.352                    24705460.258
 118823581.306 7  92589829.34644  22611377.078                    22611386.500
 122697624.785 7  95608564.06544  23348581.609                    23348590.207
 110357162.931 8  85992611.252 7  21000270.477                    21000278.289
 128908111.932 6 100447879.631 6  24530398.352                    24530411.949
 116679748.184 7  90919304.69445  22203419.023                    22203426.121
 11  8 12 17 40  0.0000000  0 11G06G11G08G13G19G10G03G28G07G01G23
 129489726.948 6 100901133.15143  24641079.539                    24641089.688
 121819279.368 7  94924134.33544  23181438.086                    23181447.539
 118400759.880 7  92260356.44845  22530915.492                    22530924.508
 108658054.433 8  84668634.37046  20676941.000                    20676949.629
 111165214.168 8  86622262.88646  21154037.617                    21154043.863
 129881855.557 6 101206690.60243  24715699.477                    24715711.258
 118918265.827 7  92663609.42344  22629394.977                    22629404.082
 122647561.836 7  95569554.00844  23339054.766                    23339063.293
 110312729.105 8  85957987.499 7  20991814.789                    20991822.832
 128852578.597 6 100404606.950 6  24519830.523                    24519843.809
 116781604.167 7  90998672.91445  22222801.648                    22222809.008
 11  8 12 17 40 30.0000000  0 11G06G11G08G13G19G10G03G28G07G01G23
 129589280.684 6 100978707.45943  24660024.133                    24660034.379
 121743699.445 7  94865240.90844  23167056.313                    23167064.723
 118328576.976 7  92204110.06745  22517179.438                    22517188.199
 108720335.835 8  84717165.29246  20688792.977                    20688801.102
 111202337.660 8  86651190.26746  21161101.555                    21161107.965
 129935902.263 6 101248804.85943  24725983.844                    24725995.680
 119013259.589 7  92737630.46244  22647471.648                    22647481.121
 122597703.973 7  95530703.75444  23329567.117                    23329576.074
 110268475.409 8  85923504.101 7  20983393.648                    20983402.008
 128797232.726 6 100361480.344 6  24509298.102                    24509312.406
 116883733.676 7  91078254.25145  22242236.367                    22242243.715
 11  8 12 17 41  0.0000000  0 11G06G11G08G13G19G10G03G28G07G01G23
 129688994.004 6 101056406.02843  24678998.734                    24679009.348
 121668263.684 7  94806459.81344  23152701.086                    23152709.391
 118256400.357 7  92147868.57045  22503444.508                    22503453.477
 108783131.128 8  84766096.65146  20700742.539                    20700750.641
 111240039.074 8  86680567.97446  21168275.953                    21168282.559
 129990123.643 6 101291055.22742  24736301.883                    24736313.547
 119108559.693 7  92811890.21444  22665606.711                    22665616.164
 122548050.463 7  95492012.74944  23320118.273                    23320127.566
 110224403.123 8  85889162.068 7  20975006.766                    20975014.598
 128742077.282 6 100318502.124 6  24498802.164                    24498816.484
 116986133.623 7  91158046.31845  22261722.852                    22261729.883
 11  8 12 17 41 30.0000000  0 11G06G11G08G13G19G10G03G28G07G01G23
 129788864.946 6 101134227.48643  24698003.953                    24698014.215
 121592975.473 7  94747793.71444  23138373.836                    23138382.734
 118184231.526 7  92091633.13945  22489711.406                    22489719.984
 108846438.517 8  84815427.03946  20712789.313                    20712797.363
 111278317.649 8  86710395.41246  21175560.492                    21175566.797
 130044517.429 6 101333439.93543  24746653.219                    24746664.859
 119204163.052 6  92886386.27644  22683799.195                    22683809.168
 122498600.804 7  95453480.57344  23310708.492                    23310716.910
 110180514.617 8  85854963.228 7  20966655.219                    20966663.262
 128687115.312 6 100275674.660 6  24488344.359                    24488357.789
 117088801.422 7  91238047.11745  22281259.906                    22281267.164
 11  8 12 17 42  0.0000000  0 11G06G11G08G13G19G10G03G28G07G01G23
 129888890.646 5 101212169.51343  24717037.953                    24717048.016
 121517837.665 7  94689244.78344  23124075.773                    23124084.539
 118112071.733 7  92035404.75845  22475979.234                    22475988.617
 108910255.974 8  84865154.88746  20724933.680                    20724941.723
 111317171.321 8  86740670.98146  21182953.703                    21182960.180
 130099080.396 6 101375956.40843  24757036.313                    24757047.309
 119300066.839 7  92961116.43944  22702048.953                    22702058.699
 122449354.486 7  95415106.87944  23301336.969                    23301345.680
 110136811.044 8  85820908.498 7  20958338.922                    20958346.645
 128632349.532 6 100233000.064 6  24477922.133                    24477935.738
 117191733.902 7  91318254.14045  22300847.375                    22300854.555
 11  8 12 17 42 30.0000000  0 11G06G11G08G13G19G10G03G28G07G01G23
 129989068.487 6 101290230.11442  24736100.633                    24736111.633
 121442853.103 7  94630815.28544  23109805.859                    23109815.332
 118039921.811 7  91979184.06445  22462249.773                    22462258.719
 108974581.231 8  84915278.41046  20737174.516                    20737182.148
 111356598.358 8  86771393.32146  21190456.648                    21190462.641
 130153809.415 6 101418602.32543  24767451.055                    24767462.527
 119396268.175 7  93036078.45444  22720355.594                    22720365.672
 122400310.773 7  95376891.03244  23292004.164                    23292012.590
 110093294.038 8  85786999.141 7  20950057.555                    20950065.805
 128577782.309 6 100190480.205 6  24467538.461                    24467551.793
 117294928.360 7  91398665.31545  22320484.719                    22320491.707
 11  8 12 17 43  0.0000000  0 11G06G11G08G13G19G10G03G28G07G01G23
 130089396.122 5 101368407.41642  24755192.852                    24755203.621
 121368025.021 6  94572507.72044  23095567.563                    23095575.590
 117967783.320 7  91922972.28045  22448522.000                    22448531.609
 109039412.478 8  84965796.22946  20749511.211                    20749519.387
 111396597.442 8  86802561.41846  21198068.484                    21198074.629
 130208702.049 6 101461375.69443  24777896.852                    24777907.969
 119492764.111 7  93111270.02644  22738718.508                    22738728.117
 122351469.120 7  95338832.65144  23282709.805                    23282718.480
 110049965.517 8  85753236.663 7  20941812.492                    20941820.293
 128523416.460 6 100148117.257 6  24457193.086                    24457206.180
 117398381.798 7  91479278.29245  22340171.281                    22340178.527
 11  8 12 17 43 30.0000000  0 11G06G11G08G13G19G10G03G28G07G01G23
 130189871.277 6 101446699.69042  24774312.336                    24774323.332
 121293356.445 7  94514324.42544  23081357.813                    23081367.211
 117895657.243 7  91866770.15945  22434797.047                    22434806.309
 109104748.183 8  85016707.12246  20761944.398                    20761952.270
 111437167.021 8  86834174.05046  21205788.125                    21205795.035
 130263755.629 6 101504274.53643  24788372.875                    24788384.359
 119589551.315 7  93186688.56244  22757136.086                    22757146.156
 122302829.237 7  95300931.48244  23273453.719                    23273462.984
 110006827.415 8  85719622.552 7  20933603.852                    20933611.590
 128469255.251 6 100105913.760 6  24446886.594                    24446899.930
 117502091.705 7  91560091.10645  22359906.445                    22359913.836
 11  8 12 17 44  0.0000000  0 11G06G11G08G13G19G10G03G28G07G01G23
 130290491.344 6 101525104.95543  24793460.070                    24793470.730
 121218850.512 7  94456267.87444  23067180.688                    23067189.172
 117823544.961 7  91810578.79145  22421074.758                    22421083.742
 109170585.894 8  85068009.19346  20774472.789                    20774480.555
 111478305.444 8  86866229.95046  21213616.867                    21213623.277
 130318967.004 6 101547296.28643  24798879.539                    24798891.219
 119686627.143 7  93262332.00844  22775609.625                    22775618.848
 122254390.290 7  95263186.86044  23264236.117                    23264245.121
 109963881.323 8  85686158.066 7  20925431.336                    20925439.176
 128415301.225 7 100063871.700 6  24436619.477                    24436632.992
 117606054.935 7  91641101.30745  22379690.477                    22379697.891
 11  8 12 17 44 30.0000000  0 11G06G11G08G13G19G10G03G28G07G01G23
 130391253.657 6 101603620.92942  24812634.836                    24812645.000
 121144509.956 7  94398340.15944  23053034.063                    23053042.711
 117751447.732 7  91754399.15645  22407355.000                    22407364.152
 109236923.504 8  85119700.79646  20787096.586                    20787104.508
 111520010.604 8  86898727.45146  21221552.969                    21221559.855
 130374333.508 6 101590438.92843  24809415.203                    24809426.297
 119783988.655 7  93338198.06444  22794136.953                    22794146.250
 122206151.643 7  95225598.33444  23255056.977                    23255065.379
 109921128.739 8  85652844.356 7  20917295.961                    20917303.926
 128361557.129 6 100021993.233 6  24426391.672                    24426405.691
 117710268.538 7  91722306.61145  22399521.422                    22399529.320
 11  8 12 17 45  0.0000000  0 11G06G11G08G13G19G10G03G28G07G01G23
 130492155.748 6 101682245.90043  24831836.398                    24831845.828
 121070337.922 7  94340543.77944  23038919.188                    23038928.355
 117679366.866 7  91698232.27345  22393638.305                    22393647.008
 109303758.551 8  85171779.99946  20799814.789                    20799823.137
 111562280.934 8  86931665.35546  21229596.648                    21229603.277
 130429852.094 6 101633700.06643  24819980.320                    24819991.363
 119881633.230 7  93414284.69944  22812717.922                    22812727.816
 122158112.607 7  95188165.34244  23245914.773                    23245923.938
 109878571.503 8  85619682.870 7  20909197.242                    20909204.941
 128308025.351 6  99980280.203 7  24416204.820                    24416218.980
 117814729.498 7  91803704.64244  22419399.664                    22419407.281
 11  8 12 17 45 30.0000000  0 11G06G11G08G13G19G10G03G28G07G01G23
 130593195.245 6 101760977.91743  24851063.766                    24851073.531
 120996337.416 6  94282881.04444  23024837.242                    23024846.055
 117607303.484 7  91642079.00645  22379925.500                    22379934.402
 109371089.075 8  85224245.30146  20812627.359                    20812635.605
 111605114.945 8  86965042.48846  21237748.039                    21237754.160
 130485520.005 7 101677077.54643  24830573.867                    24830585.141
 119979557.798 7  93490589.49244  22831352.648                    22831362.320
 122110272.456 7  95150887.31444  23236811.563                    23236820.402
 109836211.162 8  85586674.809 7  20901136.906                    20901144.594
 128254708.779 6  99938734.873 6  24406059.922                    24406072.762
 117919434.977 7  91885293.21344  22439324.781                    22439332.523
 11  8 12 17 46  0.0000000  0 11G06G11G08G13G19G10G03G28G07G01G23
 130694369.303 6 101839814.78543  24870316.336                    24870326.559
 120922511.082 7  94225354.02444  23010788.734                    23010797.676
 117535258.812 7  91585940.30945  22366215.773                    22366224.625
 109438912.690 8  85277094.82346  20825533.922                    20825541.918
 111648510.413 8  86998857.12046  21246005.422                    21246012.500
 130541334.619 7 101720569.37843  24841194.883                    24841206.789
 120077759.305 7  93567110.10144  22850039.500                    22850049.113
 122062630.747 7  95113763.93144  23227745.492                    23227753.965
 109794049.481 8  85553821.550 7  20893113.672                    20893121.066
 128201610.172 6  99897359.405 6  24395954.633                    24395968.656
 118024381.929 7  91967069.95445  22459295.430                    22459303.250
 11  8 12 17 46 30.0000000  0 10G11G08G13G19G10G03G28G07G01G23
 120848862.794 7  94167965.74544  22996774.234                    22996782.492
 117463234.804 7  91529817.72645  22352509.656                    22352518.840
 109507228.010 8  85330327.49346  20838533.805                    20838541.996
 111692466.593 8  87033108.67246  21254370.273                    21254376.594
 130597293.485 6 101764173.57943  24851843.805                    24851856.051
 120176235.406 7  93643844.68944  22868779.344                    22868788.453
 122015187.446 7  95076795.14744  23218716.992                    23218726.191
 109752088.814 8  85521124.919 7  20885128.781                    20885136.672
 128148732.934 6  99856156.426 6  24385892.391                    24385906.004
 118129568.171 7  92049033.14145  22479311.859                    22479319.336
 11  8 12 17 47  0.0000000  0 10G11G08G13G19G10G03G28G07G01G23
 120775395.180 7  94110718.25744  22982793.898                    22982802.086
 117391232.358 7  91473711.95545  22338807.859                    22338816.965
 109576032.424 8  85383941.27746  20851626.781                    20851635.320
 111736981.270 7  87067795.42146  21262841.445                    21262847.406
 130653393.086 6 101807887.46243  24862518.719                    24862530.844
 120274982.764 7  93720790.64044  22887570.078                    22887579.527
 121967941.400 7  95039980.05544  23209726.289                    23209735.250
 109710330.417 8  85488585.902 7  20877182.203                    20877189.914
 128096079.380 6  99815127.749 6  24375873.227                    24375886.563
 118234990.054 7  92131179.95545  22499372.953                    22499380.668
 11  8 12 17 47 30.0000000  0 10G11G08G13G19G10G03G28G07G01G23
 120702110.870 6  94053613.59344  22968847.977                    22968856.820
 117319252.623 7  91417623.84745  22325110.789                    22325119.820
 109645323.477 8  85437934.25446  20864812.789                    20864820.676
 111782052.173 7  87102915.59646  21271417.828                    21271424.500
 130709630.354 6 101851708.63943  24873220.648                    24873232.395
 120373998.354 7  93797945.59844  22906412.273                    22906420.910
 121920891.805 7  95003318.06244  23200773.891                    23200782.422
 109668775.842 8  85456205.704 7  20869274.727                    20869282.719
 128043651.631 6  99774275.039 6  24365896.633                    24365909.992
 118340644.902 7  92213508.29645  22519478.625                    22519486.434
 11  8 12 17 48  0.0000000  0 10G11G08G13G19G10G03G28G07G01G23
 120629013.145 7  93996654.31944  22954937.672                    22954947.043
 117247296.986 7  91361554.54145  22311417.953                    22311427.020
 109715098.948 8  85492304.70546  20878090.469                    20878098.719
 111827677.763 7  87138467.99146  21280100.297                    21280106.660
 130766002.795 6 101895635.08643  24883948.195                    24883960.238
 120473279.046 7  93875307.14244  22925304.414                    22925313.625
 121874037.782 7  94966808.47144  23191857.625                    23191866.191
 109627426.895 8  85423985.736 7  20861406.281                    20861414.320
 127991452.913 6  99733600.784 6  24355962.883                    24355976.797
 118446529.697 7  92296015.82045  22539628.203                    22539635.492
 11  8 12 17 48 30.0000000  0 10G11G08G13G19G10G03G28G07G01G23
 120556105.249 7  93939842.98844  22941063.898                    22941073.105
 117175366.926 7  91305505.18145  22297730.531                    22297739.168
 109785357.199 8  85547051.34746  20891460.195                    20891468.211
 111873856.316 7  87174451.27246  21288887.703                    21288894.027
 130822507.663 6 101939664.74043  24894700.445                    24894712.520
 120572822.223 7  93952873.22743  22944247.250                    22944256.957
 121827379.097 7  94930451.04644  23182978.555                    23182986.773
 109586285.734 8  85391927.690 7  20853577.414                    20853585.004
 127939486.286 6  99693107.364 6  24346074.727                    24346087.176
 118552641.864 7  92378700.52345  22559820.234                    22559827.848
 11  8 12 17 49  0.0000000  0 10G11G08G13G19G10G03G28G07G01G23
 120483389.800 7  93883181.61244  22927226.711                    22927235.961
 117103463.656 7  91249476.67445  22284047.867                    22284056.141
 109856095.244 8  85602171.84646  20904921.477                    20904929.633
 111920585.832 7  87210863.86846  21297779.867                    21297786.660
 130879141.910 6 101983795.27343  24905478.094                    24905489.797
 120672625.101 7  94030641.64744  22963239.375                    22963248.148
 121780914.966 7  94894245.25344  23174136.672                    23174145.770
 109545353.799 8  85360032.665 7  20845788.234                    20845796.121
 127887753.886 6  99652796.487 6  24336229.531                    24336243.449
 118658977.837 7  92461559.61644  22580055.922                    22580062.914
 11  8 12 17 49 30.0000000  0 10G11G08G13G19G10G03G28G07G01G23
 120410870.214 7  93826672.86744  22913426.813                    22913436.090
 117031588.791 7  91193470.30345  22270370.180                    22270379.023
 109927311.103 8  85657664.67346  20918473.242                    20918481.555
 111967864.115 8  87247704.08146  21306776.570                    21306783.078
 130935902.969 6 102028024.57843  24916279.672                    24916291.238
 120772684.340 7  94108609.84544  22982280.117                    22982289.250
 121734644.441 7  94858190.31244  23165331.859                    23165340.723
 109504632.728 8  85328301.963 7  20838039.328                    20838047.199
 127836258.640 6  99612670.383 6  24326430.055                    24326443.746
 118765534.804 7  92544590.90844  22600332.789                    22600340.207
 11  8 12 17 50  0.0000000  0  9G11G08G13G19G03G28G07G01G23
 120338550.499 7  93770319.85144  22899664.789                    22899673.820
 116959744.927 7  91137488.09645  22256698.477                    22256707.336
 109999003.408 8  85713528.75246  20932115.836                    20932124.180
 112015690.890 7  87284971.68546  21315877.961                    21315884.609
 120872998.386 7  94186776.57044  23001369.617                    23001378.902
 121688568.264 7  94822286.81044  23156563.703                    23156572.215
 109464125.416 8  85296737.816 7  20830330.969                    20830338.586
 127785004.237 6  99572731.943 6  24316677.211                    24316690.422
 118872310.991 7  92627793.02544  22620651.453                    22620659.371
 11  8 12 17 50 30.0000000  0  9G11G08G13G19G03G28G07G01G23
 120266432.680 7  93714124.17044  22885940.922                    22885949.824
 116887932.421 7  91081530.30445  22243033.539                    22243041.781
 110071169.236 8  85769761.81546  20945848.703                    20945856.859
 112064063.156 8  87322664.33546  21325082.977                    21325089.273
 120973563.590 7  94265139.00744  23020505.461                    23020515.512
 121642684.740 7  94786533.43344  23147832.648                    23147841.250
 109423833.205 8  85265341.296 7  20822663.688                    20822671.402
 127733992.588 6  99532982.671 6  24306969.492                    24306982.863
 118979302.798 7  92711163.14244  22641011.484                    22641019.313
 11  8 12 17 51  0.0000000  0  9G11G08G13G19G03G28G07G01G23
 120194519.640 7  93658088.06044  22872256.070                    22872265.031
 116816152.164 7  91025597.66345  22229373.648                    22229382.992
 110143806.192 8  85826361.97946  20959671.344                    20959679.559
 112112978.581 7  87360780.23846  21334391.164                    21334397.746
 121074376.786 7  94343694.69843  23039689.813                    23039699.742
 121596992.864 7  94750929.40544  23139137.344                    23139146.230
 109383757.260 8  85234113.280 7  20815037.547                    20815045.445
 127683226.320 6  99493424.617 6  24297308.875                    24297322.504
 119086506.928 7  92794698.70844  22661411.984                    22661419.883
 11  8 12 17 51 30.0000000  0 10G24G11G08G13G19G03G28G07G01G23
 128082410.25316  99804546.20353  24373279.000                    24373290.547
 120122814.066 7  93602213.60944  22858611.695                    22858620.148
 116744405.592 7  90969691.24845  22215720.922                    22215729.418
 110216911.299 8  85883326.94546  20973582.398                    20973590.758
 112162435.240 8  87399317.88346  21343802.164                    21343808.977
 121175434.836 6  94422441.17244  23058920.969                    23058930.523
 121551492.018 7  94715474.23244  23130479.250                    23130488.109
 109343899.277 8  85203055.109 7  20807452.773                    20807460.566
 127632707.668 6  99454059.479 6  24287695.422                    24287709.516
 119193920.293 7  92878397.30944  22681851.875                    22681860.031
 11  8 12 17 52  0.0000000  0 10G24G11G08G13G19G03G28G07G01G23
 128009042.053 6  99747376.29642  24359317.313                    24359329.438
 120051319.269 7  93546503.40944  22845006.352                    22845015.914
 116672694.026 7  90913812.13645  22202074.914                    22202083.664
 110290482.193 8  85940654.86046  20987582.500                    20987590.828
 112212430.883 8  87438275.50546  21353316.461                    21353323.051
 121276734.659 7  94501376.01344  23078197.570                    23078207.430
 121506181.216 7  94680167.14744  23121856.398                    23121865.371
 109304260.937 8  85172168.094 7  20799910.070                    20799917.711
 127582439.135 6  99414889.237 6  24278129.336                    24278143.625
 119301540.060 7  92962256.72744  22702331.625                    22702339.480
 11  8 12 17 52 30.0000000  0 10G24G11G08G13G19G03G28G07G01G23
 127935607.876 6  99690154.95242  24345342.836                    24345356.340
 119980037.933 7  93490959.54244  22831441.859                    22831451.152
 116601019.315 7  90857961.73045  22188435.383                    22188443.848
 110364516.873 8  85998344.16246  21001671.234                    21001679.441
 112262964.139 8  87477652.05446  21362932.438                    21362939.340
 121378273.646 6  94580497.24744  23097519.945                    23097529.555
 121461060.123 7  94645007.88844  23113270.430                    23113279.133
 109264844.255 8  85141453.795 7  20792409.211                    20792416.980
 127532423.935 6  99375916.394 6  24268611.922                    24268625.699
 119409363.077 7  93046274.54944  22722849.930                    22722857.934
 11  8 12 17 53  0.0000000  0 10G24G11G08G13G19G03G28G07G01G23
 127862110.279 5  99632884.18242  24331356.883                    24331370.605
 119908973.552 7  93435584.72544  22817918.578                    22817927.305
 116529383.020 7  90802141.26845  22174803.414                    22174812.543
 110439012.886 8  86056392.95346  21015847.297                    21015855.461
 112314032.652 8  87517445.67846  21372650.773                    21372657.023
 121480049.097 6  94659802.69644  23116886.406                    23116897.258
 121416128.064 7  94609995.91944  23104720.219                    23104728.859
 109225650.957 8  85110913.564 7  20784950.828                    20784958.902
 127482664.672 6  99337142.981 6  24259142.789                    24259156.758
 119517386.713 7  93130448.68045  22743405.648                    22743414.281
 11  8 12 17 53 30.0000000  0 10G24G11G08G13G19G03G28G07G01G23
 127788552.446 6  99575566.54842  24317358.906                    24317372.520
 119838129.281 7  93380381.44744  22804437.555                    22804446.594
 116457786.645 7  90746351.90145  22161179.023                    22161188.152
 110513968.172 8  86114799.61346  21030110.656                    21030119.320
 112365634.627 8  87557654.98746  21382469.898                    21382476.516
 121582058.120 6  94739290.16943  23136298.789                    23136308.785
 121371384.466 7  94575130.81044  23096205.305                    23096214.195
 109186683.320 8  85080549.169 7  20777535.961                    20777543.480
 127433163.954 6  99298571.031 6  24249723.906                    24249737.289
 119625608.077 7  93214776.89844  22764000.352                    22764008.117
 11  8 12 17 54  0.0000000  0 10G24G11G08G13G19G03G28G07G01G23
 127714937.042 6  99518204.04942  24303350.242                    24303364.090
 119767508.143 7  93325352.04244  22790998.406                    22791007.754
 116386231.461 7  90690594.62745  22147562.328                    22147571.473
 110589379.985 8  86173562.00846  21044461.063                    21044469.547
 112417767.632 8  87598278.07946  21392390.789                    21392397.277
 121684298.006 6  94818957.53743  23155754.914                    23155764.270
 121326828.241 7  94540411.72244  23087726.820                    23087735.625
 109147942.866 8  85050361.807 7  20770163.758                    20770171.426
 127383924.796 6  99260202.903 6  24240353.500                    24240367.066
 119734024.429 7  93299257.05344  22784631.000                    22784639.363
 11  8 12 17 54 30.0000000  0 10G24G11G08G13G19G03G28G07G01G23
 127641266.974 5  99460798.97242  24289331.281                    24289344.602
 119697112.922 7  93270498.66944  22777602.500                    22777611.852
 116314719.357 7  90634870.91545  22133954.484                    22133963.465
 110665246.087 8  86232678.39646  21058897.992                    21058906.152
 112470430.343 7  87639313.93446  21402412.234                    21402418.488
 121786765.803 7  94898802.49644  23175253.664                    23175263.168
 121282458.976 7  94505838.30644  23079283.734                    23079292.164
 109109431.599 8  85020353.024 7  20762835.078                    20762843.023
 127334949.884 6  99222040.661 6  24231034.398                    24231046.844
 119842632.727 7  93383886.76644  22805298.586                    22805307.039
 11  8 12 17 55  0.0000000  0 10G24G11G08G13G19G03G28G07G01G23
 127567544.593 5  99403353.12942  24275302.367                    24275315.574
 119626946.788 7  93215823.80744  22764250.883                    22764260.035
 116243251.336 7  90579181.57045  22120354.367                    22120363.285
 110741563.803 8  86292146.68746  21073420.875                    21073428.938
 112523620.260 8  87680760.59746  21412533.680                    21412540.164
 121889458.717 7  94978822.86944  23194795.688                    23194805.152
 121238276.008 7  94471410.02344  23070876.242                    23070885.063
 109071151.036 8  84990524.013 7  20755550.805                    20755558.578
 127286241.455 6  99184086.079 6  24221765.086                    24221777.902
 119951429.897 7  93468663.66544  22826002.047                    22826009.859
 11  8 12 17 55 30.0000000  0 10G24G11G08G13G19G03G28G07G01G23
 127493773.018 6  99345868.93743  24261262.961                    24261277.301
 119557012.970 7  93161329.97444  22750942.469                    22750951.578
 116171829.539 7  90523528.22245  22106763.273                    22106771.895
 110818331.238 8  86351965.41246  21088029.031                    21088037.383
 112577335.537 8  87722616.62946  21422755.578                    21422762.160
 121992373.791 6  95059016.34944  23214379.555                    23214389.559
 121194278.654 7  94437126.41444  23062503.266                    23062512.602
 109033103.530 8  84960876.598 7  20748310.484                    20748318.117
 127237802.753 6  99146341.669 6  24212547.602                    24212561.070
 120060413.518 7  93553585.82644  22846741.258                    22846748.836
 11  8 12 17 56  0.0000000  0 10G24G11G08G13G19G03G28G07G01G23
 127419955.033 6  99288348.55742  24247215.945                    24247230.094
 119487314.529 7  93107019.55944  22737679.313                    22737688.398
 116100455.525 7  90467912.13045  22093180.945                    22093190.250
 110895546.025 8  86412132.72446  21102722.789                    21102731.078
 112631574.287 8  87764880.56346  21433076.992                    21433083.355
 122095508.741 7  95139381.17344  23234005.680                    23234016.023
 121150466.057 7  94402986.75144  23054166.563                    23054174.531
 108995291.065 8  84931412.341 7  20741114.867                    20741122.828
 127189636.418 7  99108809.502 6  24203381.617                    24203395.152
 120169580.591 7  93638650.94944  22867514.563                    22867523.117
 11  8 12 17 56 30.0000000  0 10G24G11G08G13G19G03G28G07G01G23
 127346093.074 6  99230793.92043  24233160.789                    24233173.953
 119417854.542 7  93052894.93044  22724461.516                    22724470.477
 116029130.529 7  90412334.22445  22079608.547                    22079617.520
 110973205.289 8  86472646.37046  21117501.172                    21117509.047
 112686333.867 7  87807550.34446  21443496.898                    21443503.824
 122198860.086 7  95219914.61243  23253672.820                    23253682.559
 121106837.681 7  94368990.65444  23045863.828                    23045873.039
 108957714.849 8  84902132.178 7  20733964.633                    20733971.918
 127141744.860 7  99071491.450 6  24194269.094                    24194281.559
 120278927.667 7  93723856.31444  22888322.750                    22888330.477
 11  8 12 17 57  0.0000000  0 10G24G11G08G13G19G03G28G07G01G23
 127272190.308 6  99173207.48643  24219098.875                    24219111.105
 119348635.865 7  92998958.36744  22711289.477                    22711298.391
 115957856.253 7  90356795.84145  22066045.719                    22066054.398
 111051306.631 8  86533504.50946  21132363.297                    21132371.973
 112741612.433 8  87850624.52346  21454016.094                    21454022.590
 122302425.273 7  95300614.68343  23273380.492                    23273390.488
 121063392.908 7  94335137.61644  23037596.445                    23037605.023
 108920377.311 8  84873037.986 7  20726859.344                    20726867.027
 127094130.792 6  99034389.615 6  24185207.703                    24185220.859
 120388452.040 6  93809199.85344  22909165.063                    22909173.078
 11  8 12 17 57 30.0000000  0 10G24G11G08G13G19G03G28G07G01G23
 127198249.047 6  99115590.99743  24205027.633                    24205040.293
 119279661.318 7  92945211.99844  22698164.055                    22698173.090
 115886633.825 7  90301297.86345  22052492.563                    22052500.945
 111129846.866 8  86594704.63246  21147308.828                    21147317.254
 112797407.325 7  87894101.04146  21464633.586                    21464640.051
 122406201.099 7  95381478.89943  23293128.727                    23293138.367
 121020130.246 7  94301426.47244  23029363.797                    23029372.590
 108883279.142 8  84844130.320 7  20719799.656                    20719807.691
 127046796.277 7  98997505.609 6  24176200.492                    24176213.105
 120498150.512 7  93894679.03844  22930039.758                    22930048.082
 11  8 12 17 58  0.0000000  0 10G24G11G08G13G19G03G28G07G01G23
 127124272.522 6  99057947.06343  24190950.195                    24190963.004
 119210933.918 7  92891658.22044  22685086.016                    22685094.719
 115815465.568 7  90245842.10145  22038949.789                    22038958.801
 111208824.208 8  86656245.36446  21162337.914                    21162346.426
 112853716.854 8  87937978.56446  21475349.250                    21475355.742
 122510184.839 6  95462505.12543  23312915.703                    23312925.371
 120977049.577 7  94267857.13244  23021165.711                    23021175.117
 108846423.127 8  84815411.346 7  20712786.289                    20712794.273
 126999744.294 7  98960841.755 6  24167246.695                    24167259.746
 120608020.610 6  93980291.97244  22950947.617                    22950955.820
 11  8 12 17 58 30.0000000  0 10G24G11G08G13G19G03G28G07G01G23
 127050263.418 6  99000277.71543  24176866.406                    24176879.129
 119142456.647 7  92838299.34444  22672054.922                    22672063.777
 115744352.791 7  90190429.55745  22025417.508                    22025426.102
 111288235.804 8  86718124.46946  21177449.430                    21177457.824
 112910538.474 8  87982255.13146  21486162.297                    21486168.695
 122614373.881 6  95543691.32043  23332742.477                    23332752.215
 120934149.702 7  94234428.69644  23013002.109                    23013010.887
 108809810.951 8  84786882.376 7  20705819.289                    20705827.203
 126952977.478 7  98924400.120 6  24158347.047                    24158360.141
 120718059.044 7  94066036.06044  22971887.125                    22971895.684
 11  8 12 17 59  0.0000000  0 10G24G11G08G13G19G03G28G07G01G23
 126976224.634 6  98942585.24243  24162777.336                    24162790.059
 119074232.496 7  92785137.70744  22659072.359                    22659080.914
 115673296.932 8  90135061.37645  22011895.656                    22011904.691
 111368079.278 8  86780340.09745  21192643.367                    21192651.688
 112967870.173 7  88026929.15846  21497072.086                    21497078.684
 122718765.447 7  95625035.35943  23352607.563                    23352617.316
 120891430.151 7  94201140.74644  23004872.781                    23004881.367
 108773444.458 8  84758544.843 7  20698898.875                    20698906.703
 126906498.489 7  98888182.758 6  24149502.453                    24149515.344
 120828263.141 7  94151909.26244  22992858.711                    22992866.773
 11  8 12 17 59 30.0000000  0 10G24G11G08G13G19G03G28G07G01G23
 126902158.871 6  98884871.75643  24148682.594                    24148695.996
 119006265.157 7  92732176.17344  22646138.313                    22646147.422
 115602300.064 7  90079739.15845  21998385.523                    21998394.402
 111448352.380 8  86842890.50146  21207918.859                    21207927.117
 113025709.866 7  88071999.03546  21508078.516                    21508085.145
 122823356.456 6  95706534.78643  23372510.734                    23372520.535
 120848890.409 7  94167992.91444  22996778.016                    22996786.375
 108737325.598 8  84730400.275 7  20692025.586                    20692033.734
 126860310.018 7  98852191.775 6  24140713.477                    24140725.688
 120938630.048 7  94237909.31844  23013861.219                    23013869.359
 11  8 12 18  0  0.0000000  0 10G24G11G08G13G19G03G28G07G01G23
 126828069.182 7  98827139.61043  24134584.102                    24134597.051
 118938557.305 7  92679416.83544  22633254.133                    22633263.375
 115531363.725 7  90024464.10345  21984886.477                    21984895.555
 111529052.394 8  86905773.56746  21223275.328                    21223283.574
 113084055.521 7  88117463.15346  21519181.656                    21519187.863
 122928144.427 6  95788187.69343  23392451.469                    23392461.484
 120806529.671 7  94134984.56644  22988717.203                    22988725.270
 108701456.551 8  84702450.367 7  20685199.977                    20685207.871
 126814414.938 7  98816429.417 6  24131979.336                    24131992.520
 121049156.815 7  94324033.92344  23034893.656                    23034901.793
 11  8 12 18  0 30.0000000  0 10G24G11G08G13G19G03G28G07G01G23
 126753958.351 6  98769390.95643  24120481.523                    24120494.207
 118871111.878 7  92626861.96744  22620420.094                    22620428.555
 115460489.281 8  89969237.28245  21971399.547                    21971408.520
 111610176.385 7  86968987.00646  21238712.789                    21238721.191
 113142904.517 7  88163319.48946  21530379.820                    21530386.770
 123033126.501 6  95869991.86743  23412428.992                    23412438.605
 120764346.744 7  94102114.79044  22980689.820                    22980698.719
 108665838.605 8  84674696.121 7  20678422.281                    20678430.152
 126768815.304 7  98780897.282 6  24123302.383                    24123314.590
 121159840.093 7  94410280.48344  23055955.891                    23055964.527
 11  8 12 18  1  0.0000000  0 10G24G11G08G13G19G03G28G07G01G23
 126679829.321 7  98711628.12943  24106374.914                    24106387.941
 118803931.852 7  92574513.92244  22607636.055                    22607644.527
 115389678.391 7  89914059.97745  21957924.969                    21957933.770
 111691722.023 8  87032528.99245  21254230.398                    21254239.141
 113202254.555 8  88209566.24446  21541673.758                    21541680.473
 123138299.753 6  95951945.01243  23432442.508                    23432452.746
 120722341.207 7  94069383.20444  22972696.766                    22972704.941
 108630473.858 8  84647139.172 8  20671692.469                    20671700.793
 126723513.990 6  98745597.602 6  24114681.664                    24114694.434
 121270677.208 7  94496646.92544  23077047.664                    23077056.313
 11  8 12 18  1 30.0000000  0 10G24G11G08G13G19G03G28G07G01G23
 126605684.851 6  98653853.24143  24092265.633                    24092278.145
 118737020.081 7  92522374.90544  22594903.164                    22594911.836
 115318932.807 7  89858933.55445  21944462.070                    21944470.875
 111773686.421 7  87096397.29745  21269827.883                    21269836.645
 113262103.505 8  88256201.76246  21553062.766                    21553069.172
 123243661.183 6  96034044.78643  23452492.094                    23452501.949
 120680512.186 7  94036789.19344  22964736.617                    22964744.789
 108595364.016 8  84619780.848 7  20665011.656                    20665019.332
 126678513.393 6  98710532.249 6  24106118.688                    24106131.215
 121381665.371 7  94583131.05744  23098168.438                    23098176.590
 11  8 12 18  2  0.0000000  0 10G24G11G08G13G19G03G28G07G01G23
 126531527.390 6  98596068.23943  24078153.500                    24078166.766
 118670379.640 7  92470447.29744  22582221.711                    22582230.688
 115248254.088 8  89803859.24245  21931012.789                    21931021.293
 111856067.001 7  87160589.88645  21285504.328                    21285513.074
 113322448.791 8  88303224.03446  21564546.125                    21564552.813
 123349208.487 6  96116289.38243  23472577.180                    23472587.512
 120638859.010 7  94004332.18644  22956810.484                    22956818.523
 108560511.133 8  84592622.755 7  20658378.969                    20658386.820
 126633816.134 6  98675703.262 6  24097612.516                    24097625.793
 121492801.496 6  94669730.47644  23119317.023                    23119324.711
 11  8 12 18  2 30.0000000  0 10G24G11G08G13G19G03G28G07G01G23
 126457360.213 6  98538275.60843  24064040.305                    24064053.277
 118604013.653 7  92418733.55144  22569592.719                    22569601.457
 115177643.837 7  89748838.28245  21917575.930                    21917584.914
 111938861.101 7  87225104.70745  21301259.422                    21301268.324
 113383288.249 8  88350631.38046  21576123.117                    21576129.828
 123454938.668 6  96198676.47043  23492697.273                    23492706.773
 120597380.544 7  93972011.33544  22948917.328                    22948925.430
 108525916.918 7  84565666.219 7  20651795.930                    20651803.984
 126589424.407 6  98641112.357 6  24089164.352                    24089177.875
 121604082.789 6  94756442.99844  23140493.398                    23140501.320
 11  8 12 18  3  0.0000000  0 10G24G11G08G13G19G03G28G07G01G23
 126383186.089 6  98480477.61243  24049925.156                    24049938.172
 118537924.824 7  92367235.76944  22557016.195                    22557025.172
 115107104.078 8  89693872.23645  21904152.813                    21904161.531
 112022066.230 8  87289939.80845  21317093.180                    21317101.793
 113444619.671 8  88398422.07346  21587794.445                    21587801.262
 123560849.003 6  96281203.94343  23512852.188                    23512861.617
 120556076.205 7  93939826.18944  22941057.133                    22941066.086
 108491583.304 8  84538912.751 7  20645262.516                    20645270.344
 126545341.266 6  98606761.901 6  24080775.898                    24080789.453
 121715506.163 6  94843266.23844  23161696.359                    23161704.871
 11  8 12 18  3 30.0000000  0 10G24G11G08G13G19G03G28G07G01G23
 126309008.429 6  98422676.80543  24035809.359                    24035822.879
 118472116.615 7  92315956.64544  22544493.664                    22544502.254
 115036636.832 8  89638962.70845  21890743.289                    21890752.047
 112105680.251 8  87355093.51545  21333004.570                    21333012.727
 113506440.774 8  88446594.33846  21599558.375                    21599565.254
 123666936.271 6  96363869.29443  23533038.461                    23533049.148
 120514945.453 7  93907776.26744  22933229.969                    22933238.926
 108457512.372 8  84512363.968 8  20638779.094                    20638787.102
 126501569.017 6  98572653.703 7  24072446.555                    24072460.160
 121827069.087 7  94930198.22044  23182925.977                    23182934.594
 11  8 12 18  4  0.0000000  0 10G24G11G08G13G19G03G28G07G01G23
 126234829.846 6  98364875.30843  24021693.906                    24021707.051
 118406592.099 7  92264898.59244  22532024.766                    22532033.688
 114966243.404 8  89584110.69545  21877347.563                    21877356.086
 112189699.762 7  87420563.20645  21348993.109                    21349001.813
 113568749.204 8  88495146.33346  21611415.531                    21611422.215
 123773198.355 6  96446670.88443  23553260.023                    23553270.551
 120473987.059 7  93875860.66444  22925435.945                    22925444.738
 108423705.968 8  84486021.319 7  20632346.047                    20632353.809
 126458110.410 6  98538789.882 7  24064176.305                    24064189.828
 121938768.289 6  95017236.39744  23204181.758                    23204189.816
 11  8 12 18  4 30.0000000  0 10G24G11G08G13G19G03G28G07G01G23
 126160652.788 6  98307075.04143  24007578.633                    24007592.094
 118341353.577 7  92214063.38944  22519609.664                    22519618.961
 114895925.407 8  89529317.46045  21863966.586                    21863975.660
 112274121.977 8  87486346.69045  21365058.156                    21365066.375
 113631542.032 8  88544075.79346  21623364.539                    21623371.520
 123879632.152 6  96529606.26344  23573513.898                    23573523.934
 120433200.287 7  93844078.78544  22917674.438                    22917683.105
 108390165.468 8  84459885.854 8  20625963.164                    20625971.484
 126414967.644 6  98505172.176 7  24055966.938                    24055980.297
 122050600.493 6  95104378.23744  23225462.938                    23225471.293
 11  8 12 18  5  0.0000000  0 10G24G11G08G13G19G03G28G07G01G23
 126086480.490 6  98249278.41843  23993464.516                    23993476.945
 118276404.393 7  92163453.63744  22507250.695                    22507259.926
 114825684.501 8  89474584.30545  21850600.328                    21850609.023
 112358944.506 8  87552442.10945  21381198.992                    21381207.430
 113694817.202 7  88593381.09146  21635405.570                    21635412.273
 123986234.866 6  96612673.27643  23593799.773                    23593809.656
 120392584.536 7  93812430.17544  22909945.336                    22909954.332
 108356893.028 8  84433959.278 8  20619631.852                    20619639.586
 126372143.062 6  98471802.399 7  24047816.797                    24047830.945
 122162563.408 6  95191621.88444  23246768.969                    23246777.289
 11  8 12 18  5 30.0000000  0 10G24G11G08G13G19G03G28G07G01G23
 126012316.170 6  98191488.02643  23979350.844                    23979363.676
 118211747.595 7  92113071.72445  22494947.023                    22494955.844
 114755522.751 8  89419912.81545  21837249.000                    21837257.504
 112444165.005 7  87618847.62045  21397416.102                    21397424.758
 113758572.732 8  88643060.69646  21647537.594                    21647544.363
 124093003.953 6  96695869.90043  23614117.469                    23614127.410
 120352139.071 7  93780914.26644  22902248.680                    22902257.332
 108323890.957 8  84408243.385 8  20613351.828                    20613359.664
 126329639.960 6  98438683.118 7  24039729.711                    24039742.953
 122274654.009 7  95278965.03944  23268099.563                    23268107.727
 11  8 12 18  6  0.0000000  0 10G24G11G08G13G19G03G28G07G01G23
 125938162.776 6  98133706.15342  23965239.977                    23965252.633
 118147386.236 7  92062920.02445  22482699.266                    22482707.852
 114685441.968 8  89365304.42645  21823912.844                    21823921.840
 112529780.616 8  87685561.00845  21413708.359                    21413716.676
 113822805.957 8  88693112.54146  21659760.930                    21659767.695
 124199936.693 6  96779194.05243  23634465.992                    23634476.051
 120311862.843 7  93749530.22345  22894584.813                    22894593.477
 108291160.901 7  84382739.444 7  20607123.273                    20607131.285
 126287460.501 6  98405816.016 7  24031702.484                    24031716.203
 122386869.460 7  95366405.49744  23289452.852                    23289462.184
 11  8 12 18  6 30.0000000  0 10G24G11G08G13G19G03G28G07G01G23
 125864022.809 6  98075934.76443  23951132.180                    23951144.406
 118083323.108 7  92013000.71645  22470508.555                    22470517.141
 114615443.840 8  89310760.43945  21810592.906                    21810601.285
 112615788.145 7  87752579.79045  21430075.219                    21430083.723
 113887514.135 8  88743534.47546  21672074.305                    21672081.430
 124307029.951 6  96862643.32143  23654844.953                    23654855.465
 120271755.353 7  93718277.66345  22886952.313                    22886961.059
 108258704.594 8  84357448.817 8  20600946.875                    20600955.188
 126245606.702 6  98373202.666 7  24023738.453                    24023751.730
 122499206.579 7  95453940.75044  23310830.617                    23310839.086
 11  8 12 18  7  0.0000000  0 10G24G11G08G13G19G03G28G07G01G23
 125789898.851 6  98018175.86343  23937026.133                    23937039.246
 118019560.774 7  91963315.78044  22458374.742                    22458384.027
 114545530.118 8  89256282.22245  21797288.797                    21797297.492
 112702184.521 8  87819901.56745  21446515.320                    21446524.527
 113952695.129 8  88794324.83846  21684478.039                    21684484.891
 124414281.484 6  96946215.86843  23675254.375                    23675264.855
 120231815.242 7  93687155.53244  22879351.906                    22879360.363
 108226523.703 8  84332372.798 7  20594823.352                    20594831.270
 126204081.204 6  98340845.149 7  24015836.539                    24015849.883
 122611662.207 7  95541568.35344  23332230.469                    23332238.703
 11  8 12 18  7 30.0000000  0 10G24G11G08G13G19G03G28G07G01G23
 125715794.176 6  97960431.96743  23922925.109                    23922937.590
 117956102.634 7  91913867.88745  22446299.578                    22446307.867
 114475702.587 8  89201871.17945  21784001.086                    21784009.805
 112788967.484 7  87887524.57945  21463030.180                    21463038.855
 114018346.412 8  88845481.65246  21696970.844                    21696978.168
 124521688.275 6  97029909.48143  23695692.852                    23695703.320
 120192041.933 7  93656163.36144  22871783.250                    22871792.398
 108194620.042 8  84307512.805 8  20588752.250                    20588759.926
 126162886.355 6  98308745.271 7  24007997.328                    24008010.266
 122724233.656 7  95629286.19644  23353651.977                    23353660.617
 11  8 12 18  8  0.0000000  0 10G24G11G08G13G19G03G28G07G01G23
 125641711.965 7  97902705.60043  23908827.508                    23908840.320
 117892951.715 7  91864659.38144  22434282.055                    22434291.195
 114405963.531 8  89147529.06845  21770729.844                    21770738.629
 112876134.435 8  87955446.79845  21479617.422                    21479626.121
 114084465.348 8  88897002.87646  21709553.313                    21709559.895
 124629247.644 6  97113721.97643  23716160.695                    23716171.285
 120152434.555 7  93625300.48444  22864246.563                    22864255.172
 108162996.002 8  84282870.695 8  20582734.445                    20582742.383
 126122024.804 6  98276905.106 7  24000221.063                    24000235.047
 122836918.260 7  95717092.21844  23375095.047                    23375104.516
 11  8 12 18  8 30.0000000  0 10G24G11G08G13G19G03G28G07G01G23
 125567655.110 7  97844999.01443  23894734.305                    23894747.688
 117830110.717 7  91815692.37145  22422323.727                    22422332.809
 114336314.521 8  89093257.12345  21757476.258                    21757484.875
 112963682.541 7  88023666.03145  21496277.453                    21496286.152
 114151049.556 8  88948886.64046  21722224.063                    21722230.301
 124736957.272 6  97197651.49843  23736656.992                    23736667.848
 120112992.486 7  93594566.42445  22856740.258                    22856749.426
 108131653.623 8  84258448.063 7  20576769.773                    20576777.762
 126081499.015 6  98245326.555 7  23992510.047                    23992523.035
 122949713.028 7  95804984.07544  23396559.703                    23396567.980
 11  8 12 18  9  0.0000000  0 10G24G11G08G13G19G03G28G07G01G23
 125493626.434 7  97787314.38243  23880648.125                    23880660.871
 117767582.394 7  91766969.01445  22410424.883                    22410433.918
 114266757.003 8  89039056.47045  21744239.992                    21744248.391
 113051609.012 8  88092180.08345  21513009.273                    21513018.191
 114218096.735 8  89001131.16846  21734982.758                    21734989.332
 124844813.988 6  97281695.63643  23757181.773                    23757192.109
 120073714.821 7  93563960.47345  22849266.766                    22849275.301
 108100594.128 8  84234245.859 7  20570860.180                    20570867.871
 126041311.415 6  98214011.573 7  23984861.969                    23984875.926
 123062614.912 7  95892959.37944  23418043.797                    23418053.098
 11  8 12 18  9 30.0000000  0 10G24G11G08G13G19G03G28G07G01G23
 125419629.134 7  97729654.18743  23866566.406                    23866579.461
 117705370.111 7  91718491.92645  22398586.109                    22398595.285
 114197292.741 8  88984928.48945  21731021.172                    21731029.945
 113139911.535 8  88160987.17045  21529812.641                    21529821.789
 114285604.331 8  89053734.46146  21747829.008                    21747835.352
 124952815.602 6  97365852.66743  23777733.531                    23777744.023
 120034600.539 7  93533481.82945  22841823.367                    22841832.063
 108069819.665 8  84210265.758 8  20565003.422                    20565011.352
 126001464.441 6  98182961.984 7  23977279.813                    23977292.727
 123175621.215 6  95981016.04444  23439548.453                    23439558.152
 11  8 12 18 10  0.0000000  0 10G24G11G08G13G19G03G28G07G01G23
 125345666.010 7  97672020.65043  23852491.695                    23852504.637
 117643476.394 7  91670263.08245  22386808.313                    22386817.047
 114127923.881 8  88930874.84045  21717820.867                    21717829.980
 113228586.353 8  88230084.35845  21546686.844                    21546695.750
 114353569.755 8  89106694.50646  21760762.070                    21760769.125
 125060958.696 6  97450119.98443  23798313.688                    23798323.238
 119995649.067 7  93503130.04945  22834411.352                    22834419.715
 108039331.980 8  84186509.111 7  20559201.992                    20559209.395
 125961960.357 7  98152179.576 7  23969762.219                    23969775.656
 123288728.915 6  96069151.73444  23461072.313                    23461081.520
 11  8 12 18 10 30.0000000  0 10G24G11G08G13G19G03G28G07G01G23
 125271740.200 7  97614416.17943  23838423.961                    23838436.445
 117581904.412 7  91622284.92044  22375091.195                    22375100.398
 114058652.469 8  88876897.13246  21704638.633                    21704647.582
 113317630.887 7  88299469.63945  21563631.789                    21563640.230
 114421990.435 8  89160009.29346  21773782.305                    21773788.844
 125169240.931 6  97534495.69743  23818918.563                    23818928.750
 119956859.342 7  93472904.29045  22827030.109                    22827038.063
 108009133.231 8  84162977.624 8  20553455.266                    20553463.020
 125922801.621 6  98121666.283 7  23962310.609                    23962323.992
 123401935.036 6  96157364.09444  23482614.875                    23482624.262
 11  8 12 18 11  0.0000000  0 10G24G11G08G13G19G03G28G07G01G23
 125197854.264 7  97556842.81343  23824364.461                    23824376.934
 117520656.813 7  91574559.53844  22363436.203                    22363445.465
 113989480.096 8  88822996.58345  21691475.523                    21691484.406
 113407042.182 8  88369140.70545  21580645.977                    21580655.000
 114490863.608 8  89213676.67246  21786888.523                    21786895.227
 125277659.867 6  97618977.93343  23839549.992                    23839560.129
 119918230.320 7  93442803.78145  22819678.539                    22819687.234
 107979224.957 8  84139672.474 7  20547763.758                    20547771.652
 125883990.113 6  98091423.563 7  23954924.922                    23954938.402
 123515236.573 6  96245650.81643  23504175.656                    23504185.246
 11  8 12 18 11 30.0000000  0 10G24G11G08G13G19G03G28G07G01G23
 125124011.884 7  97499303.37943  23810312.234                    23810324.820
 117459737.227 7  91527089.75744  22351843.844                    22351852.934
 113920409.122 8  88769175.05345  21678332.047                    21678340.457
 113496818.018 8  88439095.81845  21597730.148                    21597738.820
 114560187.452 8  89267695.22645  21800080.180                    21800087.137
 125386212.601 6  97703564.41243  23860206.922                    23860217.016
 119879761.715 7  93412828.26945  22812358.430                    22812366.738
 107949609.751 8  84116595.684 8  20542128.305                    20542136.227
 125845529.322 7  98061454.122 7  23947606.820                    23947619.609
 123628631.234 7  96334010.10244  23525754.383                    23525763.305
 11  8 12 18 12  0.0000000  0 10G24G11G08G13G19G03G28G07G01G23
 125050215.367 6  97441799.67743  23796269.453                    23796282.164
 117399147.434 7  91479876.95545  22340314.000                    22340322.934
 113851441.009 8  88715433.67745  21665207.516                    21665216.445
 113586955.050 7  88509332.39445  21614882.328                    21614891.523
 114629958.493 8  89322062.24145  21813357.172                    21813363.648
 125494896.294 6  97788252.92743  23880888.703                    23880898.750
 119841452.323 7  93382976.80444  22805068.445                    22805077.082
 107920288.649 8  84093748.064 7  20536548.602                    20536556.445
 125807420.665 7  98031759.084 7  23940354.734                    23940367.203
 123742115.433 7  96422439.15044  23547349.992                    23547359.191
 11  8 12 18 12 30.0000000  0 10G24G11G08G13G19G03G28G07G01G23
 124976467.819 7  97384334.13543  23782234.523                    23782247.980
 117338890.745 7  91432923.70745  22328847.992                    22328856.574
 113782577.898 8  88661774.12146  21652103.570                    21652112.328
 113677450.780 7  88579848.46545  21632103.547                    21632111.953
 114700174.741 8  89376776.17046  21826719.070                    21826725.480
 125603708.644 6  97873041.70243  23901595.742                    23901605.734
 119803301.266 7  93353248.74844  22797808.188                    22797816.824
 107891263.803 8  84071131.300 7  20531025.742                    20531033.094
 125769666.552 7  98002340.314 7  23933170.117                    23933183.051
 123855686.420 7  96510935.83443  23568961.633                    23568971.387
 11  8 12 18 13  0.0000000  0 10G24G11G08G13G19G03G28G07G01G23
 124902772.411 7  97326909.21243  23768211.586                    23768224.652
 117278970.388 7  91386232.54145  22317445.359                    22317454.129
 113713821.330 8  88608197.58046  21639019.453                    21639028.895
 113768302.399 8  88650641.85045  21649391.813                    21649400.852
 114770833.449 8  89431834.88045  21840165.078                    21840171.988
 125712646.914 6  97957928.60543  23922325.672                    23922336.086
 119765307.864 7  93323643.51245  22790578.344                    22790587.148
 107862537.223 8  84048746.940 7  20525558.938                    20525566.691
 125732269.580 6  97973199.849 6  23926053.883                    23926067.000
 123969341.585 7  96599498.10444  23590589.820                    23590598.832
 11  8 12 18 13 30.0000000  0 10G24G11G08G13G19G03G28G07G01G23
 124829132.171 7  97269527.26243  23754198.195                    23754210.883
 117219389.036 7  91339805.53545  22306106.688                    22306115.781
 113645173.474 8  88554705.75346  21625956.680                    21625965.219
 113859506.616 7  88721709.99445  21666747.578                    21666756.652
 114841932.208 8  89487236.48946  21853695.180                    21853701.430
 125821708.449 6  98042911.56243  23943079.469                    23943089.652
 119727470.974 7  93294160.25944  22783378.492                    22783386.570
 107834110.597 8  84026596.316 7  20520149.742                    20520157.461
 125695232.077 6  97944339.479 6  23919005.625                    23919018.570
 124083077.894 7  96688123.61144  23612232.219                    23612242.547
 11  8 12 18 14  0.0000000  0 10G24G11G08G13G19G03G28G07G01G23
 124755549.883 6  97212190.49243  23740195.844                    23740208.617
 117160149.239 7  91293644.68645  22294834.227                    22294843.285
 113576636.060 8  88501299.99145  21612914.336                    21612923.434
 113951060.483 7  88793050.58545  21684169.891                    21684178.609
 114913467.926 8  89542978.57546  21867307.508                    21867314.156
 125930890.453 6  98127988.37243  23963856.102                    23963866.137
 119689789.930 7  93264798.43145  22776207.609                    22776216.512
 107805985.587 8  84004680.715 7  20514797.664                    20514804.938
 125658555.929 6  97915760.708 6  23912026.258                    23912039.793
 124196892.187 7  96776809.86743  23633891.336                    23633900.398
 11  8 12 18 14 30.0000000  0 10G24G11G08G13G19G03G28G07G01G23
 124682028.747 6  97154901.34843  23726205.219                    23726218.156
 117101254.302 7  91247752.55045  22283626.375                    22283635.766
 113508211.572 8  88447982.21045  21599893.492                    21599902.332
 114042961.525 8  88864661.70345  21701657.945                    21701666.754
 114985438.544 8  89599059.54945  21881003.156                    21881009.609
 126040190.511 6  98213157.18243  23984655.461                    23984665.441
 119652263.772 7  93235557.27945  22769066.758                    22769075.074
 107778164.596 8  83983002.008 8  20509503.516                    20509511.438
 125622244.012 6  97887465.750 6  23905116.883                    23905129.305
 124310782.242 7  96865555.14243  23655564.219                    23655574.184
 11  8 12 18 15  0.0000000  0 10G24G11G08G13G19G03G28G07G01G23
 124608571.649 6  97097662.14343  23712226.453                    23712239.496
 117042706.816 7  91202131.15245  22272485.633                    22272494.188
 113439901.493 8  88394753.58845  21586894.391                    21586902.668
 114135206.638 7  88936540.93045  21719211.398                    21719221.133
 115057841.255 8  89655477.22745  21894780.195                    21894787.121
 126149606.060 6  98298416.00843  24005476.414                    24005486.773
 119614891.790 7  93206436.28144  22761954.961                    22761963.699
 107750649.299 8  83961561.510 7  20504267.492                    20504275.332
 125586298.441 7  97859456.247 6  23898276.695                    23898288.848
 124424744.673 6  96954356.83743  23677250.750                    23677260.301
 11  8 12 18 15 30.0000000  0 10G24G11G08G13G19G03G28G07G01G23
 124535181.881 6  97040475.38343  23698260.852                    23698273.734
 116984509.530 7  91156782.64845  22261411.000                    22261419.402
 113371708.029 8  88341615.83846  21573917.469                    21573926.531
 114227793.077 7  89008686.11845  21736830.484                    21736839.434
 115130673.428 8  89712229.54346  21908640.281                    21908647.172
 126259134.470 6  98383762.74542  24026319.320                    24026329.059
 119577673.255 7  93177434.84045  22754872.969                    22754880.809
 107723441.735 8  83940360.809 7  20499090.117                    20499098.148
 125550721.296 7  97831733.845 6  23891505.961                    23891518.727
 124538776.845 6  97043212.82543  23698951.016                    23698960.535
 11  8 12 18 16  0.0000000  0 10G24G11G08G13G19G03G28G07G01G23
 124461862.158 6  96983343.23243  23684309.047                    23684321.402
 116926665.285 7  91111709.23745  22250403.914                    22250412.559
 113303632.798 8  88288570.21346  21560963.094                    21560972.035
 114320717.483 7  89081094.65545  21754513.297                    21754522.395
 115203932.234 8  89769314.29945  21922580.984                    21922588.121
 126368773.152 6  98469195.37742  24047182.477                    24047192.449
 119540606.923 7  93148552.00645  22747819.383                    22747827.848
 107696543.307 8  83919400.989 8  20493971.477                    20493979.063
 125515514.489 7  97804300.022 6  23884806.461                    23884819.422
 124652875.629 6  97132120.74243  23720662.297                    23720672.270
 11  8 12 18 16 30.0000000  0 10G24G11G08G13G19G03G28G07G01G23
 124388615.495 6  96926267.98043  23670370.078                    23670382.418
 116869176.803 7  91066913.02245  22239463.680                    22239472.770
 113235677.942 8  88235618.38845  21548031.852                    21548040.289
 114413977.191 7  89153764.47145  21772259.766                    21772269.094
 115277615.030 8  89826729.44045  21936602.773                    21936609.422
 126478519.297 6  98554711.79842  24068066.633                    24068076.590
 119503691.968 7  93119787.12844  22740794.727                    22740802.727
 107669955.856 8  83898683.482 8  20488912.063                    20488919.789
 125480680.690 6  97777156.836 6  23878177.680                    23878190.465
 124767038.241 6  97221078.39243  23742387.438                    23742397.258
 11  8 12 18 17  0.0000000  0 10G24G11G08G13G19G03G28G07G01G23
 124315445.270 6  96869252.32043  23656446.852                    23656458.867
 116812047.125 7  91022396.42645  22228592.531                    22228601.125
 113167845.564 8  88182761.99845  21535123.719                    21535132.570
 114507569.523 7  89226693.47445  21790070.000                    21790079.199
 115351719.467 8  89884473.13746  21950704.508                    21950710.906
 126588370.443 6  98640310.11542  24088970.922                    24088980.465
 119466927.855 7  93091139.79545  22733798.781                    22733807.055
 107643681.850 8  83878210.227 7  20483912.336                    20483920.004
 125446222.326 7  97750306.214 6  23871620.609                    23871633.188
 124881262.332 6  97310083.95343  23764123.688                    23764133.609
 11  8 12 18 17 30.0000000  0 10G24G11G08G13G19G03G28G07G01G23
 124242354.552 7  96812298.57443  23642537.883                    23642549.961
 116755279.255 7  90978161.73945  22217789.789                    22217798.285
 113100137.728 8  88130002.66446  21522239.570                    21522248.367
 114601491.481 7  89299879.32745  21807942.820                    21807952.063
 115426242.992 8  89942543.39245  21964885.188                    21964892.320
 126698324.332 6  98725988.44243  24109894.500                    24109903.703
 119430313.398 7  93062609.04745  22726830.852                    22726839.242
 107617723.083 8  83857982.609 8  20478972.844                    20478980.363
 125412141.471 6  97723749.728 6  23865135.297                    23865147.340
 124995544.677 6  97399134.90443  23785871.008                    23785881.605
 11  8 12 18 18  0.0000000  0 10G24G11G08G13G19G03G28G07G01G23
 124169345.848 6  96755408.75543  23628644.859                    23628656.902
 116698875.552 7  90934210.82445  22207056.656                    22207065.496
 113032556.403 8  88077341.90446  21509379.164                    21509387.844
 114695739.813 7  89373319.48945  21825878.234                    21825887.313
 115501182.208 8  90000937.56445  21979145.930                    21979152.535
 126808377.688 6  98811744.31143  24130837.094                    24130846.965
 119393847.484 7  93034194.07145  22719892.227                    22719900.102
 107592080.460 8  83838001.334 7  20474092.727                    20474100.371
 125378439.657 6  97697488.632 6  23858721.766                    23858734.969
 125109882.206 6  97488228.84943  23807629.164                    23807638.961
 11  8 12 18 18 30.0000000  0 10G24G11G08G13G19G03G28G07G01G23
 124096422.867 7  96698585.72743  23614767.719                    23614779.750
 116642839.159 7  90890546.12845  22196392.680                    22196401.965
 112965103.883 8  88024781.50646  21496543.570                    21496551.926
 114790312.065 7  89447012.06745  21843874.664                    21843883.887
 115576535.270 8  90059654.21845  21993484.656                    21993491.996
 126918528.673 6  98897576.20843  24151797.461                    24151807.434
 119357529.818 7  93005894.60445  22712980.813                    22712988.969
 107566757.026 8  83818268.780 7  20469273.961                    20469281.582
 125345120.202 6  97671525.445 6  23852380.938                    23852393.941
 125224272.291 6  97577363.75843  23829397.047                    23829407.148
 11  8 12 18 19  0.0000000  0  9G24G11G08G13G19G28G07G01G23
 124023588.815 7  96641831.98643  23600907.992                    23600919.652
 116587173.369 7  90847170.20645  22185800.344                    22185808.734
 112897782.344 8  87972323.18746  21483732.273                    21483741.113
 114885205.711 8  89520955.07445  21861932.039                    21861942.027
 115652299.796 8  90118691.48445  22007902.586                    22007909.332
 119321359.863 7  92977710.24445  22706097.398                    22706106.406
 107541754.736 8  83798786.472 8  20464516.406                    20464523.938
 125312184.993 7  97645861.678 6  23846113.602                    23846126.477
 125338712.562 6  97666537.75244  23851174.461                    23851184.406
 11  8 12 18 19 30.0000000  0  9G24G11G08G13G19G28G07G01G23
 123950846.736 7  96585149.95043  23587065.148                    23587077.371
 116531880.797 7  90804085.10845  22175278.141                    22175286.816
 112830593.822 8  87919968.50145  21470946.805                    21470955.457
 114980417.421 8  89595145.92745  21880050.813                    21880059.734
 115728472.821 8  90178047.06645  22022397.820                    22022404.449
 119285336.510 7  92949640.12045  22699242.625                    22699250.984
 107517075.274 8  83779555.719 8  20459819.852                    20459828.000
 125279636.196 6  97620499.002 6  23839920.070                    23839932.453
 125453200.288 6  97755748.71444  23872961.000                    23872971.074
 11  8 12 18 20  0.0000000  0  9G24G11G08G13G19G28G07G01G23
 123878198.830 7  96528541.26043  23573240.484                    23573253.199
 116476963.193 7  90761292.20345  22164827.828                    22164836.133
 112763539.947 8  87867718.74446  21458186.859                    21458195.738
 115075943.657 8  89669581.85945  21898228.664                    21898237.672
 115805050.759 8  90237718.15945  22036970.750                    22036977.109
 119249458.068 7  92921682.91145  22692415.031                    22692423.555
 107492719.568 8  83760577.236 8  20455185.133                    20455193.387
 125247475.194 6  97595438.503 6  23833799.563                    23833812.543
 125567731.707 7  97844993.73643  23894755.438                    23894765.891
 11  8 12 18 20 30.0000000  0  9G24G11G08G13G19G28G07G01G23
 123805648.942 7  96472008.94643  23559434.867                    23559446.957
 116422423.818 8  90718794.00945  22154449.383                    22154458.324
 112696622.839 8  87815575.56646  21445452.820                    21445461.398
 115171782.037 8  89744261.01645  21916466.188                    21916475.367
 115882031.719 7  90297703.30745  22051619.289                    22051626.102
 119213724.313 7  92893838.44245  22685615.195                    22685623.832
 107468690.524 8  83741853.296 8  20450612.328                    20450620.191
 125215705.001 6  97570682.521 6  23827754.023                    23827767.066
 125682304.775 7  97934271.23443  23916558.695                    23916568.332
 11  8 12 18 21  0.0000000  0  9G24G11G08G13G19G28G07G01G23
 123733199.737 7  96415555.12943  23545647.977                    23545660.395
 116368265.284 7  90676592.57745  22144143.391                    22144152.207
 112629844.209 8  87763540.27446  21432745.508                    21432754.563
 115267929.323 8  89819180.88945  21934762.477                    21934771.988
 115959412.828 7  90358000.24945  22066344.602                    22066350.973
 119178134.184 7  92866105.87845  22678842.891                    22678850.641
 107444989.365 8  83723384.861 8  20446102.422                    20446110.141
 125184327.500 6  97546232.536 6  23821783.336                    23821795.758
 125796915.902 6  98023578.34443  23938368.711                    23938378.379
 11  8 12 18 21 30.0000000  0  9G24G11G08G13G19G28G07G01G23
 123660853.917 7  96359181.83543  23531881.438                    23531893.766
 116314489.669 8  90634689.52945  22133909.867                    22133918.879
 112563206.275 8  87711614.62746  21420064.734                    21420073.559
 115364382.050 7  89894338.76845  21953116.719                    21953126.559
 116037190.778 8  90418606.41745  22081144.844                    22081151.563
 119142686.312 7  92838484.19145  22672097.492                    22672105.953
 107421617.426 8  83705172.948 8  20441655.023                    20441662.793
 125153344.201 6  97522089.725 6  23815886.938                    23815900.152
 125911562.267 7  98112912.91143  23960184.758                    23960194.828
 11  8 12 18 22  0.0000000  0  9G24G11G08G13G19G28G07G01G23
 123588614.887 7  96302891.75543  23518135.352                    23518146.746
 116261100.624 7  90593087.70145  22123750.922                    22123759.188
 112496711.479 8  87659800.51146  21407411.359                    21407420.203
 115461137.807 8  89969732.76945  21971528.797                    21971537.980
 116115363.240 8  90479519.99645  22096021.117                    22096027.531
 119107380.351 7  92810973.06445  22665378.938                    22665387.211
 107398577.137 8  83687219.465 8  20437270.398                    20437278.461
 125122757.598 6  97498256.014 6  23810066.547                    23810079.285
 126026241.666 6  98202273.22843  23982007.734                    23982017.309
 11  8 12 18 22 30.0000000  0  9G24G11G08G13G19G28G07G01G23
 123516485.858 7  96246687.36643  23504408.781                    23504421.395
 116208100.546 7  90551788.95945  22113664.867                    22113673.637
 112430361.971 8  87608099.60646  21394785.320                    21394794.023
 115558193.513 7  90045360.48645  21989998.219                    21990007.395
 116193927.581 8  90540738.93545  22110970.938                    22110977.641
 119072215.388 7  92783571.80145  22658687.469                    22658695.922
 107375870.557 8  83669526.029 8  20432949.742                    20432957.465
 125092569.492 6  97474732.819 6  23804321.875                    23804335.172
 126140951.118 6  98291656.96843  24003836.773                    24003846.484
 11  8 12 18 23  0.0000000  0  9G24G11G08G13G19G28G07G01G23
 123444469.720 7  96190570.97043  23490704.484                    23490716.934
 116155491.987 8  90510795.29645  22103653.922                    22103662.414
 112364159.405 8  87556513.20446  21382187.313                    21382195.797
 115655545.819 7  90121219.32245  22008524.172                    22008533.184
 116272880.740 8  90602260.84245  22125995.523                    22126001.883
 119037189.999 7  92756279.31745  22652022.266                    22652030.070
 107353498.873 8  83652093.543 8  20428692.328                    20428700.363
 125062782.322 6  97451522.048 6  23798654.055                    23798666.262
 126255687.624 6  98381061.79243  24025670.031                    24025680.285
 11  8 12 18 23 30.0000000  0  9G24G11G08G13G19G28G07G01G23
 123372569.463 7  96134544.86144  23477022.438                    23477034.684
 116103277.693 7  90470108.84145  22093717.617                    22093726.492
 112298106.258 8  87505043.21946  21369617.852                    21369626.727
 115753192.013 8  90197307.16545  22027105.375                    22027114.719
 116352220.193 8  90664083.75245  22141092.766                    22141100.012
 119002303.734 7  92729095.23745  22645383.656                    22645392.113
 107331464.378 8  83634923.806 8  20424499.477                    20424507.465
 125033397.978 6  97428625.169 6  23793062.227                    23793074.566
 126370448.822 6  98470485.85143  24047509.211                    24047519.078
 11  8 12 18 24  0.0000000  0  9G24G11G08G13G19G28G07G01G23
 123300788.272 7  96078611.52643  23463362.945                    23463375.188
 116051460.340 7  90429731.70145  22083857.422                    22083866.086
 112232204.382 8  87453691.11746  21357077.211                    21357085.820
 115851129.105 7  90273621.68145  22045742.258                    22045751.984
 116431943.263 8  90726205.59445  22156264.172                    22156271.043
 118967555.764 7  92702018.91245  22638771.281                    22638779.109
 107309768.671 8  83618018.049 8  20420370.781                    20420378.777
 125004418.536 6  97406043.800 6  23787546.961                    23787560.563
 126485231.105 6  98559926.33443  24069351.602                    24069361.949
 11  8 12 18 24 30.0000000  0  9G24G11G08G13G19G28G07G01G23
 123229129.229 6  96022773.36843  23449726.672                    23449739.129
 116000042.550 7  90389665.91245  22074072.930                    22074081.469
 112166456.165 8  87402458.74946  21344565.242                    21344574.555
 115949353.811 7  90350160.30545  22064433.805                    22064443.652
 116512047.105 8  90788624.14845  22171507.773                    22171514.363
 118932945.023 7  92675049.51845  22632184.469                    22632193.352
 107288413.560 8  83601377.694 8  20416307.031                    20416315.016
 124975845.746 6  97383779.292 6  23782110.305                    23782123.227
 126600031.93216  98649381.22353  24091197.719                    24091208.176
 11  8 12 18 25  0.0000000  0  9G24G11G08G13G19G28G07G01G23
 123157595.410 6  95967032.76344  23436114.305                    23436126.270
 115949027.092 7  90349913.62845  22064364.906                    22064373.730
 112100863.797 8  87351347.83646  21332083.563                    21332092.359
 116047863.649 7  90426921.12445  22083179.469                    22083189.402
 116592529.081 7  90851337.34945  22186822.531                    22186829.457
 118898470.722 7  92648186.44545  22625624.367                    22625632.684
 107267401.061 8  83585004.310 8  20412308.297                    20412316.051
 124947681.883 6  97361833.459 7  23776750.563                    23776764.211
 126714848.845 6  98738848.63743  24113047.211                    24113057.180
 11  8 12 18 25 30.0000000  0  9G24G11G08G13G19G28G07G01G23
 123086189.648 6  95911391.99343  23422526.148                    23422538.246
 115898416.185 7  90310476.57145  22054734.016                    22054742.473
 112035429.042 8  87300359.72946  21319631.867                    21319640.660
 116146654.910 7  90503901.22245  22101978.969                    22101988.766
 116673385.772 8  90914342.52445  22202209.344                    22202215.984
 118864131.808 7  92621428.86145  22619090.438                    22619098.574
 107246732.488 8  83568898.928 8  20408375.320                    20408383.168
 124919928.537 6  97340207.493 6  23771469.305                    23771482.297
 126829678.664 7  98828326.13343  24134898.188                    24134908.844
 11  8 12 18 26  0.0000000  0  9G24G11G08G13G19G28G07G01G23
 123014915.561 7  95855853.78743  23408962.766                    23408974.977
 115848213.106 7  90271357.30345  22045180.672                    22045188.770
 111970154.680 7  87249496.60146  21307210.734                    21307219.855
 116245725.152 7  90581098.70745  22120831.344                    22120840.922
 116754615.241 7  90977638.18945  22217666.383                    22217673.547
 118829927.502 7  92594776.16245  22612581.531                    22612589.750
 107226410.253 8  83553063.409 8  20404508.094                    20404516.238
 124892588.029 6  97318903.226 6  23766266.219                    23766279.754
 126944519.074 6  98917811.86843  24156751.328                    24156762.586
 11  8 12 18 26 30.0000000  0  9G24G11G08G13G19G28G07G01G23
 122943776.285 6  95800420.62643  23395425.727                    23395438.176
 115798420.309 8  90232557.73845  22035705.359                    22035713.852
 111905042.418 8  87198759.78946  21294820.523                    21294829.160
 116345071.388 7  90658511.25645  22139737.109                    22139746.078
 116836214.590 7  91041222.06445  22233194.359                    22233201.285
 118795857.100 7  92568227.82245  22606097.898                    22606106.277
 107206436.250 8  83537499.247 8  20400707.375                    20400715.199
 124865662.855 6  97297922.594 6  23761142.805                    23761156.293
 127059367.385 6  99007303.78943  24178607.344                    24178617.645
 11  8 12 18 27  0.0000000  0  9G24G11G08G13G19G28G07G01G23
 122872774.527 6  95745094.63543  23381913.813                    23381926.531
 115749039.818 7  90194079.45645  22026308.578                    22026317.184
 111840094.242 8  87148150.82746  21282460.930                    21282469.652
 116444690.141 7  90736136.15645  22158693.719                    22158703.250
 116918180.832 7  91105091.83145  22248792.352                    22248799.027
 118761919.329 7  92541782.80745  22599639.648                    22599647.805
 107186811.780 8  83522207.449 8  20396972.734                    20396980.832
 124839153.793 6  97277266.199 7  23756098.195                    23756111.340
 127174220.470 7  99096799.39643  24200463.117                    24200473.965
 11  8 12 18 27 30.0000000  0  9G24G11G08G13G19G28G07G01G23
 122801913.703 6  95689878.46644  23368429.742                    23368442.105
 115700074.400 7  90155924.60345  22016990.852                    22016999.293
 111775312.630 8  87097671.66446  21270133.219                    21270141.883
 116544578.817 7  90813971.39245  22177701.477                    22177710.734
 117000511.313 7  91169245.42745  22264459.109                    22264465.652
 118728113.393 7  92515440.53445  22593206.383                    22593215.004
 107167538.907 8  83507189.616 8  20393305.430                    20393313.254
 124813063.592 6  97256936.204 6  23751133.938                    23751146.770
 127289075.998 6  99186296.89643  24222319.617                    24222330.355
 11  8 12 18 28  0.0000000  0  9G24G11G08G13G19G28G07G01G23
 122731196.702 7  95634774.36944  23354972.125                    23354985.559
 115651527.022 7  90118095.49145  22007751.977                    22007760.703
 111710699.760 8  87047323.98446  21257837.984                    21257846.992
 116644734.114 7  90892014.37045  22196760.758                    22196770.234
 117083203.070 7  91233680.53445  22280194.953                    22280201.410
 118694438.528 7  92489200.39445  22586798.484                    22586807.055
 107148619.172 8  83492446.960 7  20389705.227                    20389713.184
 124787393.781 6  97236933.785 7  23746248.711                    23746261.969
 127403930.621 6  99275793.68443  24244175.766                    24244186.938
 11  8 12 18 28 30.0000000  0  9G24G11G08G13G19G28G07G01G23
 122660626.715 7  95579784.83043  23341543.406                    23341556.043
 115603399.994 7  90080593.92945  21998593.500                    21998602.707
 111646257.925 8  86997109.58046  21245575.109                    21245583.648
 116745153.083 7  90970262.80744  22215870.563                    22215879.242
 117166253.129 7  91298394.84345  22295998.828                    22296005.492
 118660893.992 7  92463061.80745  22580415.188                    22580423.316
 107130054.558 8  83477981.024 8  20386172.422                    20386180.281
 124762146.282 6  97217260.426 7  23741444.305                    23741457.172
 127518782.291 6  99365288.20043  24266031.219                    24266042.773
 11  8 12 18 29  0.0000000  0  9G24G11G08G13G19G28G07G01G23
 122590206.663 7  95524912.11043  23328143.016                    23328155.488
 115555695.825 7  90043421.87445  21989516.430                    21989525.082
 111581989.158 8  86947030.03746  21233345.398                    21233353.750
 116845832.607 7  91048714.28045  22235028.742                    22235038.195
 117249659.014 7  91363386.40445  22311870.523                    22311877.641
 118627478.616 7  92437023.86745  22574056.766                    22574064.809
 107111846.575 8  83463792.987 8  20382707.344                    20382715.473
 124737322.613 7  97197917.326 7  23736720.836                    23736733.535
 127633627.627 6  99454777.75343  24287885.695                    24287897.039
 11  8 12 18 29 30.0000000  0  9G24G11G08G13G19G28G07G01G23
 122519939.915 7  95470158.85844  23314771.641                    23314783.855
 115508417.176 7  90006581.39445  21980519.477                    21980527.945
 111517896.116 8  86897087.42146  21221148.438                    21221157.469
 116946769.828 7  91127366.55445  22254236.719                    22254246.348
 117333417.923 7  91428653.06445  22327809.547                    22327816.184
 118594191.590 7  92411085.94545  22567722.227                    22567730.457
 107093997.467 8  83449884.584 8  20379310.688                    20379319.035
 124712925.548 6  97178906.666 7  23732078.391                    23732091.098
 127748464.423 6  99544260.69543  24309738.742                    24309750.219
 11  8 12 18 30  0.0000000  0  9G24G11G08G13G19G28G07G01G23
 122449829.285 7  95415527.25044  23301430.508                    23301442.789
 115461566.540 7  89970074.42445  21971604.484                    21971612.527
 111453980.919 8  86847283.38446  21208985.945                    21208994.449
 117047961.653 7  91206217.22344  22273493.023                    22273502.652
 117417527.276 7  91494192.79345  22343814.945                    22343821.875
 118561032.093 7  92385247.39745  22561412.344                    22561420.504
 107076508.915 8  83436257.133 8  20375982.734                    20375990.902
 124688956.223 7  97160229.295 7  23727516.891                    23727529.754
 127863289.861 6  99633734.71042  24331590.055                    24331601.363
 11  8 12 18 30 30.0000000  0  9G24G11G08G13G19G28G07G01G23
 122379877.782 7  95361019.64044  23288118.617                    23288130.703
 115415146.073 7  89933902.65345  21962770.563                    21962779.566
 111390245.404 8  86797619.34846  21196857.789                    21196866.293
 117149404.870 7  91285263.78145  22292796.797                    22292806.336
 117501983.913 7  91560003.13645  22359886.086                    22359893.180
 118527999.194 7  92359507.50445  22555126.469                    22555134.066
 107059382.187 8  83422911.618 8  20372723.719                    20372731.887
 124665416.559 6  97141886.733 6  23723037.688                    23723050.281
 127978100.662 6  99723197.34742  24353437.633                    24353449.457
 11  8 12 18 31  0.0000000  0 10G24G17G11G08G13G19G28G07G01G23
 122310088.974 7  95306638.81044  23274839.070                    23274850.117
 128233611.91216  99922346.68416  24402052.742                    24402064.992
 115369158.281 7  89898068.03845  21954019.047                    21954027.594
 111326691.786 8  86748097.04746  21184763.711                    21184772.047
 117251096.379 7  91364503.81644  22312148.672                    22312158.145
 117586784.796 7  91626081.71745  22376023.273                    22376030.570
 118495091.899 7  92333865.46745  22548863.992                    22548872.066
 107042619.195 8  83409849.533 8  20369533.883                    20369542.137
 124642308.400 7  97123880.405 7  23718640.328                    23718652.684
 128092894.509 6  99812646.76042  24375282.773                    24375294.289
 11  8 12 18 31 30.0000000  0 10G24G17G11G08G13G19G28G07G01G23
 122240465.486 7  95252386.76844  23261589.977                    23261601.418
 128130212.795 6  99841776.056 6  24382376.008                    24382389.355
 115323605.783 7  89862572.61045  21945351.008                    21945359.402
 111263322.336 8  86698718.26546  21172704.656                    21172713.434
 117353032.949 7  91443934.79644  22331546.258                    22331555.840
 117671927.305 7  91692426.49445  22392225.508                    22392232.125
 118462309.228 7  92308320.56045  22542625.406                    22542634.207
 107026221.675 8  83397072.229 8  20366413.813                    20366421.527
 124619633.421 7  97106211.632 7  23714325.266                    23714337.871
 128207668.257 6  99902080.56742  24397123.383                    24397135.980
 11  8 12 18 32  0.0000000  0 10G24G17G11G08G13G19G28G07G01G23
 122171010.376 7  95198265.95444  23248372.844                    23248384.324
 128026938.777 6  99761302.900 6  24362724.328                    24362736.547
 115278490.750 7  89827418.05845  21936766.047                    21936774.359
 111200139.037 8  86649484.53446  21160681.492                    21160689.863
 117455211.604 7  91523554.42044  22350989.984                    22351000.129
 117757408.598 7  91759035.24545  22408492.258                    22408499.453
 118429650.226 7  92282871.99845  22536410.703                    22536419.531
 107010191.154 8  83384580.911 8  20363363.320                    20363371.188
 124597393.383 7  97088881.748 7  23710092.875                    23710105.934
 128322419.502 6  99991496.78842  24418960.719                    24418971.887
 11  8 12 18 32 30.0000000  0 10G24G17G11G08G13G19G28G07G01G23
 122101727.192 7  95144279.09043  23235188.930                    23235200.477
 127923792.454 6  99680929.250 6  24343095.664                    24343108.855
 115233816.012 8  89792606.60545  21928264.016                    21928272.637
 111137144.668 8  86600398.01546  21148694.039                    21148702.941
 117557629.364 7  91603360.34945  22370479.602                    22370490.000
 117843226.052 7  91825905.95345  22424822.492                    22424829.578
 118397114.058 7  92257519.16045  22530219.023                    22530227.637
 106994529.851 8  83372377.280 8  20360382.570                    20360390.902
 124575589.916 7  97071892.070 7  23705943.484                    23705957.176
 128437145.796 6 100080893.62043  24440792.305                    24440804.059
 11  8 12 18 33  0.0000000  0 10G24G17G11G08G13G19G28G07G01G23
 122032619.293 7  95090428.83143  23222038.000                    23222049.605
 127820776.135 6  99600656.879 6  24323491.289                    24323504.840
 115189584.388 7  89758140.42745  21919847.438                    21919856.184
 111074341.952 8  86551460.84046  21136743.164                    21136751.750
 117660283.609 7  91683350.55144  22390013.984                    22390024.520
 117929377.073 7  91893036.57945  22441216.859                    22441223.926
 118364700.705 7  92232262.02245  22524051.414                    22524059.359
 106979239.634 8  83360462.809 8  20357473.078                    20357481.063
 124554225.283 7  97055244.328 7  23701878.344                    23701891.090
 128551844.830 6 100170269.20543  24462619.063                    24462631.027
 11  8 12 18 33 30.0000000  0  9G24G17G11G08G13G19G28G07G01
 121963689.802 7  95036717.58243  23208920.789                    23208932.602
 127717891.928 6  99520487.446 6  24303913.906                    24303926.563
 115145798.097 7  89724021.27045  21911515.078                    21911523.832
 111011733.243 8  86502674.85046  21124828.930                    21124837.434
 117763171.805 7  91763523.05944  22409592.984                    22409603.125
 118015858.672 7  91960424.80145  22457673.859                    22457680.977
 118332408.949 7  92207099.62045  22517906.469                    22517914.703
 106964322.350 8  83348838.948 8  20354634.594                    20354642.930
 124533301.414 7  97038940.024 7  23697897.422                    23697909.305
 11  8 12 18 34  0.0000000  0  9G24G17G11G08G13G19G28G07G01
 121894941.605 7  94983147.59644  23195838.625                    23195849.969
 127615141.583 6  99440422.289 6  24284361.328                    24284373.688
 115102459.543 7  89690250.99345  21903268.164                    21903276.539
 110949320.613 8  86454041.62946  21112952.234                    21112960.645
 117866289.934 7  91843874.73344  22429216.281                    22429225.984
 118102668.117 7  92028068.49245  22474193.313                    22474200.125
 118300237.460 7  92182030.94245  22511784.016                    22511792.797
 106949779.544 8  83337506.873 8  20351867.289                    20351875.031
 124512819.799 7  97022980.331 7  23693999.773                    23694011.641
 11  8 12 18 34 30.0000000  0  9G24G17G11G08G13G19G28G07G01
 121826377.072 7  94929720.72844  23182790.797                    23182802.926
 127512526.493 6  99360462.569 6  24264834.219                    24264846.785
 115059570.365 7  89656830.88045  21895106.352                    21895115.117
 110887105.534 8  86405562.36246  21101112.898                    21101121.496
 117969634.589 7  91924402.90744  22448881.656                    22448892.230
 118189802.283 7  92095965.20445  22490774.211                    22490781.000
 118268184.997 7  92157055.00745  22505685.070                    22505693.398
 106935612.220 8  83326467.395 8  20349171.172                    20349179.051
 124492781.247 7  97007365.892 7  23690185.836                    23690198.410
 11  8 12 18 35  0.0000000  0  9G24G17G11G08G13G19G28G07G01
 121757999.589 7  94876439.61643  23169779.008                    23169790.430
 127410048.855 7  99280609.950 6  24245333.797                    24245345.871
 115017133.041 7  89623762.86345  21887030.633                    21887039.652
 110825090.574 8  86357239.03146  21089311.922                    21089320.898
 118073202.794 7  92005105.28744  22468590.422                    22468600.324
 118277258.165 7  92164112.59845  22507416.305                    22507422.871
 118236250.849 7  92132171.27645  22499608.203                    22499616.676
 106921822.018 8  83315721.770 8  20346547.352                    20346555.145
 124473187.766 7  96992098.253 7  23686457.531                    23686470.656
 11  8 12 18 35 30.0000000  0  9G24G17G11G08G13G19G28G07G01
 121689812.515 7  94823306.89944  23156803.391                    23156815.082
 127307711.364 6  99200866.543 6  24225859.523                    24225871.801
 114975150.228 7  89591049.00845  21879041.766                    21879050.262
 110763278.173 8  86309073.52446  21077549.680                    21077558.281
 118176991.650 7  92085979.59144  22488340.836                    22488350.855
 118365033.274 7  92232508.74045  22524119.648                    22524126.527
 118204434.343 7  92107379.20745  22493553.391                    22493561.500
 106908411.275 8  83305271.833 8  20343995.273                    20344003.207
 124454041.493 7  96977179.094 7  23682814.102                    23682826.762
 11  8 12 18 36  0.0000000  0 10G24G17G11G08G13G26G19G28G07G01
 121621819.015 7  94770325.00943  23143864.570                    23143876.484
 127205515.596 6  99121233.572 6  24206412.469                    24206424.516
 114933624.260 8  89558691.14245  21871139.539                    21871148.465
 110701670.786 8  86261067.78246  21065825.859                    21065834.422
 118280998.474 7  92167023.74144  22508132.828                    22508143.180
 127413284.50716  99283120.89453  24245941.664                    24245952.602
 118453124.613 7  92301151.29645  22540882.734                    22540889.758
 118172734.979 7  92082678.41745  22487521.688                    22487530.098
 106895381.656 8  83295118.873 8  20341515.555                    20341523.906
 124435343.857 7  96962609.527 7  23679255.984                    23679268.820
 11  8 12 18 36 30.0000000  0 10G24G17G11G08G13G26G19G28G07G01
 121554022.265 7  94717496.40244  23130963.461                    23130975.613
 127103463.548 6  99041712.596 6  24186992.281                    24187004.180
 114892557.419 7  89526691.04345  21863324.625                    21863333.363
 110640270.726 8  86213223.59146  21054142.133                    21054150.355
 118385220.030 7  92248235.20844  22527965.688                    22527975.949
 127324590.064 6  99214008.40643  24229062.664                    24229074.340
 118541529.481 7  92370038.17145  22557705.648                    22557713.133
 118141151.287 8  92058067.77045  22481511.289                    22481519.586
 106882734.660 8  83285264.060 8  20339109.070                    20339117.668
 124417095.890 7  96948390.345 7  23675783.617                    23675796.195
 11  8 12 18 37  0.0000000  0 10G24G17G11G08G13G26G19G28G07G01
 121486425.128 7  94664823.38244  23118100.148                    23118111.422
 127001557.429 6  98962305.345 6  24167600.203                    24167612.016
 114851951.986 7  89495050.47445  21855597.539                    21855606.395
 110579080.170 8  86165542.64446  21042497.992                    21042506.445
 118489652.852 7  92329611.30144  22547838.555                    22547848.910
 127236272.514 6  99145189.60843  24212256.086                    24212267.891
 118630244.942 7  92439167.05345  22574587.742                    22574594.746
 118109682.326 7  92033546.51845  22475522.828                    22475530.875
 106870471.697 8  83275708.495 8  20336775.305                    20336783.320
 124399299.755 7  96934523.257 7  23672396.969                    23672409.703
 11  8 12 18 37 30.0000000  0 10G24G17G11G08G13G26G19G28G07G01
 121419030.852 7  94612308.42944  23105274.852                    23105287.066
 126899799.275 6  98883013.398 6  24148235.766                    24148247.992
 114811810.015 7  89463771.04645  21847959.414                    21847967.813
 110518101.543 8  86118026.84146  21030893.781                    21030902.699
 118594294.097 7  92411149.80944  22567751.711                    22567761.395
 127148334.714 6  99076666.72043  24195522.547                    24195534.109
 118719268.021 7  92508535.64545  22591528.438                    22591535.215
 118078327.381 7  92009114.10945  22469556.070                    22469564.785
 106858594.532 8  83266453.542 8  20334515.086                    20334523.559
 124381956.723 7  96921009.235 7  23669096.648                    23669109.660
 11  8 12 18 38  0.0000000  0 10G24G17G11G08G13G26G19G28G07G01
 121351842.497 7  94559953.92844  23092489.758                    23092501.797
 126798190.874 6  98803838.148 6  24128899.828                    24128912.805
 114772134.053 7  89432854.74145  21840409.172                    21840417.852
 110457337.012 8  86070677.86146  21019330.938                    21019339.852
 118699140.565 7  92492848.22944  22587703.266                    22587713.180
 127060779.221 6  99008441.73743  24178861.555                    24178873.164
 118808596.084 7  92578141.89145  22608526.984                    22608534.098
 118047085.667 7  91984769.92245  22463610.867                    22463619.305
 106847104.836 8  83257500.526 8  20332329.375                    20332337.016
 124365068.656 7  96907849.727 7  23665883.164                    23665895.816
 11  8 12 18 38 30.0000000  0 10G24G17G11G08G13G26G19G28G07G01
 121284863.033 7  94507762.21144  23079743.938                    23079755.871
 126696734.208 6  98724781.137 6  24109593.906                    24109606.223
 114732925.957 7  89402303.00845  21832947.930                    21832956.313
 110396788.750 8  86023497.39846  21007809.023                    21007817.547
 118804189.526 7  92574704.44144  22607693.258                    22607703.418
 126973609.060 6  98940517.00843  24162273.414                    24162284.449
 118898225.888 7  92647983.26145  22625582.891                    22625590.039
 118015956.118 8  91960513.14245  22457687.727                    22457696.199
 106836004.167 8  83248850.638 8  20330216.445                    20330224.543
 124348636.621 7  96895045.571 7  23662756.008                    23662768.973
 11  8 12 18 39  0.0000000  0 10G24G17G11G08G13G26G19G28G07G01
 121218095.509 7  94455735.60844  23067038.188                    23067050.617
 126595431.601 6  98645844.177 6  24090315.875                    24090328.828
 114694188.361 7  89372117.89345  21825576.336                    21825585.023
 110336459.897 8  85976487.90346  20996328.758                    20996337.410
 118909437.585 7  92656715.78244  22627721.648                    22627731.543
 126886827.255 6  98872894.85143  24145759.305                    24145770.293
 118988155.142 7  92718057.96845  22642695.430                    22642702.551
 117984938.076 7  91936343.25345  22451784.625                    22451793.250
 106825294.359 8  83240505.328 8  20328178.758                    20328186.785
 124332662.507 7  96882598.253 7  23659715.898                    23659728.648
 11  8 12 18 39 30.0000000  0 10G24G17G11G08G13G26G19G28G07G01
 121151543.286 7  94403876.79644  23054374.109                    23054386.293
 126494284.995 6  98567028.753 6  24071069.273                    24071080.820
 114655923.454 7  89342301.10145  21818294.750                    21818303.297
 110276352.447 8  85929650.93646  20984890.703                    20984899.168
 119014881.883 7  92738880.02544  22647786.906                    22647797.090
 126800436.116 6  98805577.14343  24129319.539                    24129330.754
 119078381.065 7  92788363.85145  22659865.773                    22659872.145
 117954030.616 7  91912259.53045  22445903.031                    22445910.879
 106814977.206 8  83232465.972 8  20326215.297                    20326223.328
 124317147.630 7  96870508.762 7  23656763.656                    23656776.621
 11  8 12 18 40  0.0000000  0 10G24G17G11G08G13G26G19G28G07G01
 121085209.011 7  94352187.80844  23041750.781                    23041762.957
 126393296.162 6  98488336.278 6  24051851.289                    24051863.227
 114618133.367 7  89312854.30445  21811103.703                    21811112.109
 110216468.301 8  85882987.96446  20973494.898                    20973503.535
 119120519.139 7  92821194.64044  22667889.453                    22667899.422
 126714438.513 6  98738566.09342  24112954.797                    24112965.328
 119168900.395 7  92858898.35545  22677090.750                    22677097.832
 117923232.872 7  91888261.29445  22440042.789                    22440051.023
 106805053.700 8  83224733.365 8  20324326.734                    20324334.797
 124302093.517 7  96858778.301 7  23653899.531                    23653911.855
 11  8 12 18 40 30.0000000  0 10G24G17G11G08G13G26G19G28G07G01
 121019096.135 7  94300671.35344  23029169.555                    23029181.984
 126292467.397 7  98409768.501 6  24032664.656                    24032676.359
 114580820.181 7  89283779.11145  21804003.055                    21804011.309
 110156810.466 8  85836501.34646  20962142.719                    20962151.051
 119226346.365 7  92903657.27044  22688027.656                    22688038.051
 126628837.502 6  98671864.04742  24096664.766                    24096675.559
 119259710.568 7  92929659.50345  22694371.109                    22694378.523
 117892543.753 7  91864347.70045  22434202.781                    22434210.820
 106795525.982 8  83217309.153 8  20322513.711                    20322521.797
 124287501.600 7  96847408.004 7  23651122.563                    23651134.820
 11  8 12 18 41  0.0000000  0 10G24G17G11G08G13G26G19G28G07G01
 120953207.390 7  94249329.51544  23016631.734                    23016643.516
 126191800.422 6  98331326.820 6  24013507.727                    24013519.563
 114543985.658 8  89255076.91345  21796993.945                    21797002.234
 110097380.678 8  85790192.42946  20950833.352                    20950841.629
 119332360.150 7  92986265.26344  22708201.383                    22708211.625
 126543635.442 6  98605472.87542  24080451.797                    24080462.063
 119350808.662 7  93000645.01745  22711706.359                    22711713.793
 117861962.340 7  91840518.04845  22428382.953                    22428391.535
 106786395.156 8  83210194.208 8  20320776.289                    20320784.145
 124273372.960 7  96836398.699 7  23648432.914                    23648446.156
 11  8 12 18 41 30.0000000  0 10G24G17G11G08G13G26G19G28G07G01
 120887546.281 7  94198165.06944  23004136.641                    23004148.613
 126091297.233 6  98253012.760 6  23994382.234                    23994394.441
 114507632.603 7  89226749.87345  21790075.945                    21790084.859
 110038181.697 8  85744063.35246  20939568.031                    20939576.773
 119438557.708 7  93069016.46244  22728409.938                    22728420.492
 126458835.242 6  98539394.83243  24064314.273                    24064325.504
 119442191.835 7  93071852.66245  22729096.102                    22729103.418
 117831488.344 7  91816772.08545  22422584.492                    22422592.586
 106777663.171 8  83203390.050 8  20319114.680                    20319122.984
 124259709.575 7  96825751.938 7  23645833.859                    23645846.004
 11  8 12 18 42  0.0000000  0 10G24G17G11G08G13G26G19G28G07G01
 120822115.556 7  94147180.14544  22991685.750                    22991697.598
 125990959.981 6  98174828.010 6  23975288.328                    23975300.996
 114471762.756 7  89198799.38045  21783250.266                    21783258.859
 109979215.855 8  85698115.95246  20928347.219                    20928356.289
 119544936.206 7  93151908.64644  22748653.719                    22748663.797
 126374439.688 6  98473632.14743  24048254.102                    24048266.254
 119533857.142 7  93143280.15345  22746539.344                    22746546.152
 117801120.408 7  91793108.77445  22416805.602                    22416813.758
 106769331.515 8  83196897.835 8  20317529.602                    20317537.336
 124246512.629 7  96815468.618 7  23643322.570                    23643334.934
 11  8 12 18 42 30.0000000  0 10G24G17G11G08G13G26G19G28G07G01
 120756918.474 7  94096377.27844  22979278.758                    22979290.801
 125890790.522 6  98096774.013 6  23956227.141                    23956239.012
 114436378.567 7  89171227.30445  21776516.992                    21776525.172
 109920485.807 8  85652352.28546  20917171.461                    20917180.137
 119651492.377 7  93234939.27544  22768930.883                    22768940.715
 126290451.583 6  98408186.97943  24032271.320                    24032283.574
 119625801.898 7  93214925.40345  22764036.313                    22764043.207
 117770857.874 7  91769527.60945  22411046.836                    22411054.914
 106761401.779 8  83190718.805 8  20316020.453                    20316028.418
 124233783.607 7  96805549.890 7  23640900.180                    23640912.578
 11  8 12 18 43  0.0000000  0 10G24G17G11G08G13G26G19G28G07G01
 120691958.056 7  94045758.82544  22966917.750                    22966929.414
 125790790.744 6  98018852.223 6  23937197.094                    23937209.801
 114401481.662 7  89144034.93645  21769875.797                    21769884.613
 109861993.642 8  85606773.97946  20906040.984                    20906049.832
 119758222.820 7  93318105.71144  22789241.297                    22789251.105
 126206873.675 6  98343061.40443  24016367.758                    24016379.180
 119718023.166 7  93286786.10745  22781585.508                    22781592.398
 117740699.630 7  91746027.67945  22405307.523                    22405315.906
 106753875.448 8  83184854.120 8  20314588.016                    20314596.176
 124221523.540 7  96795996.599 7  23638566.578                    23638579.652
 11  8 12 18 43 30.0000000  0 10G24G17G11G08G13G26G19G28G07G01
 120627237.457 6  93995327.23944  22954601.031                    22954613.297
 125690962.832 6  97941064.396 6  23918200.492                    23918213.012
 114367074.347 7  89117224.06845  21763328.352                    21763337.086
 109803741.907 8  85561383.01146  20894955.820                    20894964.688
 119865124.990 7  93401405.93744  22809583.961                    22809594.137
 126123708.539 6  98278257.50343  24000542.477                    24000553.879
 119810518.255 7  93358860.17045  22799186.547                    22799193.625
 117710644.903 7  91722608.42345  22399588.398                    22399597.145
 106746754.345 8  83179305.200 8  20313233.070                    20313241.039
 124209734.002 7  96786809.955 7  23636323.547                    23636336.457
 11  8 12 18 44  0.0000000  0 10G24G17G11G08G13G26G19G28G07G01
 120562759.714 7  93945084.88144  22942332.125                    22942343.488
 125591308.545 6  97863411.834 6  23899236.859                    23899249.262
 114333158.521 7  89090796.17245  21756874.727                    21756883.160
 109745732.503 8  85516180.88246  20883916.734                    20883925.480
 119972195.308 7  93484837.19744  22829958.891                    22829969.332
 126040958.742 6  98213777.19243  23984795.148                    23984806.672
 119903283.855 7  93431145.02245  22816839.180                    22816846.410
 117680692.806 7  91699269.14845  22393888.625                    22393896.906
 106740039.450 8  83174072.792 8  20311955.102                    20311963.059
 124198416.157 7  96777990.857 7  23634169.438                    23634182.598
 11  8 12 18 44 30.0000000  0 10G24G17G11G08G13G26G19G28G07G01
 120498527.825 7  93895034.12544  22930108.742                    22930120.707
 125491829.985 6  97785896.211 6  23880306.172                    23880318.789
 114299736.517 7  89064753.08645  21750514.422                    21750522.828
 109687968.476 8  85471169.95446  20872924.891                    20872933.535
 120079430.979 7  93568397.30644  22850365.242                    22850375.383
 125958626.912 7  98149622.60244  23969128.070                    23969139.641
 119996317.959 7  93503639.08945  22834543.211                    22834550.563
 117650842.904 7  91676009.48845  22388208.328                    22388216.523
 106733732.817 8  83169158.519 8  20310755.234                    20310763.234
 124187571.519 7  96769540.510 7  23632106.250                    23632119.141
 11  8 12 18 45  0.0000000  0 10G24G17G11G08G13G26G19G28G07G01
 120434544.950 6  93845177.39844  22917933.375                    22917944.934
 125392529.162 6  97708519.052 6  23861410.281                    23861422.484
 114266810.154 7  89039096.20045  21744248.844                    21744257.387
 109630452.127 8  85426352.01846  20861979.922                    20861988.457
 120186829.016 7  93652083.94244  22870802.109                    22870812.773
 125876716.007 6  98085796.01044  23953540.719                    23953551.848
 120089617.425 7  93576339.92745  22852297.102                    22852304.961
 117621093.985 7  91652828.53345  22382547.703                    22382555.859
 106727835.938 8  83164563.533 8  20309632.773                    20309640.820
 124177201.158 6  96761459.730 7  23630132.656                    23630145.484
 11  8 12 18 45 30.0000000  0 10G24G17G11G08G13G26G19G28G07G01
 120370813.899 7  93795516.90344  22905805.594                    22905817.453
 125293407.951 7  97631281.879 6  23842548.227                    23842560.199
 114234381.214 7  89013826.92845  21738077.984                    21738086.379
 109573185.568 8  85381728.72446  20851082.484                    20851091.008
 120294386.050 7  93735894.43744  22891270.000                    22891280.520
 125795228.424 7  98022299.26143  23938034.461                    23938044.910
 120183179.259 7  93649245.21245  22870101.563                    22870108.863
 117591444.858 7  91629725.32945  22376905.477                    22376913.469
 106722349.823 8  83160288.628 8  20308588.945                    20308596.914
 124167306.494 7  96753749.613 7  23628250.039                    23628262.449
 11  8 12 18 46  0.0000000  0 10G24G17G11G08G13G26G19G28G07G01
 120307338.043 7  93746055.25344  22893726.313                    22893737.863
 125194468.118 7  97554186.012 6  23823720.563                    23823732.453
 114202451.958 7  88988947.02345  21732001.891                    21732010.277
 109516171.657 8  85337302.30246  20840232.641                    20840241.164
 120402099.173 7  93819826.57644  22911767.008                    22911777.852
 125714167.032 7  97959134.61444  23922608.617                    23922619.691
 120277000.685 7  93722352.76745  22887955.469                    22887962.758
 117561895.206 7  91606699.62745  22371282.234                    22371290.633
 106717276.376 8  83156335.280 8  20307623.461                    20307631.680
 124157888.701 7  96746411.086 7  23626457.734                    23626470.609
 11  8 12 18 46 30.0000000  0 10G24G17G11G08G13G26G19G28G07G01
 120244120.382 7  93696794.81444  22881696.141                    22881707.645
 125095711.777 7  97477233.123 6  23804927.734                    23804939.289
 114171024.331 7  88964457.98345  21726021.086                    21726029.516
 109459412.921 8  85293074.71746  20829431.914                    20829440.805
 120509965.520 7  93903878.11444  22932293.734                    22932303.945
 125633534.493 7  97896304.12343  23907264.227                    23907276.035
 120371078.821 7  93795660.36945  22905857.719                    22905865.125
 117532444.080 7  91583750.71245  22365678.055                    22365685.828
 106712617.026 8  83152704.603 8  20306737.000                    20306744.777
 124148949.061 7  96739445.173 7  23624756.258                    23624769.152
 11  8 12 18 47  0.0000000  0 10G24G17G11G08G13G26G19G28G07G01
 120181163.541 7  93647737.59244  22869716.117                    22869727.914
 124997140.631 7  97400424.544 6  23786170.461                    23786181.535
 114140099.940 7  88940361.08445  21720136.602                    21720145.414
 109402910.986 8  85249047.25046  20818680.039                    20818688.629
 120617981.519 7  93988046.24944  22952848.297                    22952859.055
 125553333.088 7  97833809.58343  23892003.242                    23892014.340
 120465411.008 7  93869165.90045  22923808.352                    22923816.172
 117503090.489 7  91560877.79645  22360091.836                    22360100.102
 106708372.831 8  83149397.419 8  20305929.250                    20305937.348
 124140488.245 6  96732852.340 7  23623146.836                    23623159.336
 11  8 12 18 47 30.0000000  0 10G24G17G11G08G13G26G19G28G07G01
 120118471.024 7  93598886.33044  22857786.508                    22857797.707
 124898756.805 7  97323761.915 6  23767448.250                    23767460.027
 114109680.910 7  88916657.96345  21714347.578                    21714356.449
 109346668.961 8  85205222.28846  20807977.992                    20807986.551
 120726144.788 7  94072329.13544  22973431.156                    22973442.316
 125473565.721 6  97771653.23543  23876823.055                    23876834.605
 120559994.442 7  93942867.21845  22941807.617                    22941814.637
 117473833.567 7  91538080.20445  22354524.836                    22354532.598
 106704545.776 8  83146415.288 8  20305200.984                    20305208.918
 124132508.179 7  96726634.136 7  23621628.195                    23621640.797
 11  8 12 18 48  0.0000000  0 10G24G17G11G08G13G26G19G28G07G01
 120056045.676 7  93550243.25444  22845906.805                    22845918.313
 124800562.349 7  97247246.843 6  23748762.758                    23748774.527
 114079769.204 8  88893350.16045  21708656.055                    21708664.438
 109290689.199 8  85161601.70846  20797325.148                    20797333.988
 120834451.675 7  94156723.92244  22994041.563                    22994052.852
 125394234.893 6  97709837.02943  23861727.531                    23861738.668
 120654826.184 7  94016762.03245  22959853.617                    22959860.734
 117444672.525 7  91515357.33245  22348975.344                    22348983.578
 106701137.120 8  83143759.176 8  20304552.422                    20304560.375
 124125009.635 7  96720791.151 7  23620201.141                    23620213.551
 11  8 12 18 48 30.0000000  0 10G24G17G11G08G13G26G19G28G07G01
 119993890.443 7  93501810.66244  22834078.727                    22834090.410
 124702558.841 7  97170880.603 6  23730112.617                    23730125.238
 114050366.283 7  88870438.81645  21703060.938                    21703069.156
 109234973.667 8  85118187.01746  20786722.742                    20786731.172
 120942899.448 7  94241228.50944  23014678.625                    23014689.875
 125315343.086 6  97648362.94043  23846714.695                    23846725.633
 120749903.349 7  94090848.08045  22977946.469                    22977953.520
 117415606.620 7  91492708.59645  22343444.547                    22343452.262
 106698148.139 8  83141430.078 8  20303983.641                    20303991.875
 124117993.510 7  96715324.067 7  23618865.797                    23618878.629
 11  8 12 18 49  0.0000000  0 10G24G17G11G08G13G26G19G28G07G01
 119932008.663 7  93453591.13444  22822303.547                    22822314.891
 124604748.385 7  97094664.762 6  23711499.781                    23711511.910
 114021474.335 8  88847925.62145  21697562.883                    21697571.063
 109179525.402 8  85074980.57646  20776171.266                    20776179.574
 121051484.595 7  94325840.13344  23035341.992                    23035353.242
 125236893.146 6  97587233.19342  23831785.367                    23831796.691
 120845223.182 7  94165123.23045  22996084.836                    22996092.117
 117386634.946 7  91470133.25645  22337931.578                    22337939.215
 106695580.355 7  83139429.191 8  20303494.820                    20303502.992
 124111461.009 6  96710233.838 7  23617622.328                    23617635.508
 11  8 12 18 49 30.0000000  0 10G24G17G11G08G13G26G19G28G07G01
 119870403.204 7  93405586.95244  22810579.766                    22810591.566
 124507132.833 6  97018600.794 6  23692924.164                    23692935.910
 113993095.063 7  88825811.92745  21692162.570                    21692171.180
 109124346.376 8  85031983.93446  20765671.070                    20765679.484
 121160204.346 7  94410556.62444  23056030.586                    23056041.926
 125158887.421 6  97526449.61742  23816941.500                    23816952.168
 120940782.963 7  94239585.34945  23014269.039                    23014276.949
 117357756.555 7  91447630.62145  22332436.188                    22332444.324
 106693435.263 8  83137757.678 8  20303086.852                    20303094.961
 124105413.542 7  96705521.553 7  23616471.781                    23616484.688
 11  8 12 18 50  0.0000000  0 10G24G17G11G08G13G26G19G28G07G01
 119809076.606 7  93357800.03344  22798910.164                    22798921.430
 124409713.954 6  96942690.102 6  23674386.094                    23674398.156
 113965230.229 7  88804099.07945  21686859.844                    21686867.793
 109069439.074 8  84989199.03146  20755222.492                    20755231.324
 121269055.412 7  94495375.45344  23076744.695                    23076755.910
 125081328.348 6  97466014.04443  23802182.531                    23802193.598
 121036579.838 7  94314232.22044  23032498.789                    23032506.023
 117328970.560 7  91425199.98945  22326958.375                    22326966.316
 106691713.766 8  83136416.233 8  20302759.438                    20302767.395
 124099851.714 7  96701187.691 7  23615413.953                    23615426.008
 11  8 12 18 50 30.0000000  0 10G24G17G11G08G13G26G19G28G07G01
 119748032.485 7  93310233.24744  22787293.641                    22787305.063
 124312493.673 7  96866934.174 6  23655885.500                    23655897.898
 113937881.904 7  88782788.72345  21681655.578                    21681664.168
 109014806.389 8  84946628.11146  20744826.445                    20744834.891
 121378035.072 7  94580294.50344  23097482.680                    23097493.809
 125004218.831 6  97405928.73543  23787508.875                    23787520.324
 121132611.058 7  94389061.70644  23050772.836                    23050780.438
 117300276.790 7  91402841.20545  22321497.836                    22321506.113
 106690417.969 8  83135406.503 8  20302512.641                    20302520.539
 124094777.125 6  96697233.490 7  23614447.984                    23614460.957
 11  8 12 18 51  0.0000000  0 10G24G17G11G08G13G26G19G28G07G01
 119687273.638 7  93262888.75044  22775731.578                    22775743.418
 124215473.893 7  96791334.477 6  23637423.227                    23637435.363
 113911051.251 7  88761881.73445  21676549.938                    21676558.555
 108960450.112 8  84904272.57346  20734482.742                    20734491.398
 121487140.069 7  94665311.18644  23118244.969                    23118256.633
 124927561.254 6  97346195.61743  23772922.289                    23772932.992
 121228873.613 7  94464071.43945  23069091.359                    23069098.293
 117271673.784 7  91380553.15745  22316055.180                    22316063.031
 106689548.813 8  83134729.220 8  20302347.250                    20302355.355
 124090190.429 7  96693659.474 7  23613574.547                    23613587.289
 11  8 12 18 51 30.0000000  0 10G24G17G11G08G13G26G19G28G07G01
 119626803.009 7  93215768.84644  22764224.719                    22764236.117
 124118656.589 7  96715892.533 6  23618999.633                    23619011.281
 113884740.521 7  88741379.88345  21671543.266                    21671551.375
 108906372.938 8  84862134.52046  20724191.992                    20724200.539
 121596367.444 7  94750423.22744  23139030.078                    23139041.672
 124851357.774 6  97286816.31743  23758420.438                    23758431.609
 121325365.057 7  94539259.54544  23087453.039                    23087459.945
 117243160.761 7  91358335.21545  22310628.813                    22310637.570
 106689107.810 8  83134385.563 8  20302263.141                    20302271.227
 124086092.541 7  96690466.336 7  23612795.242                    23612807.711
 11  8 12 18 52  0.0000000  0 10G24G17G11G08G13G26G19G28G07G01
 119566623.744 7  93168875.96244  22752772.500                    22752784.152
 124022043.461 7  96640609.685 7  23600614.289                    23600626.227
 113858951.571 7  88721284.61445  21666635.617                    21666644.113
 108852577.647 8  84820216.11146  20713955.000                    20713963.965
 121705714.174 7  94835628.28943  23159838.742                    23159849.445
 124775611.432 7  97227793.20643  23744006.711                    23744018.352
 121422082.403 7  94614623.66345  23105858.016                    23105864.664
 117214737.129 7  91336186.93745  22305220.070                    22305228.145
 106689096.485 8  83134376.720 8  20302261.406                    20302269.820
 124082484.699 7  96687655.068 7  23612108.805                    23612120.559
 11  8 12 18 52 30.0000000  0 10G24G17G11G08G13G26G19G28G07G01
 119506738.716 7  93122212.36944  22741376.781                    22741388.281
 123925636.541 7  96565487.537 6  23582269.289                    23582280.660
 113833685.812 7  88701597.03045  21661827.586                    21661836.316
 108799066.657 8  84778519.24746  20703772.234                    20703781.051
 121815177.552 7  94920924.24243  23180668.883                    23180680.000
 124700324.600 7  97169128.19043  23729680.305                    23729691.742
 121519022.762 7  94690161.57145  23124304.680                    23124312.207
 117186401.847 8  91314107.50945  22299828.180                    22299836.664
 106689516.015 8  83134703.600 8  20302341.102                    20302349.344
 124079367.801 6  96685226.341 7  23611515.398                    23611528.543
 11  8 12 18 53  0.0000000  0 10G24G17G11G08G13G26G19G28G07G01
 119447150.770 7  93075780.25944  22730037.609                    22730049.324
 123829437.179 7  96490527.096 6  23563962.719                    23563973.992
 113808944.531 7  88682318.13145  21657119.703                    21657128.305
 108745842.324 8  84737045.75146  20693643.969                    20693652.465
 121924754.094 7  95006308.36844  23201520.875                    23201532.008
 124625499.562 7  97110823.01243  23715442.023                    23715452.371
 121616183.264 7  94765870.99744  23142793.805                    23142800.621
 117158153.882 7  91292096.11545  22294452.781                    22294460.988
 106690367.257 8  83135366.889 8  20302502.867                    20302511.320
 124076742.682 6  96683180.816 7  23611016.398                    23611028.398
 11  8 12 18 53 30.0000000  0 10G24G17G11G08G13G26G19G28G07G01
 119387863.035 7  93029582.09144  22718755.313                    22718766.914
 123733447.678 7  96415730.183 6  23545696.219                    23545707.996
 113784730.110 8  88663449.78445  21652511.266                    21652520.258
 108692907.132 8  84695797.56246  20683570.836                    20683579.273
 122034440.589 7  95091778.16344  23222392.906                    23222404.902
 124551138.722 7  97052879.55144  23701291.359                    23701302.176
 121713561.321 7  94841749.94744  23161324.469                    23161331.371
 117129993.052 8  91270152.61245  22289093.625                    22289102.152
 106691651.755 8  83136367.773 8  20302747.500                    20302755.840
 124074609.899 7  96681518.909 7  23610609.922                    23610622.492
 11  8 12 18 54  0.0000000  0 10G24G17G11G08G13G26G19G28G07G01
 119328878.605 7  92983620.25844  22707531.313                    22707542.508
 123637670.065 7  96341098.377 6  23527470.305                    23527482.105
 113761043.697 7  88644992.86145  21648004.430                    21648012.723
 108640263.683 8  84654776.70146  20673553.234                    20673561.555
 122144234.199 7  95177331.44743  23243286.461                    23243297.676
 124477244.767 7  96995299.91944  23687229.352                    23687241.137
 121811154.579 7  94917796.59844  23179895.781                    23179903.070
 117101918.399 7  91248276.27445  22283751.906                    22283759.867
 106693371.435 8  83137707.765 8  20303074.969                    20303083.281
 124072971.055 7  96680241.884 7  23610298.227                    23610310.703
 11  8 12 18 54 30.0000000  0 10G24G17G11G08G13G26G19G28G07G01
 119270200.223 7  92937896.90144  22696364.734                    22696376.172
 123542106.002 7  96266632.957 6  23509285.023                    23509296.246
 113737886.986 8  88626948.70145  21643597.617                    21643606.023
 108587914.164 8  84613984.87346  20663591.422                    20663600.211
 122254132.042 7  95262965.93744  23264199.891                    23264210.836
 124403820.079 7  96938085.92744  23673256.773                    23673268.305
 121908959.902 7  94994008.48844  23198507.648                    23198514.527
 117073929.154 7  91226466.47945  22278425.484                    22278433.652
 106695527.439 8  83139387.744 8  20303484.938                    20303492.715
 124071826.690 6  96679350.181 7  23610080.555                    23610092.707
 11  8 12 18 55  0.0000000  0 10G24G17G11G08G13G26G19G28G07G01
 119211830.848 7  92892414.33944  22685257.633                    22685268.793
 123446757.103 7  96192335.203 6  23491140.383                    23491151.699
 113715261.577 8  88609318.53845  21639292.063                    21639301.063
 108535861.046 8  84573424.01246  20653685.914                    20653694.543
 122364130.888 7  95348679.12444  23285131.961                    23285143.551
 124330866.880 7  96881239.29844  23659374.461                    23659385.109
 122006974.447 7  95070383.40744  23217159.336                    23217166.313
 117046024.211 7  91204722.38545  22273115.500                    22273123.586
 106698120.594 8  83141408.363 8  20303978.742                    20303986.406
 124071177.778 6  96678844.529 7  23609956.977                    23609969.301
 11  8 12 18 55 30.0000000  0 10G24G17G11G08G13G26G19G28G07G01
 119153773.388 7  92847174.82144  22674209.688                    22674220.891
 123351625.164 7  96118206.520 6  23473037.820                    23473049.184
 113693169.238 8  88592103.74445  21635088.055                    21635096.492
 108484106.816 8  84533096.04646  20643837.492                    20643845.898
 122474227.459 7  95434468.46744  23306082.906                    23306094.492
 124258387.595 6  96824762.01144  23645582.008                    23645593.141
 122105195.454 7  95146919.21644  23235849.750                    23235857.297
 117018202.887 7  91183043.43845  22267821.000                    22267829.367
 106701152.000 8  83143770.468 8  20304555.398                    20304563.508
 124071024.959 7  96678725.439 7  23609927.805                    23609940.395
 11  8 12 18 56  0.0000000  0 10G24G17G11G08G13G26G19G28G07G01
 119096030.882 7  92802180.72044  22663221.766                    22663232.965
 123256712.507 7  96044248.685 6  23454976.586                    23454987.707
 113671611.365 8  88575305.42145  21630985.961                    21630994.086
 108432654.081 8  84493003.01146  20634046.320                    20634054.930
 122584419.004 7  95520331.79244  23327051.461                    23327063.086
 124186384.571 6  96768655.78844  23631880.500                    23631891.363
 122203620.443 7  95223613.97544  23254579.906                    23254587.262
 116990464.633 7  91161429.23745  22262542.219                    22262550.453
 106704623.324 8  83146475.374 8  20305216.047                    20305223.844
 124071369.001 6  96678993.525 7  23609993.313                    23610005.961
 11  8 12 18 56 30.0000000  0 10G24G17G11G08G13G26G19G28G07G01
 119038605.933 7  92757434.07444  22652293.727                    22652305.160
 123162020.297 7  95970462.637 6  23436956.539                    23436968.363
 113650589.129 8  88558924.47845  21626985.406                    21626993.859
 108381504.861 8  84453146.47946  20624312.727                    20624321.445
 122694702.623 7  95606266.86344  23348038.859                    23348050.055
 124114860.205 6  96712922.54943  23618269.727                    23618281.164
 122302246.133 7  95300465.08944  23273347.781                    23273355.008
 116962808.545 7  91139879.04745  22257279.539                    22257288.082
 106708535.328 8  83149523.668 8  20305960.461                    20305968.301
 124072210.409 6  96679649.155 6  23610153.352                    23610165.781
 11  8 12 18 57  0.0000000  0 10G24G17G11G08G13G26G19G28G07G01
 118981501.672 7  92712937.30044  22641427.320                    22641438.168
 123067550.308 7  95896849.743 6  23418979.164                    23418991.270
 113630104.255 8  88542962.25545  21623087.289                    21623095.504
 108330661.835 8  84413528.54346  20614637.953                    20614647.184
 122805075.224 7  95692271.29644  23369041.320                    23369053.523
 124043816.879 6  96657564.18943  23604750.297                    23604761.992
 122401069.951 7  95377470.60344  23292152.703                    23292160.336
 116935233.436 7  91118391.96045  22252032.406                    22252040.469
 106712889.344 8  83152916.387 8  20306788.945                    20306796.992
 124073550.550 6  96680693.398 7  23610408.063                    23610420.719
 11  8 12 18 57 30.0000000  0 10G24G17G11G08G13G26G19G28G07G01
 118924721.393 7  92668692.99944  22630622.680                    22630633.617
 122973305.048 7  95823411.973 6  23401045.859                    23401056.789
 113610158.449 8  88527420.09145  21619292.094                    21619300.121
 108280128.086 8  84374151.60346  20605021.352                    20605030.422
 122915534.068 7  95778342.91143  23390061.141                    23390073.141
 123973257.241 6  96602582.69043  23591323.023                    23591334.504
 122500089.315 7  95454628.51944  23310995.695                    23311003.105
 116907739.224 7  91096967.90445  22246800.445                    22246808.480
 106717687.297 8  83156655.029 8  20307702.273                    20307709.945
 124075390.333 7  96682126.975 7  23610758.625                    23610770.832
 11  8 12 18 58  0.0000000  0 10G24G17G11G08G13G26G19G28G07G01
 118868267.508 7  92624703.02244  22619879.039                    22619890.195
 122879285.571 7  95750150.097 6  23383153.977                    23383165.430
 113590752.858 7  88512298.86845  21615599.156                    21615607.715
 108229905.397 8  84335017.04946  20595464.297                    20595473.391
 123026075.547 7  95864478.92144  23411096.688                    23411108.223
 123903183.154 6  96547979.56243  23577988.797                    23578000.129
 122599301.608 7  95531936.74844  23329875.813                    23329882.867
 116880324.638 8  91075605.89945  22241583.484                    22241591.645
 106722929.668 8  83160739.975 8  20308699.859                    20308708.137
 124077729.604 7  96683949.774 7  23611203.680                    23611216.902
 11  8 12 18 58 30.0000000  0 10G24G17G11G08G13G26G19G28G07G01
 118812142.921 7  92580969.63544  22609199.211                    22609210.512
 122785494.038 7  95677065.854 6  23365306.328                    23365317.590
 113571888.843 8  88497599.65845  21612008.984                    21612017.641
 108179996.525 8  84296127.01746  20585967.172                    20585976.082
 123136697.217 7  95950677.41543  23432147.516                    23432159.719
 123833597.188 7  96493756.76743  23564746.703                    23564757.949
 122698703.823 7  95609392.96944  23348790.883                    23348798.320
 116852988.881 7  91054305.32545  22236381.406                    22236390.066
 106728617.746 8  83165172.225 8  20309782.492                    20309790.184
 124080569.561 6  96686162.728 7  23611744.219                    23611756.727
 11  8 12 18 59  0.0000000  0 10G24G17G11G08G13G26G19G28G07G01
 118756350.739 7  92537495.27144  22598582.070                    22598593.430
 122691932.228 7  95604160.635 6  23347501.625                    23347513.188
 113553568.192 8  88483323.84245  21608522.867                    21608531.277
 108130404.222 8  84257483.66146  20576529.820                    20576538.727
 123247395.643 7  96036935.70543  23453212.938                    23453224.938
 123764501.676 7  96439916.15243  23551598.563                    23551609.594
 122798293.597 7  95686995.35544  23367742.125                    23367749.227
 116825731.534 7  91033065.84445  22231194.875                    22231203.016
 106734752.896 8  83169952.835 8  20310949.914                    20310957.902
 124083911.121 6  96688766.528 7  23612380.281                    23612392.695
 11  8 12 18 59 30.0000000  0 10G24G17G11G08G13G26G19G28G07G01
 118700893.791 7  92494282.14844  22588028.938                    22588040.434
 122598601.853 7  95531435.739 6  23329741.750                    23329752.402
 113535792.141 8  88469472.39845  21605140.164                    21605148.973
 108081130.724 8  84219088.73246  20567153.563                    20567162.293
 123358168.087 7  96123251.68443  23474292.289                    23474304.613
 123695898.829 7  96386459.43243  23538543.914                    23538554.355
 122898067.784 7  95764741.41844  23386728.922                    23386736.180
 116798551.734 7  91011886.78945  22226022.484                    22226030.781
 106741336.089 8  83175082.574 8  20312202.602                    20312210.656
 124087754.729 6  96691761.527 7  23613111.500                    23613124.000
 11  8 12 19  0  0.0000000  0 10G24G17G11G08G13G26G19G28G07G01
 118645774.639 7  92451332.20744  22577540.414                    22577551.246
 122505504.483 7  95458892.391 6  23312026.031                    23312037.039
 113518561.830 8  88456046.19345  21601861.313                    21601869.891
 108032178.010 8  84180943.75846  20557838.672                    20557846.719
 123469011.348 7  96209622.83843  23495385.406                    23495397.301
 123627790.623 7  96333388.12843  23525583.172                    23525593.750
 122998023.578 6  95842629.02544  23405749.438                    23405756.836
 116771448.376 7  90990767.30045  22220865.148                    22220872.938
 106748368.148 8  83180562.078 8  20313540.781                    20313549.145
 124092100.564 6  96695147.867 7  23613938.648                    23613951.016
 11  8 12 19  0 30.0000000  0 10G24G17G11G08G13G26G19G28G07G01
 118590996.425 7  92408647.93944  22567115.953                    22567127.188
 122412641.857 7  95386531.975 7  23294354.852                    23294366.105
 113501878.511 8  88443046.21745  21598686.836                    21598695.016
 107983549.060 8  84143051.07246  20548584.281                    20548593.336
 123579922.573 7  96296046.95243  23516491.148                    23516503.063
 123560179.477 7  96280704.16143  23512717.219                    23512727.762
 123098158.514 6  95920656.17244  23424804.570                    23424812.406
 116744421.081 8  90969707.07445  22215721.617                    22215729.957
 106755850.452 8  83186392.423 8  20314964.539                    20314972.453
 124096949.674 6  96698926.375 7  23614861.297                    23614873.684
 11  8 12 19  1  0.0000000  0 10G24G17G11G08G13G26G19G28G07G01
 118536561.980 7  92366231.54144  22556757.406                    22556768.750
 122320015.860 7  95314355.951 6  23276728.422                    23276739.520
 113485743.948 7  88430473.84845  21595616.563                    21595624.977
 107935246.648 8  84105412.82746  20539392.703                    20539401.262
 123690898.650 7  96382521.61743  23537609.773                    23537621.109
 123493067.759 7  96228409.34043  23499946.609                    23499956.570
 123198470.208 6  95998821.09444  23443893.773                    23443901.102
 116717469.247 7  90948705.64845  22210593.328                    22210601.262
 106763784.321 8  83192574.641 8  20316474.273                    20316482.254
 124102302.630 7  96703097.497 7  23615879.773                    23615892.539
 11  8 12 19  1 30.0000000  0 10G24G17G11G08G13G26G19G28G07G01
 118482474.485 7  92324085.49844  22546465.070                    22546476.027
 122227628.460 7  95242365.850 6  23259147.008                    23259158.762
 113470159.492 8  88418330.12345  21592650.844                    21592659.445
 107887273.417 8  84068031.09746  20530263.922                    20530272.680
 123801937.100 7  96469044.88543  23558739.414                    23558751.055
 123426457.926 7  96176505.57843  23487271.172                    23487281.098
 123298955.450 6  96077121.23944  23463015.359                    23463023.230
 116690592.132 8  90927762.45645  22205478.477                    22205486.223
 106772171.170 8  83199109.820 8  20318070.289                    20318078.484
 124108160.361 6  96707661.937 7  23616994.430                    23617007.246
 11  8 12 19  2  0.0000000  0 10G24G17G11G08G13G26G19G28G07G01
 118428736.061 7  92282211.46244  22536238.508                    22536249.977
 122135481.096 7  95170562.791 6  23241611.531                    23241623.453
 113455125.683 7  88406615.48345  21589789.695                    21589798.402
 107839630.920 8  84030907.07246  20521197.695                    20521206.336
 123913034.354 7  96555613.96143  23579880.875                    23579892.973
 123360351.572 7  96124994.15143  23474691.391                    23474702.223
 123399611.920 7  96155554.82144  23482169.625                    23482177.305
 116663788.550 8  90906876.55045  22200377.875                    22200386.086
 106781011.375 8  83205998.274 8  20319752.297                    20319760.707
 124114522.481 6  96712619.436 7  23618205.406                    23618217.457
 11  8 12 19  2 30.0000000  0 10G24G17G11G08G13G26G19G28G07G01
 118375349.760 7  92240611.79344  22526079.664                    22526091.078
 122043575.570 7  95098948.173 6  23224122.711                    23224134.203
 113440644.222 8  88395331.24445  21587034.273                    21587042.434
 107792321.743 8  83994042.78746  20512195.258                    20512203.762
 124024187.439 7  96642226.58643  23601032.836                    23601044.953
 123294751.076 7  96073876.91043  23462207.898                    23462218.566
 123500436.843 6  96234119.65544  23501355.727                    23501363.492
 116637057.899 8  90886047.47645  22195291.414                    22195299.203
 106790306.224 8  83213240.986 8  20321521.273                    20321529.555
 124121390.085 7  96717970.803 7  23619512.180                    23619524.492
 11  8 12 19  3  0.0000000  0 10G24G17G11G08G13G26G19G28G07G01
 118322318.238 7  92199288.58844  22515988.359                    22515999.266
 121951913.222 7  95027523.054 6  23206680.602                    23206691.566
 113426716.060 7  88384478.14645  21584383.656                    21584392.191
 107745348.231 8  83957440.05246  20503256.461                    20503264.945
 124135393.567 7  96728880.49043  23622194.797                    23622206.961
 123229658.464 7  96023155.41943  23449821.305                    23449831.738
 123601427.409 6  96312813.56644  23520573.641                    23520581.105
 116610399.477 8  90865274.68145  22190218.422                    22190226.523
 106800056.483 8  83220838.572 8  20323376.367                    20323384.750
 124128763.423 6  96723716.261 7  23620915.023                    23620927.977
 11  8 12 19  3 30.0000000  0 10G24G17G11G08G13G26G19G28G07G01
 118269644.643 7  92158244.31344  22505964.914                    22505975.852
 121860495.815 7  94956288.790 6  23189283.656                    23189294.773
 113413342.617 8  88374057.29945  21581838.531                    21581847.059
 107698713.241 8  83921101.10646  20494381.930                    20494390.746
 124246649.791 7  96815573.43743  23643366.688                    23643378.699
 123165075.844 7  95972831.33843  23437531.875                    23437542.113
 123702580.814 6  96391634.34244  23539822.477                    23539830.324
 116583812.803 8  90844557.80645  22185159.242                    22185167.293
 106810263.304 8  83228791.911 8  20325318.930                    20325327.223
 124136643.286 6  96729856.407 7  23622414.047                    23622427.145
 11  8 12 19  4  0.0000000  0 10G24G17G11G08G13G26G19G28G07G01
 118217331.764 7  92117481.08144  22496010.219                    22496020.941
 121769325.320 7  94885246.948 6  23171934.828                    23171945.938
 113400524.870 8  88364069.44845  21579400.016                    21579408.047
 107652419.493 8  83885028.05146  20485572.648                    20485581.469
 124357953.372 7  96902303.26443  23664546.148                    23664559.023
 123101005.674 6  95922906.57643  23425338.547                    23425350.141
 123803894.661 7  96470580.16044  23559102.102                    23559109.543
 116557297.113 8  90823896.23645  22180113.086                    22180121.398
 106820927.930 8  83237101.993 8  20327348.492                    20327356.469
 124145029.947 7  96736391.455 6  23624010.477                    23624023.109
 11  8 12 19  4 30.0000000  0 10G24G17G11G08G13G26G19G28G07G01
 118165382.300 7  92077001.05144  22486124.359                    22486134.707
 121678403.323 7  94814398.711 6  23154632.695                    23154643.516
 113388264.418 8  88354515.85645  21577066.578                    21577075.098
 107606469.396 8  83849222.78746  20476828.531                    20476836.848
 124469301.112 6  96989067.45543  23685735.711                    23685748.055
 123037450.099 6  95873382.82044  23413245.141                    23413255.777
 123905366.032 7  96549648.71644  23578411.773                    23578419.266
 116530851.793 8  90803289.50545  22175080.984                    22175089.141
 106832051.423 8  83245769.628 8  20329464.961                    20329473.461
 124153923.828 6  96743321.724 7  23625702.953                    23625715.648
 11  8 12 19  5  0.0000000  0 10G24G17G11G08G13G26G19G28G07G01
 118113798.714 7  92036806.11144  22476308.250                    22476319.352
 121587731.387 7  94743745.320 6  23137378.680                    23137389.152
 113376561.944 8  88345397.05645  21574839.719                    21574847.902
 107560864.771 8  83813686.71246  20468150.188                    20468158.852
 124580689.860 6  97075863.67443  23706932.047                    23706944.789
 122974410.554 6  95824261.13543  23401248.836                    23401259.570
 124006992.497 7  96628838.12844  23597750.563                    23597757.883
 116504475.627 8  90782736.65745  22170061.641                    22170069.543
 106843634.166 8  83254795.123 8  20331669.031                    20331677.523
 124163325.169 7  96750647.432 7  23627492.469                    23627504.438
 11  8 12 19  5 30.0000000  0 10G24G17G11G08G13G26G19G28G07G01
 118062584.201 7  91996898.77344  22466562.734                    22466573.566
 121497311.692 7  94673288.508 6  23120172.188                    23120183.090
 113365418.677 8  88336713.99245  21572719.047                    21572727.438
 107515608.706 8  83778422.24646  20459538.078                    20459547.152
 124692116.911 6  97162689.69843  23728136.047                    23728148.992
 122911889.604 6  95775543.53643  23389350.570                    23389361.973
 124108771.417 7  96708146.33944  23617118.000                    23617125.508
 116478168.397 8  90762237.52145  22165055.695                    22165063.594
 106855677.598 8  83264179.597 8  20333961.156                    20333969.344
 124173234.721 7  96758369.135 7  23629377.594                    23629390.387
 11  8 12 19  6  0.0000000  0 10G24G17G11G08G13G26G19G28G07G01
 118011741.367 7  91957281.04944  22456886.922                    22456897.910
 121407145.291 7  94603029.057 6  23103014.609                    23103024.473
 113354835.675 8  88328467.50645  21570705.172                    21570713.789
 107470703.626 8  83743431.27046  20450993.305                    20451001.512
 124803579.371 6  97249543.30943  23749347.555                    23749359.984
 122849889.119 6  95727231.52844  23377552.469                    23377564.117
 124210700.025 7  96787571.20244  23636514.727                    23636522.164
 116451929.005 8  90741791.25645  22160062.547                    22160070.641
 106868182.529 8  83273923.677 8  20336340.906                    20336349.012
 124183652.670 7  96766486.998 7  23631360.945                    23631372.949
 11  8 12 19  6 30.0000000  0 10G24G17G11G08G13G26G19G28G07G01
 117961272.844 7  91917954.98344  22447283.039                    22447294.090
 121317234.025 7  94532968.412 6  23085904.953                    23085915.738
 113344813.696 8  88320658.18345  21568798.234                    21568806.559
 107426151.777 8  83708715.54946  20442515.016                    20442524.031
 124915074.176 6  97336422.08443  23770563.914                    23770576.758
 122788411.152 6  95679326.66843  23365854.273                    23365865.250
 124312775.749 7  96867110.68544  23655939.594                    23655946.484
 116425757.291 7  90721397.71545  22155082.148                    22155090.438
 106881149.940 8  83284028.141 8  20338808.188                    20338816.621
 124194579.335 7  96775001.281 7  23633439.352                    23633451.816
 11  8 12 19  7  0.0000000  0 10G24G17G11G08G13G26G19G28G07G01
 117911181.240 7  91878922.64144  22437751.047                    22437762.168
 121227579.470 7  94463107.822 6  23068843.234                    23068854.727
 113335354.162 8  88313287.13545  21566998.336                    21567006.344
 107381955.580 8  83674276.95846  20434105.297                    20434113.703
 125026598.653 7  97423324.06243  23791787.070                    23791799.051
 122727457.840 6  95631830.61143  23354254.539                    23354265.941
 124414996.093 7  96946762.84044  23675391.219                    23675398.652
 116399652.198 8  90701056.09645  22150114.227                    22150122.711
 106894581.005 8  83294493.889 8  20341364.195                    20341372.652
 124206015.142 6  96783912.287 7  23635616.008                    23635628.219
 11  8 12 19  7 30.0000000  0 10G24G17G11G08G13G26G19G28G07G01
 117861469.449 7  91840186.24144  22428291.023                    22428302.195
 121138183.161 7  94393448.453 6  23051832.305                    23051842.695
 113326457.688 8  88306354.82045  21565305.172                    21565313.797
 107338117.654 8  83640117.53546  20425762.898                    20425771.402
 125138149.642 7  97510246.65443  23813014.555                    23813027.137
 122667030.968 6  95584744.76043  23342756.742                    23342767.352
 124517358.048 6  97026525.34844  23694869.758                    23694877.770
 116373613.222 7  90680765.97745  22145159.430                    22145167.359
 106908476.160 8  83305321.275 8  20344008.305                    20344016.754
 124217960.224 7  96793220.149 7  23637888.820                    23637901.203
 11  8 12 19  8  0.0000000  0 10G24G17G11G08G13G26G19G28G07G01
 117812140.116 7  91801747.87244  22418903.766                    22418915.098
 121049046.919 7  94323991.725 7  23034870.141                    23034880.691
 113318125.482 8  88299862.20945  21563719.406                    21563728.168
 107294640.238 8  83606239.03246  20417489.359                    20417498.023
 125249724.230 7  97597187.62443  23834246.617                    23834259.297
 122607132.569 7  95538070.70143  23331358.500                    23331368.969
 124619859.198 6  97106396.33344  23714375.586                    23714383.289
 116347639.719 8  90660526.89445  22140216.594                    22140224.906
 106922836.537 8  83316511.158 8  20346741.039                    20346749.320
 124230414.867 7  96802925.061 6  23640259.305                    23640271.730
 11  8 12 19  8 30.0000000  0 10G24G17G11G08G13G26G19G28G07G01
 117763196.198 7  91763609.81644  22409590.133                    22409601.230
 120960172.514 7  94254739.036 6  23017957.594                    23017968.648
 113310358.758 8  88293810.22045  21562241.672                    21562249.730
 107251526.222 8  83572643.69646  20409285.063                    20409294.027
 125361319.372 7  97684144.64043  23855483.133                    23855495.594
 122547764.674 7  95491810.03044  23320060.992                    23320071.516
 124722497.337 6  97186374.04244  23733906.547                    23733914.605
 116321731.008 8  90640338.27945  22135286.539                    22135294.660
 106937663.271 8  83328064.434 8  20349562.563                    20349570.711
 124243379.664 6  96813027.535 7  23642725.664                    23642738.570
 11  8 12 19  9  0.0000000  0 10G24G17G11G08G13G26G19G28G07G01
 117714639.831 7  91725773.75444  22400350.086                    22400361.102
 120871560.938 7  94185691.139 7  23001095.063                    23001106.453
 113303157.816 8  88288199.11245  21560871.102                    21560879.156
 107208777.419 8  83539332.94346  20401149.984                    20401158.797
 125472932.484 7  97771115.65743  23876722.242                    23876735.215
 122488929.001 7  95445964.07344  23308864.414                    23308875.125
 124825269.484 6  97266456.18344  23753463.695                    23753471.348
 116295886.110 7  90620199.40545  22130368.367                    22130377.180
 106952956.673 8  83339981.358 8  20352472.883                    20352480.875
 124256854.331 6  96823527.306 7  23645290.492                    23645302.473
 11  8 12 19  9 30.0000000  0 10G24G17G11G08G13G26G19G28G07G01
 117666474.057 7  91688242.04344  22391184.531                    22391195.730
 120783213.998 7  94116849.469 7  22984283.672                    22984294.430
 113296523.671 8  88283029.65945  21559608.633                    21559616.996
 107166396.422 8  83506308.78346  20393085.516                    20393094.043
 125584560.438 6  97858098.22643  23897964.156                    23897977.469
 122430627.384 7  95400534.25144  23297769.688                    23297780.574
 124928172.916 6  97346640.62644  23773045.586                    23773052.938
 116270104.431 7  90600109.79945  22125462.328                    22125470.473
 106968717.598 8  83352262.579 8  20355472.148                    20355480.238
 124270839.118 6  96834424.581 6  23647951.172                    23647963.801
 11  8 12 19 10  0.0000000  0 10G24G17G11G08G13G26G19G28G07G01
 117618701.440 7  91651016.67944  22382093.469                    22382104.863
 120695133.323 7  94048215.270 7  22967522.219                    22967532.895
 113290457.400 8  88278302.70345  21558454.266                    21558462.656
 107124385.914 8  83473573.32146  20385091.266                    20385099.949
 125696200.433 6  97945090.14443  23919209.023                    23919222.070
 122372861.989 7  95355522.25844  23286777.625                    23286787.836
 125031205.132 6  97426925.42744  23792652.094                    23792659.328
 116244385.630 8  90580069.16845  22120568.109                    22120576.480
 106984946.900 8  83364908.768 8  20358560.320                    20358568.504
 124285334.442 6  96845719.663 6  23650710.023                    23650721.832
 11  8 12 19 10 30.0000000  0 10G24G17G11G08G13G26G19G28G07G01
 117571324.542 7  91614099.67044  22373078.148                    22373088.977
 120607320.706 7  93979789.958 6  22950811.273                    22950822.527
 113284959.684 8  88274018.79245  21557408.328                    21557416.613
 107082748.084 8  83441128.25646  20377167.727                    20377176.414
 125807849.646 6  98032089.29743  23940454.789                    23940468.527
 122315634.561 7  95310929.47044  23275887.523                    23275898.535
 125134363.509 7  97507308.54444  23812282.516                    23812290.086
 116218728.763 8  90560076.80645  22115685.656                    22115693.809
 107001645.503 8  83377920.647 8  20361738.086                    20361746.465
 124300340.303 6  96857412.577 7  23653564.422                    23653577.453
 11  8 12 19 11  0.0000000  0 10G24G17G11G08G13G26G19G28G07G01
 117524346.208 7  91577493.23544  22364138.016                    22364149.340
 120519777.672 7  93911574.685 7  22934152.602                    22934163.953
 113280031.495 8  88270178.65345  21556470.148                    21556478.590
 107041485.622 8  83408975.68846  20369315.828                    20369324.625
 125919505.208 6  98119093.31843  23961702.914                    23961716.699
 122258946.987 7  95266757.36144  23265100.648                    23265110.949
 125237645.598 7  97587788.04844  23831936.172                    23831944.105
 116193133.445 8  90540132.40445  22110815.180                    22110823.570
 107018814.417 8  83391298.994 8  20365005.102                    20365013.309
 124315857.182 6  96869503.671 7  23656518.016                    23656530.871
 11  8 12 19 11 30.0000000  0 10G24G17G11G08G13G26G19G28G07G01
 117477768.850 7  91541199.24644  22355275.063                    22355286.152
 120432505.640 7  93843570.590 6  22917545.484                    22917556.305
 113275673.589 8  88266782.89345  21555641.023                    21555649.461
 107000600.887 8  83377117.45046  20361535.469                    20361544.379
 126031164.088 6  98206099.96243  23982950.422                    23982964.121
 122202800.973 7  95223007.27244  23254415.914                    23254427.109
 125341048.921 7  97668362.00444  23851613.875                    23851621.152
 116167598.807 8  90520235.28045  22105956.313                    22105964.148
 107036453.953 8  83405044.060 8  20368361.797                    20368370.203
 124331884.621 6  96881992.618 7  23659567.984                    23659580.813
 11  8 12 19 12  0.0000000  0 10G24G17G11G08G13G26G19G28G07G01
 117431594.841 7  91505219.55844  22346488.172                    22346498.902
 120345505.941 7  93775778.708 6  22900990.188                    22901000.926
 113271886.331 7  88263831.80345  21554920.438                    21554928.766
 106960095.899 8  83345555.11946  20353827.578                    20353836.477
 126142823.536 6  98293107.03943  24004199.172                    24004212.535
 122147198.318 7  95179680.56144  23243835.148                    23243845.645
 125444570.756 7  97749028.33244  23871313.078                    23871320.648
 116142124.241 8  90500384.96545  22101108.453                    22101116.762
 107054564.971 8  83419156.513 8  20371808.328                    20371816.902
 124348422.900 7  96894879.607 7  23662714.656                    23662727.367
 11  8 12 19 12 30.0000000  0 10G24G17G11G08G13G26G19G28G07G01
 117385826.807 7  91469556.21244  22337778.602                    22337789.793
 120258780.513 7  93708200.536 7  22884486.305                    22884497.586
 113268671.056 8  88261326.41245  21554308.656                    21554316.676
 106919973.505 8  83314290.91146  20346192.602                    20346201.566
 126254480.565 6  98380112.18443  24025446.578                    24025461.016
 122092140.734 7  95136778.55943  23233358.242                    23233368.055
 125548208.593 7  97829785.05544  23891034.602                    23891042.316
 116116709.306 8  90480581.12645  22096272.172                    22096280.438
 107073148.424 8  83433637.102 8  20375344.484                    20375352.551
 124365472.131 6  96908164.740 7  23665959.469                    23665971.891
 11  8 12 19 13  0.0000000  0 10G24G17G11G08G13G26G19G28G07G01
 117340467.847 7  91434211.61844  22329146.938                    22329157.973
 120172330.962 7  93640837.331 7  22868035.945                    22868046.789
 113266028.449 8  88259267.25945  21553805.539                    21553813.820
 106880236.621 8  83283327.09946  20338631.070                    20338639.637
 126366132.577 6  98467113.47543  24046693.828                    24046707.809
 122037630.502 6  95094303.10544  23222984.875                    23222995.543
 125651960.061 7  97910630.31344  23910777.305                    23910785.727
 116091353.886 8  90460823.65045  22091447.266                    22091455.293
 107092205.348 8  83448486.631 8  20378971.203                    20378979.566
 124383032.813 7  96921848.401 7  23669301.195                    23669313.402
 11  8 12 19 13 30.0000000  0 10G24G17G11G08G13G26G19G28G07G01
 117295519.931 7  91399187.30945  22320593.438                    22320604.844
 120086158.226 7  93573689.843 7  22851637.945                    22851648.137
 113263958.637 7  88257654.42745  21553411.820                    21553420.238
 106840886.758 8  83252664.86446  20331143.055                    20331151.793
 126477776.461 6  98554108.38943  24067939.023                    24067952.676
 121983668.789 7  95052254.99844  23212716.570                    23212727.098
 125755822.386 7  97991561.94244  23930542.688                    23930550.297
 116066056.601 8  90441111.47145  22086633.297                    22086641.445
 107111735.682 8  83463705.038 8  20382687.641                    20382695.805
 124401104.529 6  96935930.264 7  23672739.516                    23672752.313
 11  8 12 19 14  0.0000000  0 10G24G17G11G08G13G26G19G28G07G01
 117250985.795 7  91364485.41445  22312119.461                    22312130.504
 120000264.177 7  93506759.494 6  22835292.266                    22835303.195
 113262462.809 8  88256488.85545  21553127.305                    21553135.465
 106801926.423 8  83222306.16946  20323729.063                    20323737.508
 126589409.235 6  98641094.66943  24089181.867                    24089196.207
 121930257.354 6  95010635.75143  23202553.047                    23202563.133
 125859793.165 7  98072578.06144  23950327.609                    23950335.313
 116040816.927 8  90421444.19445  22081830.430                    22081838.367
 107131740.391 8  83479293.102 8  20386494.281                    20386502.609
 124419687.208 7  96950410.261 7  23676276.609                    23676288.387
 11  8 12 19 14 30.0000000  0 10G24G17G11G08G13G26G19G28G07G01
 117206868.154 7  91330108.06445  22303724.117                    22303734.648
 119914650.327 7  93440047.475 7  22819000.836                    22819011.289
 113261541.279 8  88255770.79345  21552951.641                    21552959.781
 106763358.289 8  83192253.07246  20316390.133                    20316398.613
 126701028.393 7  98728070.33743  24110423.875                    24110437.457
 121877398.004 6  94969446.68543  23192493.344                    23192504.445
 125963869.885 7  98153676.75944  23970132.680                    23970140.355
 116015634.406 8  90401821.45045  22077038.242                    22077046.578
 107152220.208 8  83495251.367 8  20390391.570                    20390399.773
 124438780.954 6  96965288.493 6  23679909.180                    23679921.922
 11  8 12 19 15  0.0000000  0 10G24G17G11G08G13G26G19G28G07G01
 117163169.083 7  91296056.87244  22295408.484                    22295419.207
 119829317.683 7  93373554.605 7  22802762.281                    22802772.617
 113261194.372 8  88255500.47945  21552885.586                    21552893.738
 106725184.442 8  83162507.21446  20309125.680                    20309133.949
 126812630.818 7  98815032.94243  24131660.594                    24131674.305
 121825092.178 6  94928688.91944  23182540.227                    23182550.801
 126068049.898 7  98234855.95944  23989957.758                    23989965.207
 115990508.226 8  90382242.60345  22072256.672                    22072265.063
 107173175.182 8  83511579.887 8  20394379.211                    20394387.391
 124458385.465 6  96980564.749 7  23683639.992                    23683652.918
 11  8 12 19 15 30.0000000  0 10G24G17G11G08G13G26G19G28G07G01
 117119891.062 7  91262333.76145  22287172.898                    22287183.648
 119744268.142 7  93307282.325 7  22786577.563                    22786588.410
 113261423.002 8  88255678.64045  21552929.211                    21552937.000
 106687406.923 8  83133070.18746  20301936.773                    20301945.758
 126924213.730 6  98901980.36143  24152894.367                    24152908.965
 121773341.497 7  94888363.75444  23172692.281                    23172703.223
 126172330.935 6  98316113.85644  24009801.250                    24009808.793
 115965437.918 8  90362707.29145  22067486.063                    22067494.742
 107194606.286 8  83528279.421 8  20398457.469                    20398465.961
 124478500.960 6  96996239.163 6  23687467.586                    23687480.473
 11  8 12 19 16  0.0000000  0 10G24G17G11G08G13G26G19G28G07G01
 117077036.876 7  91228940.90845  22279018.141                    22279028.449
 119659503.136 7  93241231.755 7  22770447.539                    22770458.195
 113262227.800 7  88256305.76145  21553082.242                    21553090.359
 106650028.844 8  83103944.40846  20294824.023                    20294832.793
 127035774.658 6  98988910.66743  24174123.844                    24174138.195
 121722147.937 7  94848472.70244  23162950.359                    23162960.797
 126276710.190 6  98397448.30344  24029664.219                    24029672.297
 115940423.193 8  90343215.30145  22062725.938                    22062734.012
 107216514.524 8  83545350.737 8  20402626.430                    20402634.793
 124499127.198 6  97012311.547 7  23691393.328                    23691405.457
 11  8 12 19 16 30.0000000  0 10G24G17G11G08G13G26G19G28G07G01
 117034608.943 7  91195880.19945  22270944.219                    22270954.789
 119575024.048 7  93175403.972 7  22754371.531                    22754382.242
 113263609.204 8  88257382.17545  21553345.250                    21553353.367
 106613052.304 8  83075131.51846  20287787.570                    20287796.082
 127147310.643 6  99075821.54143  24195348.852                    24195362.809
 121671512.890 7  94809016.84644  23153314.938                    23153326.066
 126381185.447 6  98478857.54144  24049545.609                    24049552.766
 115915463.470 8  90323766.16445  22057976.484                    22057984.969
 107238900.311 8  83562794.183 8  20406886.320                    20406894.617
 124520264.219 6  97028781.957 6  23695414.727                    23695427.391
 11  8 12 19 17  0.0000000  0 10G24G17G11G08G13G26G19G28G07G01
 116992609.796 7  91163153.60644  22262951.656                    22262962.723
 119490832.481 7  93109800.237 7  22738350.195                    22738361.094
 113265567.772 7  88258908.34145  21553717.781                    21553726.324
 106576479.772 8  83046633.44446  20280827.836                    20280836.773
 127258818.678 6  99162710.60442  24216568.359                    24216582.211
 121621437.978 7  94769997.45744  23143786.000                    23143797.066
 126485754.300 7  98560339.70944  24069444.484                    24069451.551
 115890557.899 8  90304359.22245  22053236.922                    22053245.426
 107261764.276 8  83580610.231 8  20411237.305                    20411245.789
 124541911.524 6  97045649.981 7  23699534.516                    23699547.109
 11  8 12 19 17 30.0000000  0 10G24G17G11G08G13G26G19G28G07G01
 116951041.852 7  91130763.02544  22255042.008                    22255052.488
 119406929.606 7  93044421.458 7  22722383.852                    22722395.031
 113268103.966 8  88260884.60545  21554200.555                    21554208.820
 106540313.830 8  83018452.18646  20273945.859                    20273954.754
 127370296.400 5  99249576.03442  24237782.508                    24237796.023
 121571924.805 7  94731415.78644  23134364.109                    23134374.688
 126590414.091 6  98641892.74443  24089359.641                    24089367.887
 115865706.216 8  90284994.26645  22048508.148                    22048516.254
 107285106.967 8  83598799.308 8  20415679.148                    20415687.148
 124564069.740 6  97062916.139 6  23703750.859                    23703763.656
 11  8 12 19 18  0.0000000  0 10G24G17G11G08G13G26G19G28G07G01
 116909907.230 7  91098710.09745  22247214.289                    22247224.863
 119323316.761 7  92979268.670 7  22706473.445                    22706483.707
 113271218.022 8  88263311.14545  21554793.313                    21554801.105
 106504556.103 8  82990589.02546  20267141.234                    20267150.180
 127481740.963 6  99336415.68442  24258989.188                    24259003.316
 121522974.585 7  94693272.77244  23125049.102                    23125060.363
 126695162.227 7  98723514.61744  24109292.852                    24109301.074
 115840907.330 8  90265670.45845  22043788.969                    22043797.449
 107308928.451 8  83617361.474 8  20420212.281                    20420220.570
 124586737.791 6  97080579.548 7  23708064.852                    23708076.875
 11  8 12 19 18 30.0000000  0 10G24G17G11G08G13G26G19G28G07G01
 116869208.568 7  91066996.87045  22239469.430                    22239480.160
 119239995.648 7  92914343.205 7  22690617.352                    22690628.566
 113274910.659 7  88266188.53545  21555495.789                    21555503.914
 106469209.317 8  82963046.07346  20260415.055                    20260423.984
 127593148.818 5  99423226.66442  24280189.641                    24280203.891
 121474589.238 7  94655569.94544  23115841.516                    23115852.293
 126799996.566 7  98805203.63744  24129243.094                    24129250.301
 115816160.986 7  90246387.59145  22039079.664                    22039088.410
 107333229.541 8  83636297.365 8  20424836.398                    20424844.859
 124609915.895 6  97098640.405 7  23712474.945                    23712487.723
 11  8 12 19 19  0.0000000  0 10G24G17G11G08G13G26G19G28G07G01
 116828948.410 7  91035625.34545  22231808.148                    22231819.086
 119156967.772 7  92849646.220 7  22674817.328                    22674828.328
 113279182.302 7  88269517.11245  21556308.641                    21556316.887
 106434276.054 8  82935825.34746  20253767.547                    20253776.281
 127704517.627 6  99510007.23242  24301382.813                    24301397.184
 121426770.064 7  94618308.27544  23106742.281                    23106752.676
 126904914.766 7  98886958.00944  24149207.875                    24149215.840
 115791467.038 8  90227145.55645  22034380.641                    22034389.133
 107358010.909 8  83655607.490 8  20429552.414                    20429561.078
 124633604.088 6  97117098.737 6  23716983.086                    23716995.316
 11  8 12 19 19 30.0000000  0 10G24G17G11G08G13G26G19G28G07G01
 116789128.998 7  91004597.26345  22224231.219                    22224241.699
 119074234.351 7  92785178.692 7  22659074.016                    22659084.754
 113284033.116 8  88273296.98145  21557231.539                    21557240.281
 106399758.236 8  82908928.33646  20247199.016                    20247207.840
 127815844.707 6  99596755.32842  24322568.281                    24322582.465
 121379518.656 7  94581489.01244  23097750.211                    23097761.145
 127009913.957 7  98968775.52144  24169188.594                    24169196.430
 115766824.615 8  90207943.66946  22029691.648                    22029699.668
 107383273.117 8  83675292.296 8  20434359.672                    20434367.891
 124657801.942 6  97135954.175 6  23721588.164                    23721600.352
 11  8 12 19 20  0.0000000  0 10G24G17G11G08G13G26G19G28G07G01
 116749752.712 7  90973914.48244  22216737.477                    22216748.383
 118991796.920 7  92720941.799 7  22643386.563                    22643397.457
 113289463.717 8  88277528.63045  21558265.297                    21558273.371
 106365658.839 8  82882357.37146  20240710.383                    20240719.078
 127927127.506 6  99683468.85743  24343744.914                    24343759.160
 121332836.534 7  94545113.33744  23088867.141                    23088877.727
 127114991.526 6  99050654.07444  24189183.852                    24189192.145
 115742233.484 8  90188781.74545  22025011.797                    22025019.863
 107409016.269 8  83695351.867 8  20439258.570                    20439266.773
 124682509.154 6  97155206.546 7  23726289.727                    23726301.848
 11  8 12 19 20 30.0000000  0 10G24G17G11G08G13G26G19G28G07G01
 116710821.477 7  90943578.48845  22209329.297                    22209339.680
 118909656.058 7  92656936.004 7  22627755.359                    22627766.422
 113295473.789 8  88282211.82745  21559408.586                    21559416.906
 106331979.123 8  82856113.43446  20234301.375                    20234310.105
 128038362.699 6  99770145.32743  24364912.359                    24364927.270
 121286724.427 7  94509181.83644  23080092.656                    23080102.559
 127220145.788 7  99132592.39044  24209194.492                    24209202.789
 115717692.270 7  90169658.72245  22020342.141                    22020349.938
 107435240.503 8  83715786.299 8  20444248.633                    20444257.395
 124707725.122 7  97174855.332 6  23731087.977                    23731100.020
 11  8 12 19 21  0.0000000  0 10G24G17G11G08G13G26G19G28G07G01
 116672338.031 7  90913591.41444  22202006.219                    22202016.930
 118827813.786 7  92593162.876 7  22612181.703                    22612192.418
 113302063.926 8  88287347.02145  21560663.063                    21560670.801
 106298722.308 8  82830199.02646  20227972.523                    20227981.586
 128149548.083 6  99856782.94343  24386070.242                    24386085.188
 121241184.172 7  94473695.94444  23071426.328                    23071436.730
 127325374.251 7  99214588.53644  24229218.633                    24229226.676
 115693201.174 8  90150574.75745  22015681.711                    22015689.605
 107461946.823 8  83736596.394 8  20449331.102                    20449339.293
 124733449.682 7  97194900.415 7  23735983.125                    23735995.602
 11  8 12 19 21 30.0000000  0 10G24G17G11G08G13G26G19G28G07G01
 116634304.533 7  90883954.95345  22194768.742                    22194779.348
 118746271.363 7  92529623.384 7  22596664.570                    22596675.293
 113309234.449 8  88292934.46045  21562027.781                    21562035.730
 106265890.201 8  82804615.56146  20221724.695                    20221733.520
 128260680.814 6  99943379.55943  24407218.734                    24407233.063
 121196217.060 7  94438656.67644  23062869.313                    23062880.246
 127430674.039 7  99296640.27744  24249256.742                    24249264.715
 115668759.768 7  90131529.50545  22011030.477                    22011038.582
 107489135.473 8  83757782.321 8  20454504.977                    20454512.949
 124759682.606 7  97215341.648 7  23740975.148                    23740987.418
 11  8 12 19 22  0.0000000  0 10G24G17G11G08G13G26G19G28G07G01
 116596723.077 7  90854670.73945  22187616.875                    22187627.801
 118665030.377 7  92466318.794 7  22581205.172                    22581215.262
 113316985.580 8  88298974.30845  21563502.648                    21563510.227
 106233484.982 8  82779364.73446  20215558.266                    20215567.043
 128371757.799 6 100029932.75943  24428356.039                    24428370.816
 121151824.556 7  94404065.12044  23054421.242                    23054432.055
 127536042.934 7  99378745.82943  24269308.242                    24269315.336
 115644367.097 8  90112522.22645  22006388.320                    22006396.613
 107516806.661 8  83779344.262 7  20459770.445                    20459778.852
 124786423.457 6  97236178.650 6  23746063.805                    23746075.973
 11  8 12 19 22 30.0000000  0 10G24G17G11G08G13G26G19G28G07G01
 116559595.976 7  90825740.59144  22180551.797                    22180562.699
 118584091.801 7  92403249.840 7  22565802.961                    22565813.516
 113325317.621 7  88305466.81145  21565087.641                    21565095.707
 106201509.203 8  82754448.54246  20209473.531                    20209482.836
 128482776.722 6 100116440.62943  24449482.438                    24449497.023
 121108007.828 7  94369922.23444  23046083.656                    23046093.602
 127641478.645 7  99460903.49043  24289371.711                    24289378.914
 115620022.830 8  90093552.67845  22001755.984                    22001763.941
 107544960.857 8  83801282.577 8  20465127.984                    20465136.297
 124813672.095 7  97257411.331 7  23751249.000                    23751261.773
 11  8 12 19 23  0.0000000  0 10G24G17G11G08G13G26G19G28G07G01
 116522925.709 7  90797166.40044  22173573.547                    22173584.621
 118503457.054 7  92340417.629 7  22550458.336                    22550468.734
 113334230.804 8  88312412.16045  21566783.781                    21566792.023
 106169965.130 8  82729868.73746  20203470.688                    20203479.699
 128593734.687 6 100202901.06743  24470597.125                    24470611.980
 121064768.217 7  94336229.07544  23037855.492                    23037865.867
 127746978.883 7  99543111.42143  24309447.922                    24309455.039
 115595726.847 8  90074620.75445  21997132.664                    21997141.191
 107573598.719 8  83823597.763 8  20470577.984                    20470585.949
 124841427.999 6  97279039.288 7  23756531.531                    23756543.539
 11  8 12 19 23 30.0000000  0 10G24G17G11G08G13G26G19G28G07G01
 116486714.540 7  90768949.95545  22166682.930                    22166693.328
 118423127.185 7  92277822.987 7  22535172.391                    22535183.000
 113343725.104 8  88319810.31845  21568590.195                    21568599.195
 106138854.779 8  82705626.90246  20197550.789                    20197559.457
 128704629.041 6 100289311.89643  24491700.367                    24491715.027
 121022106.893 7  94302986.48644  23029737.648                    23029747.215
 127852541.095 6  99625367.68143  24329535.539                    24329543.012
 115571478.183 8  90055725.69545  21992518.172                    21992526.547
 107602720.019 8  83846289.657 8  20476119.281                    20476127.695
 124869690.516 6  97301062.027 6  23761908.641                    23761921.039
 11  8 12 19 24  0.0000000  0 10G24G17G11G08G13G26G19G28G07G01
 116450964.637 7  90741092.93545  22159879.969                    22159890.770
 118343103.884 7  92215467.233 7  22519944.375                    22519954.625
 113353800.667 8  88327661.41545  21570508.164                    21570516.496
 106108180.642 8  82681724.97146  20191713.633                    20191722.820
 128815456.804 6 100375670.82943  24512789.539                    24512804.594
 120980025.201 7  94270195.56544  23021729.203                    23021739.570
 127958163.197 6  99707670.56143  24349634.875                    24349642.523
 115547276.613 8  90036867.33645  21987912.438                    21987920.688
 107632325.336 8  83869358.704 7  20481753.031                    20481761.301
 124898459.311 6  97323479.246 6  23767383.172                    23767396.316
 11  8 12 19 24 30.0000000  0 10G24G17G11G08G13G26G19G28G07G01
 116415678.170 7  90713597.03645  22153165.117                    22153176.063
 118263388.132 7  92153351.129 7  22504774.586                    22504784.906
 113364457.714 8  88335965.60845  21572535.688                    21572544.211
 106077944.828 8  82658164.59046  20185959.734                    20185968.879
 128926215.649 6 100461976.09143  24533866.844                    24533881.730
 120938524.392 7  94237857.26944  23013831.680                    23013842.504
 128063842.687 6  99790018.16243  24369744.820                    24369752.625
 115523121.707 8  90018045.33845  21983316.016                    21983324.570
 107662415.079 8  83892805.229 8  20487478.828                    20487487.035
 124927734.373 6  97346290.981 6  23772954.430                    23772966.465
 11  8 12 19 25  0.0000000  0 10G24G17G11G08G13G26G19G28G07G01
 116380857.162 7  90686463.85044  22146538.875                    22146549.336
 118183981.332 7  92091475.772 7  22489664.039                    22489674.785
 113375696.392 8  88344723.02045  21574674.500                    21574682.809
 106048149.449 8  82634947.40646  20180289.977                    20180298.926
 129036902.949 6 100548225.52142  24554930.539                    24554944.938
 120897605.485 7  94205972.42244  23006045.336                    23006055.586
 128169576.822 6  99872408.37843  24389865.000                    24389873.180
 115499012.822 8  89999259.20045  21978728.469                    21978736.906
 107692989.245 8  83916629.223 7  20493297.039                    20493305.164
 124957515.05916  97369496.71016  23778622.000                    23778634.715
 11  8 12 19 25 30.0000000  0 10G24G17G11G08G13G26G19G28G07G01
 116346503.910 7  90659695.12645  22140001.609                    22140012.188
 118104884.689 7  92029842.092 7  22474612.188                    22474622.762
 113387516.482 8  88353933.48445  21576923.945                    21576932.273
 106018796.877 8  82612075.26146  20174704.594                    20174713.395
 129147515.665 6 100634416.89042  24575979.992                    24575995.203
 120857269.791 7  94174542.03144  22998369.367                    22998379.770
 128275363.948 6  99954839.82743  24409996.383                    24410003.836
 115474949.865 8  89980508.84945  21974149.367                    21974157.953
 107724048.307 8  83940831.054 7  20499207.484                    20499215.988
 124987800.206 7  97393095.523 7  23784384.813                    23784397.059
 11  8 12 19 26  0.0000000  0 10G24G17G11G08G13G26G19G28G07G01
 116312620.556 7  90633292.56645  22133553.773                    22133564.258
 118026099.476 7  91968451.087 7  22459619.844                    22459630.387
 113399918.329 8  88363597.25545  21579283.938                    21579292.172
 105989889.781 8  82589550.24546  20169203.750                    20169212.176
 129258051.256 6 100720548.14742  24597014.570                    24597028.914
 120817518.539 7  94143567.05544  22990805.023                    22990814.852
 128381201.824 6 100037310.83643  24430136.281                    24430144.055
 115450932.315 8  89961793.86545  21969578.875                    21969587.035
 107755592.547 8  83965410.952 7  20505209.805                    20505218.262
 125018589.912 7  97417087.500 7  23790243.297                    23790256.184
 11  8 12 19 26 30.0000000  0 10G24G17G11G08G13G26G19G28G07G01
 116279209.348 7  90607257.91645  22127196.055                    22127206.652
 117947627.305 7  91907304.006 7  22444687.391                    22444697.426
 113412901.850 8  88373714.28345  21581754.539                    21581762.840
 105961430.165 8  82567373.91746  20163788.070                    20163796.590
 129368507.159 6 100806617.28342  24618033.594                    24618048.957
 120778352.828 7  94113048.30944  22983351.859                    22983362.543
 128487087.927 6 100119819.45343  24450286.117                    24450293.730
 115426959.610 7  89943113.83546  21965017.344                    21965025.535
 107787622.449 8  83990369.284 8  20511305.273                    20511313.547
 125049883.480 7  97441472.108 7  23796198.445                    23796211.184
 11  8 12 19 27  0.0000000  0 10G24G17G11G08G13G26G19G28G07G01
 116246272.002 7  90581592.49045  22120928.328                    22120938.332
 117869468.711 7  91846401.276 7  22429813.773                    22429824.465
 113426466.831 8  88384284.40145  21584335.773                    21584344.102
 105933419.357 8  82545547.30646  20158457.820                    20158466.691
 129478880.535 6 100892622.17542  24639036.625                    24639052.402
 120739773.272 7  94082986.31544  22976010.531                    22976021.086
 128593019.566 6 100202363.52944  24470444.320                    24470452.508
 115403031.101 8  89924468.24045  21960463.523                    21960471.898
 107820137.505 8  84015705.657 7  20517492.172                    20517501.141
 125081680.084 7  97466248.677 6  23802249.344                    23802261.898
 11  8 12 19 27 30.0000000  0 10G24G17G11G08G13G26G19G28G07G01
 116213810.817 7  90556298.10745  22114750.695                    22114761.410
 117791625.085 7  91785743.964 7  22415000.867                    22415011.176
 113440613.195 8  88395307.54745  21587028.359                    21587036.527
 105905859.947 8  82524072.42846  20153212.977                    20153221.988
 129589168.909 6 100978560.72742  24660024.828                    24660040.320
 120701781.123 7  94053382.05244  22968781.141                    22968791.570
 128698994.636 7 100284941.44944  24490610.727                    24490618.656
 115379146.719 8  89905857.03445  21955918.266                    21955926.836
 107853137.797 8  84041420.131 7  20523772.367                    20523780.867
 125113979.250 6  97491416.859 6  23808395.508                    23808407.961
 11  8 12 19 28  0.0000000  0  9G24G17G11G08G26G19G28G07G01
 116181829.221 7  90531377.42045  22108665.109                    22108675.488
 117714099.256 7  91725334.287 7  22400248.508                    22400258.496
 113455342.343 8  88406784.81945  21589830.727                    21589838.832
 105878755.865 8  82502952.35946  20148055.727                    20148064.387
 120664379.078 7  94024237.59544  22961664.156                    22961674.246
 128805012.481 6 100367552.69443  24510785.289                    24510793.453
 115355307.314 7  89887280.86845  21951382.234                    21951390.465
 107886625.476 8  84067514.396 7  20530144.898                    20530153.305
 125146781.914 6  97516977.378 6  23814638.305                    23814650.375
 11  8 12 19 28 30.0000000  0  9G24G17G11G08G26G19G28G07G01
 116150328.111 7  90506831.14145  22102670.500                    22102681.379
 117636890.941 7  91665172.015 7  22385555.813                    22385566.078
 113470652.903 8  88418715.14045  21592744.078                    21592752.527
 105852107.863 8  82482187.67146  20142984.648                    20142992.926
 120627566.682 7  93995552.60744  22954658.242                    22954668.559
 128911069.483 6 100450194.43244  24530967.281                    24530975.109
 115331511.125 7  89868738.38145  21946854.102                    21946862.281
 107920599.236 8  84093987.412 7  20536609.820                    20536618.430
 125180086.019 6  97542928.603 7  23820975.375                    23820987.570
 11  8 12 19 29  0.0000000  0  9G24G17G11G08G26G19G28G07G01
 116119309.266 7  90482660.64245  22096767.555                    22096778.047
 117560001.110 7  91605257.921 7  22370924.328                    22370934.504
 113486544.399 8  88431098.13145  21595768.008                    21595776.820
 105825917.645 8  82461779.69546  20138000.781                    20138009.523
 120591344.530 7  93967327.54844  22947765.406                    22947776.207
 129017162.953 7 100532864.60944  24551156.398                    24551163.934
 115307757.780 8  89850229.28645  21942334.211                    21942341.871
 107955058.855 8  84120839.030 7  20543167.508                    20543175.777
 125213890.793 6  97569269.960 6  23827408.039                    23827420.816
 11  8 12 19 29 30.0000000  0  9G24G17G11G08G26G19G28G07G01
 116088774.451 7  90458867.31645  22090957.219                    22090967.660
 117483430.681 7  91545592.705 7  22356353.133                    22356363.574
 113503016.577 8  88443933.60345  21598902.773                    21598911.355
 105800187.096 8  82441729.90246  20133104.531                    20133113.273
 120555713.630 7  93939563.21244  22940985.555                    22940996.281
 129123290.499 7 100615561.33743  24571351.750                    24571359.531
 115284046.169 8  89831752.70045  21937821.813                    21937830.141
 107990003.907 8  84148068.910 7  20549817.250                    20549825.605
 125248195.057 6  97596000.579 6  23833935.930                    23833948.211
 11  8 12 19 30  0.0000000  0  9G24G17G11G08G26G19G28G07G01
 116058725.755 7  90435452.77545  22085238.633                    22085249.520
 117407180.822 7  91486177.285 7  22341843.242                    22341853.527
 113520069.578 8  88457221.65645  21602147.531                    21602155.773
 105774918.462 8  82422040.04146  20128295.906                    20128304.676
 120520674.858 7  93912260.24944  22934317.852                    22934328.359
 129229450.296 6 100698283.20543  24591553.047                    24591561.262
 115260376.439 8  89813308.75845  21933317.352                    21933325.965
 108025435.154 8  84175677.637 7  20556559.672                    20556568.020
 125282998.676 7  97623120.235 6  23840558.836                    23840571.176
 11  8 12 19 30 30.0000000  0  9G24G17G11G08G26G19G28G07G01
 116029165.389 7  90412418.75445  22079613.867                    22079624.137
 117331253.223 7  91427012.998 7  22327394.539                    22327404.891
 113537703.135 8  88470962.08545  21605503.469                    21605511.496
 105750114.320 8  82402712.12046  20123575.719                    20123584.828
 120486229.468 7  93885419.68844  22927762.680                    22927773.332
 129335639.910 6 100781028.30243  24611760.375                    24611768.090
 115236748.484 8  89794897.37145  21928821.469                    21928829.477
 108061352.774 8  84203665.352 7  20563394.438                    20563403.246
 125318300.989 7  97650628.527 6  23847276.609                    23847288.816
 11  8 12 19 31  0.0000000  0  9G24G17G11G08G26G19G28G07G01
 116000094.843 7  90389766.40245  22074081.703                    22074092.281
 117255648.581 7  91368100.338 7  22313007.664                    22313017.898
 113555916.843 8  88485154.58445  21608969.461                    21608977.941
 105725776.283 8  82383747.40146  20118944.492                    20118952.883
 120452378.061 7  93859041.99544  22921321.219                    22921331.945
 129441857.306 6 100863795.03843  24631972.672                    24631981.176
 115213161.579 8  89776517.96545  21924332.461                    21924340.977
 108097756.577 8  84232031.914 7  20570322.195                    20570330.430
 125354100.713 6  97678524.396 6  23854089.148                    23854101.371
 11  8 12 19 31 30.0000000  0  9G24G17G11G08G26G19G28G07G01
 115971516.378 7  90367497.48645  22068643.281                    22068653.813
 117180368.273 7  91309440.428 7  22298682.125                    22298692.691
 113574710.673 8  88499799.11945  21612546.219                    21612554.160
 105701906.704 8  82365147.70946  20114402.469                    20114411.195
 120419121.601 7  93833127.86544  22914992.969                    22915003.543
 129548100.255 6 100946581.66643  24652190.797                    24652198.578
 115189615.696 8  89758170.52345  21919852.086                    21919860.023
 108134646.489 8  84260777.264 7  20577341.773                    20577350.059
 125390397.440 7  97706807.556 6  23860996.352                    23861008.504
 11  8 12 19 32  0.0000000  0  9G24G17G11G08G26G19G28G07G01
 115943432.044 7  90345613.61945  22063299.383                    22063309.867
 117105413.502 7  91251034.163 7  22284419.242                    22284429.223
 113594084.538 8  88514895.62545  21616232.563                    21616241.125
 105678507.948 8  82346914.89846  20109949.680                    20109958.145
 120386461.093 7  93807678.12544  22908777.227                    22908788.617
 129654366.831 6 101029386.71643  24672411.891                    24672420.270
 115166110.605 8  89739854.87046  21915379.234                    21915387.418
 108172022.847 8  84289901.654 7  20584454.617                    20584463.074
 125427190.699 7  97735477.597 6  23867998.156                    23868010.398
 11  8 12 19 32 30.0000000  0  9G24G17G11G08G26G19G28G07G01
 115915843.628 7  90324116.18245  22058049.148                    22058059.863
 117030785.130 7  91192882.240 7  22270217.172                    22270227.164
 113614037.724 8  88530443.55145  21620029.586                    21620037.727
 105655581.756 8  82329050.31846  20105587.430                    20105596.082
 120354397.051 7  93782693.15144  22902676.281                    22902686.695
 129760654.459 6 101112208.16143  24692638.336                    24692645.352
 115142645.490 7  89721570.36945  21910914.078                    21910922.438
 108209885.275 8  84319404.816 7  20591659.234                    20591667.613
 125464479.399 7  97764533.717 6  23875093.406                    23875106.230
 11  8 12 19 33  0.0000000  0  9G24G17G11G08G26G19G28G07G01
 115888752.919 7  90303006.57845  22052894.008                    22052904.582
 116956484.210 8  91134985.481 7  22256077.867                    22256088.281
 113634569.994 8  88546442.71145  21623936.492                    21623945.027
 105633130.040 8  82311555.46046  20101314.719                    20101323.488
 120322930.089 7  93758173.45644  22896688.250                    22896698.785
 129866961.202 6 101195044.58743  24712867.734                    24712875.477
 115119220.176 8  89703316.88045  21906456.516                    21906464.688
 108248233.958 8  84349286.871 7  20598956.984                    20598965.410
 125502262.702 7  97793975.243 6  23882283.859                    23882295.664
 11  8 12 19 33 30.0000000  0  9G24G17G11G08G26G19G28G07G01
 115862161.784 7  90282286.25045  22047833.922                    22047844.262
 116882511.767 8  91077344.672 7  22242001.945                    22242012.090
 113655680.950 8  88562892.79745  21627953.898                    21627962.293
 105611155.141 8  82294432.14646  20097133.117                    20097141.676
 120292061.501 7  93734120.02444  22890814.633                    22890824.461
 129973284.763 6 101277894.03743  24733099.820                    24733108.750
 115095834.460 7  89685094.25646  21902006.047                    21902014.215
 108287068.750 8  84379547.705 7  20606347.047                    20606355.453
 125540539.977 6  97823801.670 6  23889566.734                    23889580.066
 11  8 12 19 34  0.0000000  0  9G24G17G11G08G26G19G28G07G01
 115836072.043 8  90261956.61845  22042868.859                    22042879.660
 116808869.080 8  91019960.813 7  22227988.055                    22227997.871
 113677370.536 8  88579793.75745  21632081.453                    21632089.637
 105589659.030 8  82277681.92346  20093042.594                    20093050.926
 120261791.695 7  93710533.15444  22885054.328                    22885064.703
 130079623.098 6 101360755.06043  24753335.875                    24753344.160
 115072488.140 8  89666902.32646  21897563.406                    21897571.711
 108326389.748 8  84410187.403 7  20613829.586                    20613838.027
 125579310.365 6  97854012.352 6  23896945.109                    23896957.652
 11  8 12 19 34 30.0000000  0  9G24G17G11G08G26G19G28G07G01
 115810485.602 7  90242019.14245  22038000.102                    22038010.980
 116735557.018 8  90962834.579 7  22214036.992                    22214047.063
 113699638.157 8  88597145.13645  21636318.930                    21636327.012
 105568643.545 8  82261306.20646  20089043.281                    20089052.469
 120232121.244 7  93687413.32644  22879408.078                    22879418.535
 130185974.048 6 101443625.88643  24773574.055                    24773582.227
 115049180.567 8  89648740.58046  21893128.305                    21893136.367
 108366196.632 8  84441205.713 7  20621404.461                    20621413.141
 125618572.690 6  97884606.339 6  23904416.875                    23904428.719
 11  8 12 19 35  0.0000000  0  9G24G17G11G08G26G19G28G07G01
 115785403.861 7  90222474.95545  22033227.516                    22033237.980
 116662576.163 8  90905966.432 7  22200149.258                    22200159.266
 113722482.710 8  88614946.09045  21640666.195                    21640674.027
 105548110.037 8  82245306.05346  20085135.891                    20085144.871
 120203050.628 7  93664760.91544  22873876.570                    22873886.551
 130292335.092 6 101526504.56443  24793813.367                    24793822.125
 115025911.215 7  89630608.63145  21888700.234                    21888708.555
 108406488.993 8  84472602.317 7  20629071.773                    20629080.527
 125658325.621 6  97915582.641 7  23911981.633                    23911993.844
 11  8 12 19 35 30.0000000  0  9G24G17G11G08G26G19G28G07G01
 115760829.308 7  90203325.99445  22028551.094                    22028561.438
 116589928.740 8  90849358.103 7  22186325.469                    22186335.086
 113745904.986 8  88633197.20745  21645122.844                    21645131.016
 105528061.780 8  82229684.01946  20081320.719                    20081329.379
 120174581.392 7  93642577.10744  22868458.594                    22868468.977
 130398704.917 6 101609390.09443  24814055.977                    24814063.805
 115002680.834 7  89612507.02946  21884279.617                    21884288.082
 108447267.896 8  84504378.042 7  20636832.016                    20636840.547
 125698569.613 7  97946941.591 6  23919639.828                    23919652.227
 11  8 12 19 36  0.0000000  0  8G24G17G11G08G26G28G07G01
 115736763.630 7  90184573.54045  22023971.313                    22023982.031
 116517615.242 8  90793009.975 7  22172564.281                    22172574.266
 113769904.324 8  88651897.98945  21649690.133                    21649698.004
 105508500.473 8  82214441.42446  20077598.641                    20077607.594
 120146713.820 7  93620862.12444  22863155.102                    22863166.559
 114979489.004 8  89594435.48046  21879866.289                    21879874.715
 108488532.346 8  84536532.116 7  20644684.492                    20644693.102
 125739303.148 7  97978681.977 7  23927391.164                    23927403.727
 11  8 12 19 36 30.0000000  0  8G24G17G11G08G26G28G07G01
 115713208.071 7  90166218.59445  22019488.992                    22019499.262
 116445636.157 8  90736922.423 7  22158866.664                    22158876.844
 113794479.438 8  88671047.42645  21654366.406                    21654374.730
 105489427.341 8  82199579.22646  20073969.055                    20073977.742
 120119447.976 7  93599616.01244  22857966.906                    22857977.332
 114956334.754 8  89576393.21546  21875459.938                    21875468.457
 108530282.002 8  84569064.274 7  20652628.891                    20652637.324
 125780524.908 6  98010802.818 6  23935234.758                    23935248.039
 11  8 12 19 37  0.0000000  0  8G24G17G11G08G26G28G07G01
 115690164.177 8  90148262.34245  22015103.586                    22015114.109
 116373992.587 8  90681096.313 7  22145233.539                    22145243.598
 113819629.902 8  88690645.20145  21659152.203                    21659160.754
 105470844.368 8  82185098.97046  20070432.703                    20070441.453
 120092784.341 7  93578839.15344  22852892.680                    22852903.457
 114933217.975 8  89558380.14845  21871061.688                    21871069.910
 108572516.641 8  84601974.339 7  20660666.063                    20660674.422
 125822233.838 6  98043303.272 6  23943172.055                    23943184.953
 11  8 12 19 37 30.0000000  0  8G24G17G11G08G26G28G07G01
 115667633.832 8  90130706.26245  22010816.203                    22010826.457
 116302685.752 8  90625532.585 7  22131664.438                    22131674.504
 113845355.450 8  88710691.08845  21664047.813                    21664056.125
 105452753.970 8  82171002.53546  20066990.430                    20066998.848
 120066723.779 7  93558532.21944  22847933.789                    22847944.051
 114910138.623 8  89540396.24746  21866669.289                    21866677.258
 108615236.144 8  84635262.211 7  20668795.375                    20668804.113
 125864429.123 6  98076182.706 6  23951200.844                    23951213.895
 11  8 12 19 38  0.0000000  0  8G24G17G11G08G26G28G07G01
 115645618.733 7  90113551.67445  22006626.891                    22006637.520
 116231716.490 8  90570231.905 7  22118159.602                    22118169.555
 113871655.212 8  88731184.40845  21669052.445                    21669060.895
 105435157.842 8  82157291.26146  20063641.844                    20063650.969
 120041266.652 6  93538695.49944  22843089.195                    22843100.000
 114887095.936 8  89522440.91046  21862284.266                    21862292.781
 108658440.482 8  84668927.891 7  20677016.656                    20677025.277
 125907109.768 7  98109440.316 6  23959323.648                    23959336.063
 11  8 12 19 38 30.0000000  0  8G24G17G11G08G26G28G07G01
 115624120.923 7  90096800.15945  22002535.664                    22002546.160
 116161086.362 8  90515195.482 7  22104718.711                    22104729.211
 113898529.138 7  88752125.12345  21674166.031                    21674174.152
 105418058.594 8  82143967.16146  20060388.008                    20060396.898
 120016413.688 7  93519329.55244  22838359.461                    22838370.438
 114864090.400 8  89504514.53046  21857906.523                    21857915.063
 108702129.503 8  84702971.234 7  20685330.703                    20685339.422
 125950274.965 6  98143075.524 6  23967537.609                    23967550.457
 11  8 12 19 39  0.0000000  0  8G24G17G11G08G26G28G07G01
 115603141.094 7  90080452.27345  21998543.406                    21998553.668
 116090795.076 8  90460423.102 7  22091342.555                    22091352.520
 113925975.786 7  88773512.11845  21679389.258                    21679397.652
 105401456.691 8  82131030.60846  20057228.883                    20057237.289
 119992164.842 7  93500434.35144  22833746.180                    22833755.891
 114841121.233 8  89486616.48246  21853535.516                    21853543.813
 108746302.138 8  84737391.419 7  20693737.078                    20693745.266
 125993923.104 6  98177087.044 6  23975843.492                    23975855.754
 11  8 12 19 39 30.0000000  0  8G24G17G11G08G26G28G07G01
 115582681.276 7  90064509.59345  21994650.430                    21994660.742
 116020843.928 8  90405915.752 7  22078031.273                    22078041.273
 113953994.723 7  88795345.05145  21684720.695                    21684729.211
 105385354.418 8  82118483.37646  20054164.648                    20054173.457
 119968520.579 7  93482010.24044  22829246.055                    22829256.742
 114818188.240 8  89468746.61746  21849172.063                    21849180.211
 108790958.665 8  84772188.669 7  20702234.641                    20702243.113
 126038053.196 6  98211474.093 7  23984241.164                    23984254.461
 11  8 12 19 40  0.0000000  0  8G24G17G11G08G26G28G07G01
 115562742.707 7  90048973.07945  21990855.969                    21990866.707
 115951233.744 8  90351674.094 7  22064784.891                    22064795.195
 113982584.935 8  88817623.13745  21690161.461                    21690169.727
 105369753.161 8  82106326.53446  20051195.953                    20051204.609
 119945481.027 7  93464057.33944  22824861.398                    22824872.648
 114795290.742 8  89450904.42446  21844814.695                    21844822.809
 108836098.440 8  84807362.474 7  20710824.266                    20710832.734
 126082663.870 6  98246235.642 7  23992730.156                    23992742.922
 11  8 12 19 40 30.0000000  0  8G24G17G11G08G26G28G07G01
 115543327.509 7  90033844.36945  21987161.523                    21987171.879
 115881965.853 8  90297699.159 7  22051603.773                    22051613.332
 114011746.487 7  88840346.43345  21695711.000                    21695718.773
 105354656.047 8  82094562.55346  20048323.109                    20048331.805
 119923047.305 7  93446576.51444  22820592.789                    22820603.863
 114772429.588 8  89433090.53746  21840464.367                    21840472.168
 108881721.799 8  84842913.096 7  20719506.430                    20719514.672
 126127754.791 6  98281371.413 6  24001310.359                    24001323.570
 11  8 12 19 41  0.0000000  0  8G24G17G11G08G26G28G07G01
 115524437.365 7  90019124.79645  21983566.813                    21983577.094
 115813041.467 8  90243991.882 7  22038487.703                    22038497.586
 114041478.654 7  88863514.34345  21701368.648                    21701376.605
 105340064.928 8  82083192.83846  20045546.656                    20045555.207
 119901219.821 7  93429568.08444  22816439.469                    22816449.586
 114749604.619 8  89415304.85345  21836120.914                    21836129.020
 108927828.379 8  84878840.252 7  20728279.641                    20728288.785
 126173325.036 6  98316880.666 6  24009981.930                    24009994.879
 11  8 12 19 41 30.0000000  0  8G24G17G11G08G26G28G07G01
 115506073.428 8  90004815.25945  21980072.328                    21980082.730
 115744460.960 8  90190552.565 7  22025437.211                    22025447.051
 114071780.468 8  88887126.14445  21707135.070                    21707143.188
 105325980.816 8  82072218.21246  20042866.508                    20042875.258
 119879998.252 7  93413031.78744  22812401.039                    22812411.887
 114726815.265 8  89397546.91646  21831784.055                    21831792.238
 108974417.444 8  84915143.371 7  20737145.469                    20737154.531
 126219372.869 7  98352762.070 7  24018744.719                    24018758.090
 11  8 12 19 42  0.0000000  0  8G24G17G11G08G26G28G07G01
 115488236.403 7  89990916.29045  21976677.992                    21976688.332
 115676224.214 8  90137381.120 7  22012452.516                    22012462.063
 114102650.292 7  88911180.54945  21713008.922                    21713017.219
 105312404.259 8  82061639.07246  20040282.984                    20040291.406
 119859382.123 7  93396967.26744  22808478.375                    22808488.117
 114704060.275 8  89379815.75946  21827454.086                    21827462.063
 109021487.695 8  84951821.441 7  20746102.742                    20746111.316
 126265896.059 6  98389013.861 6  24027598.969                    24027611.348
 11  8 12 19 42 30.0000000  0  8G24G17G11G08G26G28G07G01
 115470928.410 8  89977429.56645  21973384.039                    21973395.152
 115608333.083 8  90084478.986 7  21999532.914                    21999542.551
 114134088.115 8  88935677.53945  21718992.117                    21719000.145
 105299338.375 8  82051457.86046  20037796.477                    20037804.992
 119839372.705 7  93381375.49944  22804669.969                    22804680.711
 114681340.363 8  89362111.92846  21823130.305                    21823139.406
 109069039.436 8  84988874.701 7  20755152.039                    20755160.695
 126312894.652 6  98425636.138 7  24036542.156                    24036554.977
 11  8 12 19 43  0.0000000  0  8G24G17G11G08G26G28G07G01
 115454150.884 8  89964356.16345  21970191.523                    21970202.113
 115540788.315 8  90031846.751 7  21986679.656                    21986689.293
 114166092.893 8  88960616.32045  21725082.203                    21725090.238
 105286784.877 8  82041675.91046  20035407.789                    20035416.336
 119819970.095 7  93366256.57744  22800978.469                    22800988.426
 114658655.608 8  89344435.49846  21818813.445                    21818821.781
 109117072.560 8  85026303.066 7  20764291.922                    20764300.813
 126360367.562 6  98462627.971 7  24045575.773                    24045588.832
 11  8 12 19 43 30.0000000  0  8G24G17G11G08G26G28G07G01
 115437905.416 7  89951697.37945  21967100.063                    21967110.559
 115473590.780 8  89979485.087 7  21973892.211                    21973902.371
 114198664.042 7  88985996.42645  21731280.141                    21731288.117
 105274745.830 8  82032294.82246  20033116.578                    20033125.477
 119801174.803 7  93351610.91144  22797401.797                    22797412.281
 114636005.916 8  89326786.38446  21814503.633                    21814512.063
 109165586.688 8  85064106.232 7  20773523.852                    20773532.742
 126408313.269 6  98499988.269 7  24054699.117                    24054711.777
 11  8 12 19 44  0.0000000  0  8G24G17G11G08G26G28G07G01
 115422192.976 7  89939453.93045  21964110.445                    21964120.625
 115406741.147 8  89927394.512 7  21961171.313                    21961180.859
 114231800.437 8  89011816.98745  21737585.594                    21737593.988
 105263222.294 8  82023315.43746  20030923.688                    20030932.367
 119782986.398 7  93337438.12744  22793940.016                    22793950.719
 114613390.578 8  89309164.04646  21810200.164                    21810208.359
 109214581.048 8  85102283.614 7  20782847.672                    20782856.578
 126456730.350 6  98537715.833 6  24063913.164                    24063925.930
 11  8 12 19 44 30.0000000  0  8G24G17G11G08G26G28G07G01
 115407015.327 8  89927627.19945  21961221.805                    21961232.324
 115340240.217 8  89875575.667 7  21948516.523                    21948525.848
 114265501.098 7  89038077.23445  21743998.648                    21744006.852
 105252216.185 8  82014739.23446  20028829.391                    20028838.047
 119765405.205 7  93323738.48744  22790594.633                    22790604.988
 114590810.113 8  89291568.88646  21805903.414                    21805911.613
 109264055.194 8  85140834.851 7  20792262.273                    20792271.250
 126505617.778 6  98575809.932 7  24073215.703                    24073229.191
 11  8 12 19 45  0.0000000  0  8G24G17G11G08G26G28G07G01
 115392373.948 7  89916218.34945  21958435.563                    21958446.195
 115274088.915 7  89824029.267 7  21935928.250                    21935937.906
 114299765.386 7  89064776.67345  21750519.125                    21750527.000
 105241729.465 8  82006567.74746  20026833.820                    20026842.730
 119748431.486 7  93310512.21344  22787364.570                    22787375.266
 114568264.255 8  89274000.69146  21801612.586                    21801621.281
 109314008.635 8  85179759.572 7  20801767.852                    20801776.801
 126554974.543 6  98614269.736 6  24082608.766                    24082620.922
 11  8 12 19 45 30.0000000  0  8G24G17G11G08G26G28G07G01
 115378269.609 7  89905227.96845  21955751.953                    21955762.434
 115208287.932 7  89772755.837 7  21923406.961                    21923416.594
 114334592.156 7  89091914.40745  21757146.570                    21757154.621
 105231763.283 8  81998801.87946  20024937.555                    20024946.289
 119732064.992 6  93297759.09344  22784250.305                    22784261.148
 114545752.564 8  89256459.12046  21797328.773                    21797337.254
 109364440.773 8  85219057.300 7  20811365.070                    20811373.777
 126604798.961 6  98653093.939 6  24092089.367                    24092101.910
 11  8 12 19 46  0.0000000  0  8G24G17G11G08G26G28G07G01
 115364703.667 7  89894657.12345  21953170.563                    21953180.453
 115142837.792 8  89721755.777 7  21910951.820                    21910961.836
 114369980.533 7  89119489.75245  21763880.930                    21763888.852
 105222319.548 8  81991443.10646  20023140.266                    20023149.551
 119716305.993 7  93285479.34444  22781251.586                    22781261.965
 114523274.888 8  89238944.05946  21793051.375                    21793059.617
 109415350.920 8  85258727.499 7  20821052.984                    20821061.352
 126655089.438 6  98692281.307 6  24101659.336                    24101672.055
 11  8 12 19 46 30.0000000  0  8G24G17G11G08G26G28G07G01
 115351677.081 7  89884506.55645  21950691.367                    21950701.672
 115077738.856 7  89671029.403 7  21898563.844                    21898573.793
 114405929.023 7  89147501.54745  21770721.422                    21770729.219
 105213399.107 8  81984492.09046  20021442.734                    20021451.414
 119701153.974 7  93273672.56144  22778368.203                    22778378.457
 114500831.043 8  89221455.35446  21788780.563                    21788788.609
 109466738.668 8  85298769.863 7  20830831.656                    20830840.293
 126705844.821 6  98731830.934 6  24111318.250                    24111330.141
 11  8 12 19 47  0.0000000  0  8G24G17G11G08G26G28G07G01
 115339191.943 8  89874777.89645  21948315.445                    21948325.953
 115012993.073 7  89620578.211 7  21886243.539                    21886253.102
 114442437.635 8  89175949.80145  21777668.609                    21777677.039
 105205005.201 8  81977951.36446  20019845.461                    20019854.297
 119686609.879 7  93262339.47944  22775599.664                    22775610.434
 114478421.750 8  89203993.58746  21784516.250                    21784524.453
 109518603.887 8  85339184.281 7  20840701.102                    20840710.094
 126757064.129 6  98771742.060 6  24121064.734                    24121077.426
 11  8 12 19 47 30.0000000  0  8G24G17G11G08G26G28G07G01
 115327249.257 7  89865471.93145  21946043.031                    21946053.395
 114948600.667 7  89570402.365 7  21873989.477                    21873999.625
 114479504.863 8  89204833.34045  21784722.930                    21784730.563
 105197138.772 8  81971821.65946  20018348.617                    20018357.434
 119672673.340 7  93251479.81144  22772948.383                    22772958.977
 114456046.566 8  89186558.39446  21780258.586                    21780266.410
 109570945.731 8  85379970.083 7  20850661.336                    20850669.988
 126808746.084 6  98812013.689 6  24130899.695                    24130912.121
 11  8 12 19 48  0.0000000  0  8G24G17G11G08G26G28G07G01
 115315849.670 7  89856589.15745  21943873.516                    21943883.887
 114884561.525 7  89520501.802 7  21861802.992                    21861813.258
 114517129.032 8  89234150.85945  21791882.141                    21791890.480
 105189800.516 8  81966103.51746  20016951.961                    20016960.883
 119659343.782 7  93241093.12844  22770412.055                    22770422.547
 114433704.862 8  89169149.28846  21776007.250                    21776015.344
 109623763.007 8  85421126.363 7  20860712.492                    20860720.773
 126860888.395 6  98852644.057 6  24140822.016                    24140834.543
 11  8 12 19 48 30.0000000  0  8G24G17G11G08G26G28G07G01
 115304994.629 7  89848130.70245  21941808.063                    21941818.758
 114820876.933 7  89470877.500 7  21849684.750                    21849694.273
 114555309.236 8  89263901.65745  21799147.391                    21799155.512
 105182992.287 8  81960798.38246  20015656.664                    20015665.457
 119646621.231 7  93231179.44544  22767990.641                    22768001.313
 114411396.684 8  89151766.30746  21771761.977                    21771770.070
 109677055.353 8  85462652.824 7  20870853.516                    20870862.453
 126913490.129 6  98893632.414 6  24150831.664                    24150844.113
 11  8 12 19 49  0.0000000  0  8G24G17G11G08G26G28G07G01
 115294685.434 8  89840097.58945  21939846.453                    21939856.461
 114757547.604 7  89421530.030 7  21837633.352                    21837642.730
 114594044.759 7  89294085.16345  21806518.188                    21806526.629
 105176716.040 8  81955907.78246  20014462.266                    20014471.160
 119634505.765 7  93221738.79444  22765685.578                    22765695.906
 114389122.260 8  89134409.62746  21767523.078                    21767531.293
 109730822.116 8  85504548.960 7  20881085.219                    20881094.059
 126966550.262 6  98934977.969 6  24160928.695                    24160941.012
 11  8 12 19 49 30.0000000  0  8G24G17G11G08G26G28G07G01
 115284922.798 7  89832490.36645  21937988.188                    21937998.762
 114694573.681 7  89372459.487 7  21825649.883                    21825659.301
 114633334.101 7  89324700.21045  21813995.328                    21814003.102
 105170972.668 8  81951432.41246  20013369.492                    20013378.434
 119622996.970 7  93212770.89544  22763495.328                    22763505.961
 114366881.399 8  89117079.10346  21763290.813                    21763298.980
 109785062.434 8  85546814.095 7  20891406.625                    20891415.770
 127020066.696 6  98976679.063 6  24171112.219                    24171125.230
 11  8 12 19 50  0.0000000  0  8G24G17G11G08G26G28G07G01
 115275707.582 7  89825309.70045  21936234.961                    21936245.262
 114631955.648 7  89323666.269 7  21813734.109                    21813743.301
 114673176.177 7  89355745.97345  21821577.055                    21821585.270
 105165763.610 8  81947373.37646  20012378.344                    20012386.750
 119612094.865 7  93204275.72844  22761420.969                    22761431.215
 114344674.019 8  89099774.66446  21759064.742                    21759073.102
 109839775.640 8  85589447.721 7  20901818.203                    20901827.340
 127074038.103 6  99018734.688 6  24181382.953                    24181395.285
 11  8 12 19 50 30.0000000  0  8G24G17G11G08G26G28G07G01
 115267041.283 8  89818556.76845  21934585.852                    21934596.207
 114569694.693 7  89275151.289 7  21801885.719                    21801895.402
 114713569.956 8  89387221.63845  21829263.758                    21829271.758
 105161090.660 8  81943732.10446  20011488.648                    20011497.570
 119601799.033 7  93196252.99844  22759461.625                    22759472.215
 114322499.997 8  89082496.22246  21754845.188                    21754852.918
 109894961.086 8  85632449.318 7  20912319.695                    20912328.559
 127128463.302 6  99061143.931 6  24191739.609                    24191752.063
 11  8 12 19 51  0.0000000  0  8G24G17G11G08G26G28G07G01
 115258924.871 7  89812232.32245  21933041.156                    21933051.547
 114507791.425 7  89226915.025 7  21790106.016                    21790115.871
 114754514.179 7  89419126.20545  21837055.148                    21837063.313
 105156955.314 8  81940509.73646  20010701.945                    20010710.789
 119592109.318 7  93188702.56444  22757617.836                    22757627.895
 114300359.553 8  89065243.93646  21750631.891                    21750640.246
 109950618.475 8  85675818.666 7  20922911.477                    20922920.313
 127183340.564 6  99103905.409 6  24202182.227                    24202195.078
 11  8 12 19 51 30.0000000  0  8G24G17G11G08G26G28G07G01
 115251359.444 7  89806337.21045  21931601.633                    21931611.781
 114446246.279 7  89178957.826 7  21778394.516                    21778403.969
 114796007.555 8  89451458.68845  21844950.781                    21844959.340
 105153359.023 8  81937707.42146  20010017.648                    20010026.496
 119583025.702 7  93181624.40444  22755889.461                    22755899.965
 114278252.769 8  89048017.87546  21746425.367                    21746433.535
 110006746.490 8  85719554.730 7  20933591.984                    20933601.145
 127238668.639 6  99147018.164 6  24212711.516                    24212723.883
 11  8 12 19 52  0.0000000  0  8G24G17G11G08G26G28G07G01
 115244346.003 7  89800872.21845  21930266.453                    21930276.887
 114385060.067 7  89131280.306 7  21766750.695                    21766760.520
 114838048.910 8  89484218.16645  21852951.766                    21852959.770
 105150303.078 8  81935326.15446  20009436.320                    20009445.078
 119574547.498 7  93175018.01844  22754275.633                    22754286.871
 114256179.443 8  89030817.90646  21742224.602                    21742233.148
 110063344.382 8  85763656.940 7  20944362.188                    20944371.133
 127294446.044 6  99190481.045 6  24223325.516                    24223337.629
 11  8 12 19 52 30.0000000  0  8G24G17G11G08G26G28G07G01
 115237885.039 7  89795837.73145  21929037.297                    21929047.676
 114324232.919 7  89083882.585 7  21755176.141                    21755185.504
 114880636.494 8  89517403.28045  21861055.227                    21861063.730
 105147788.483 8  81933366.71846  20008957.922                    20008966.559
 119566674.422 7  93168883.14944  22752777.828                    22752788.035
 114234139.175 8  89013643.68246  21738031.086                    21738039.094
 110120411.287 8  85808124.601 7  20955221.977                    20955230.742
 127350670.693 6  99234292.439 6  24234024.508                    24234036.496
 11  8 12 19 53  0.0000000  0  8G24G17G11G08G26G28G07G01
 115231978.140 7  89791234.97345  21927913.656                    21927923.586
 114263766.205 7  89036765.712 7  21743669.742                    21743678.953
 114923769.662 8  89551013.52445  21869263.602                    21869271.762
 105145817.441 8  81931830.83646  20008582.734                    20008591.133
 119559406.431 7  93163219.77544  22751394.313                    22751404.953
 114212132.841 8  88996495.89646  21733842.703                    21733851.039
 110177946.934 7  85852957.517 7  20966170.414                    20966179.375
 127407341.536 6  99278451.498 6  24244808.414                    24244820.902
 11  8 12 19 53 30.0000000  0  8G24G17G11G08G26G28G07G01
 115226625.625 7  89787064.21245  21926894.336                    21926905.105
 114203659.102 7  88989929.070 7  21732231.227                    21732241.027
 114967446.707 8  89585047.57345  21877574.836                    21877583.020
 105144390.317 8  81930718.79046  20008311.023                    20008320.066
 119552742.481 7  93158027.07544  22750126.328                    22750137.066
 114190159.372 8  88979373.73446  21729661.719                    21729669.813
 110235949.733 7  85898154.454 7  20977208.359                    20977216.680
 127464456.520 6  99322956.650 6  24255677.586                    24255690.113
 11  8 12 19 54  0.0000000  0  8G24G17G11G08G26G28G07G01
 115221828.809 7  89783326.45045  21925982.094                    21925992.223
 114143912.810 7  88943373.572 7  21720862.047                    21720871.813
 115011666.371 8  89619504.43745  21885989.703                    21885997.969
 105143508.883 7  81930031.95146  20008143.500                    20008152.039
 119546682.562 7  93153305.05744  22748973.000                    22748983.848
 114168219.465 8  88962277.72146  21725486.617                    21725495.109
 110294419.074 7  85943714.923 7  20988334.516                    20988343.379
 127522014.175 6  99367806.738 6  24266630.148                    24266642.883
 11  8 12 19 54 30.0000000  0  8G24G17G11G08G26G28G07G01
 115217588.342 7  89780022.21845  21925174.844                    21925184.867
 114084527.934 8  88897099.684 7  21709561.750                    21709571.273
 115056427.328 8  89654383.09145  21894507.219                    21894515.918
 105143174.265 8  81929771.20546  20008079.992                    20008088.520
 119541226.251 7  93149053.36544  22747934.844                    22747945.121
 114146313.405 8  88945208.08146  21721317.961                    21721325.957
 110353354.257 8  85989638.389 7  20999549.367                    20999558.410
 127580013.117 6  99413000.693 6  24277666.930                    24277679.645
 11  8 12 19 55  0.0000000  0  8G24G17G11G08G26G28G07G01
 115213905.442 7  89777152.45145  21924474.313                    21924484.305
 114025505.213 8  88851108.015 7  21698330.023                    21698339.676
 115101728.398 8  89689682.60445  21903128.133                    21903135.977
 105143388.391 8  81929938.05246  20008120.391                    20008129.074
 119536373.372 7  93145271.88944  22747011.469                    22747022.328
 114124441.564 8  88928165.10546  21717155.938                    21717164.094
 110412754.643 7  86035924.340 7  21010853.063                    21010862.082
 127638452.205 6  99458537.602 6  24288787.172                    24288800.742
 11  8 12 19 55 30.0000000  0  8G24G17G11G08G26G28G07G01
 115210780.054 7  89774717.10345  21923879.258                    21923889.473
 113966844.832 7  88805398.674 7  21687167.133                    21687176.438
 115147567.769 8  89725401.58245  21911850.977                    21911859.262
 105144151.445 8  81930532.62746  20008265.344                    20008274.523
 119532122.634 7  93141959.63644  22746202.117                    22746213.195
 114102602.875 8  88911147.96446  21713000.313                    21713008.371
 110472618.621 8  86082571.542 7  21022244.438                    21022254.008
 127697328.864 6  99504415.497 6  24299991.781                    24300004.453
 11  8 12 19 56  0.0000000  0  8G24G17G11G08G26G28G07G01
 115208213.301 7  89772717.05845  21923391.297                    21923400.980
 113908547.028 7  88759971.864 7  21676073.594                    21676083.012
 115193944.002 8  89761538.89645  21920676.023                    21920684.520
 105145465.006 8  81931556.17246  20008515.789                    20008524.203
 119528473.942 7  93139116.49444  22745508.234                    22745519.238
 114080797.623 8  88894156.88346  21708850.617                    21708858.867
 110532945.341 7  86129579.320 7  21033724.523                    21033733.555
 127756641.420 6  99550633.042 6  24311277.875                    24311291.023
 11  8 12 19 56 30.0000000  0  8G24G17G11G08G26G28G07G01
 115206206.753 7  89771153.52845  21923009.414                    21923019.352
 113850612.760 7  88714828.331 7  21665048.523                    21665058.359
 115240856.248 8  89798093.88245  21929602.969                    21929611.652
 105147331.162 8  81933010.31246  20008870.844                    20008879.297
 119525427.032 7  93136742.26744  22744928.727                    22744939.180
 114059026.799 8  88877192.62746  21704708.094                    21704716.137
 110593734.723 7  86176947.618 7  21045292.594                    21045301.605
 127816389.405 6  99597189.875 6  24322647.469                    24322660.859
 11  8 12 19 57  0.0000000  0  8G24G17G11G08G26G28G07G01
 115204760.226 7  89770026.38445  21922733.813                    21922743.832
 113793041.791 7  88669967.898 7  21654093.180                    21654102.938
 115288302.344 8  89835064.86445  21938631.563                    21938639.691
 105149749.907 8  81934895.03846  20009330.992                    20009340.184
 119522980.751 7  93134836.07344  22744463.438                    22744473.246
 114037289.694 8  88860254.64446  21700571.242                    21700579.348
 110654984.935 8  86224675.007 7  21056948.438                    21056957.137
 127876570.086 6  99644083.886 7  24334099.430                    24334113.168
 11  8 12 19 57 30.0000000  0  8G24G17G11G08G26G28G07G01
 115203874.476 7  89769336.20545  21922565.047                    21922575.656
 113735834.865 7  88625391.132 7  21643207.016                    21643216.699
 115336280.924 8  89872450.74945  21947761.883                    21947770.555
 105152722.513 8  81937211.34346  20009896.836                    20009905.680
 119521134.451 7  93133397.37944  22744111.828                    22744122.441
 114015586.220 8  88843342.86846  21696441.531                    21696449.492
 110716694.876 7  86272760.630 7  21068691.141                    21068700.305
 127937181.663 5  99691313.667 6  24345633.484                    24345647.090
 11  8 12 19 58  0.0000000  0  8G24G17G11G08G26G28G07G01
 115203550.463 7  89769083.73945  21922503.219                    21922514.039
 113678992.679 7  88581098.566 7  21632390.219                    21632399.859
 115384790.739 8  89910250.59545  21956992.828                    21957001.211
 105156250.846 8  81939960.68346  20010568.242                    20010576.926
 119519888.046 7  93132426.13744  22743874.320                    22743884.813
 113993916.975 8  88826457.76546  21692317.977                    21692325.727
 110778864.095 7  86321204.119 7  21080521.570                    21080530.602
 127998223.102 6  99738878.390 7  24357249.367                    24357262.484
 11  8 12 19 58 30.0000000  0  8G24G17G11G08G26G28G07G01
 115203789.051 7  89769269.66345  21922548.523                    21922559.199
 113622515.589 8  88537090.505 7  21621642.766                    21621652.445
 115433830.325 8  89948463.24945  21966324.758                    21966332.957
 105160336.082 8  81943143.98046  20011345.352                    20011354.277
 119519240.703 7  93131921.70844  22743751.508                    22743761.930
 113972281.918 8  88809599.29846  21688200.852                    21688209.051
 110841491.513 8  86370004.653 7  21092439.242                    21092448.250
 128059692.794 6  99786776.813 6  24368947.313                    24368959.633
 11  8 12 19 59  0.0000000  0  8G24G17G11G08G26G28G07G01
 115204590.267 7  89769894.00145  21922701.570                    21922711.613
 113566403.602 7  88493366.937 7  21610965.367                    21610974.945
 115483397.844 8  89987087.28145  21975757.180                    21975765.699
 105164978.580 8  81946761.50446  20012229.039                    20012237.836
 119519191.421 7  93131883.29944  22743742.219                    22743752.574
 113950680.972 8  88792767.41346  21684090.297                    21684098.055
 110904575.712 8  86419161.130 7  21104443.953                    21104453.070
 128121588.076 6  99835006.893 6  24380725.273                    24380738.086
 11  8 12 19 59 30.0000000  0  8G24G17G11G08G26G28G07G01
 115205955.258 7  89770957.64245  21922961.156                    21922970.934
 113510657.428 7  88449928.412 7  21600357.102                    21600366.699
 115533492.124 8  90026121.77945  21985289.984                    21985298.313
 105170179.928 8  81950814.49546  20013218.914                    20013228.023
 119519739.791 7  93132310.57944  22743846.656                    22743856.688
 113929115.063 8  88775962.83546  21679986.602                    21679994.371
 110968116.010 7  86468673.002 7  21116535.133                    21116544.301
 128183907.892 6  99883567.761 6  24392584.508                    24392597.934
 11  8 12 20  0  0.0000000  0  8G24G17G11G08G26G28G07G01
 115207884.199 7  89772460.72245  21923328.227                    21923338.766
 113455277.037 7  88406774.927 7  21589818.625                    21589827.746
 115584111.130 8  90065565.16045  21994922.469                    21994930.539
 105175940.668 8  81955303.37346  20014314.828                    20014323.750
 119520884.616 7  93133202.62644  22744064.305                    22744074.566
 113907583.360 8  88759184.90046  21675888.953                    21675897.320
 111032111.011 7  86518539.189 7  21128712.891                    21128722.477
 128246649.898 6  99932457.612 6  24404525.023                    24404537.055
 11  8 12 20  0 30.0000000  0  8G24G17G11G08G26G28G07G01
 115210377.353 7  89774403.45245  21923802.766                    21923812.797
 113400262.431 7  88363906.457 7  21579349.750                    21579359.191
 115635252.834 7  90105415.83645  22004654.086                    22004662.559
 105182261.280 8  81960228.51846  20015517.641                    20015526.801
 119522624.742 7  93134558.56344  22744395.438                    22744406.371
 113886085.587 8  88742433.39946  21671798.289                    21671806.105
 111096559.214 8  86568758.513 7  21140977.039                    21140986.414
 128309812.434 6  99981675.130 6  24416543.563                    24416556.676
 11  8 12 20  1  0.0000000  0  8G24G17G11G08G26G28G07G01
 115213435.890 7  89776786.73245  21924384.773                    21924394.793
 113345614.545 7  88321323.747 7  21568950.313                    21568959.828
 115686916.291 8  90145673.07045  22014485.586                    22014494.098
 105189143.712 8  81965591.44046  20016827.477                    20016836.707
 119524960.095 7  93136378.29944  22744839.508                    22744850.629
 113864623.065 7  88725709.37346  21667714.141                    21667722.387
 111161459.975 7  86619330.489 7  21153327.180                    21153336.500
 128373393.911 6 100031219.113 6  24428642.797                    24428655.445
 11  8 12 20  1 30.0000000  0  8G24G17G11G08G26G28G07G01
 115217060.292 7  89779610.93445  21925074.523                    21925084.488
 113291333.977 7  88279027.247 7  21558620.961                    21558630.230
 115739099.707 8  90186335.47645  22024415.688                    22024424.063
 105196588.927 8  81971392.89746  20018244.430                    20018253.336
 119527889.894 7  93138661.24444  22745397.438                    22745407.977
 113843195.945 8  88709012.92946  21663636.602                    21663644.543
 111226812.424 7  86670254.426 7  21165763.586                    21165772.918
 128437392.733 6 100081088.294 6  24440821.148                    24440834.043
 11  8 12 20  2  0.0000000  0  8G24G17G11G08G26G28G07G01
 115221250.545 7  89782876.07545  21925871.711                    21925881.887
 113237420.353 7  88237016.677 7  21548361.719                    21548371.313
 115791801.548 8  90227401.84345  22034444.445                    22034453.020
 105204597.582 8  81977633.39546  20019768.086                    20019776.988
 119531412.942 7  93141406.47045  22746067.578                    22746078.000
 113821803.691 8  88692343.65046  21659565.695                    21659573.383
 111292614.820 7  86721528.969 7  21178285.625                    21178294.371
 128501806.746 6 100131281.009 6  24453078.805                    24453091.641
 11  8 12 20  2 30.0000000  0  8G24G17G11G08G26G28G07G01
 115226007.493 7  89786582.78145  21926777.109                    21926787.512
 113183874.614 7  88195292.768 7  21538172.445                    21538181.418
 115845020.370 7  90268871.05645  22044571.695                    22044580.074
 105213171.285 8  81984314.19146  20021399.578                    20021408.695
 119535528.761 7  93144613.58444  22746851.375                    22746861.000
 113800447.202 7  88675702.24346  21655501.789                    21655509.859
 111358866.754 7  86773153.801 7  21190892.586                    21190902.191
 128566634.395 6 100181796.016 6  24465414.820                    24465427.566
 11  8 12 20  3  0.0000000  0  8G24G17G11G08G26G28G07G01
 115231330.950 7  89790730.93845  21927789.727                    21927799.715
 113130696.737 7  88153855.503 7  21528052.875                    21528061.996
 115898753.732 7  90310741.21745  22054796.586                    22054805.305
 105222309.918 8  81991435.20346  20023138.641                    20023147.582
 119540235.836 7  93148281.43544  22747746.617                    22747757.156
 113779125.812 7  88659088.18546  21651444.289                    21651452.711
 111425566.457 7  86825127.542 7  21203585.820                    21203594.363
 128631873.514 6 100232631.661 6  24477829.016                    24477842.813
 11  8 12 20  3 30.0000000  0  8G24G17G11G08G26G28G07G01
 115237221.905 7  89795321.29445  21928910.828                    21928921.434
 113077886.996 7  88112705.092 7  21518003.398                    21518012.555
 115953000.392 8  90353011.33745  22065119.656                    22065127.883
 105232014.916 8  81998997.52446  20024985.711                    20024994.613
 119545533.548 7  93152409.51244  22748754.680                    22748765.453
 113757840.474 8  88642502.22046  21647393.750                    21647401.973
 111492712.857 7  86877449.362 7  21216362.703                    21216372.230
 128697522.658 6 100283786.805 6  24490321.797                    24490335.492
 11  8 12 20  4  0.0000000  0  8G24G17G11G08G26G28G07G01
 115243681.172 7  89800354.48245  21930140.227                    21930150.137
 113025445.845 8  88071841.898 7  21508023.844                    21508033.297
 116007759.081 7  90395680.44945  22075539.914                    22075548.383
 105242287.960 8  82007002.48146  20026940.359                    20026949.637
 119551421.438 7  93156997.45844  22749875.336                    22749885.719
 113736591.808 8  88625944.83146  21643350.172                    21643358.582
 111560305.236 8  86930118.689 7  21229225.313                    21229234.680
 128763580.041 6 100335260.089 6  24502892.688                    24502905.328
 11  8 12 20  4 30.0000000  0  8G24G17G11G08G26G28G07G01
 115250708.546 7  89805830.34245  21931476.992                    21931487.668
 112973373.343 8  88031265.957 7  21498114.992                    21498124.152
 116063027.419 7  90438746.67645  22086056.688                    22086065.402
 105253129.103 8  82015450.11246  20029003.516                    20029012.363
 119557897.890 7  93162044.03744  22751108.039                    22751118.449
 113715379.219 8  88609415.56246  21639313.797                    21639321.992
 111628341.957 7  86983134.256 7  21242172.766                    21242182.316
 128830043.404 6 100387049.684 6  24515540.844                    24515552.965
 11  8 12 20  5  0.0000000  0  8G24G17G11G08G26G28G07G01
 115258304.514 7  89811749.27045  21932923.156                    21932932.832
 112921669.477 8  87990977.258 7  21488276.328                    21488285.281
 116118803.752 7  90482208.74945  22096671.125                    22096679.539
 105264539.101 8  82024341.00446  20031175.039                    20031183.711
 119564961.810 7  93167548.37644  22752451.703                    22752462.766
 113694203.293 8  88592914.85546  21635284.188                    21635292.605
 111696821.704 8  87036495.051 7  21255203.641                    21255212.633
 128896911.042 6 100439154.324 6  24528264.836                    24528277.660
 11  8 12 20  5 30.0000000  0  8G24G17G11G08G26G28G07G01
 115266468.456 7  89818110.79445  21934476.227                    21934486.504
 112870333.792 8  87950975.468 7  21478507.352                    21478516.918
 116175085.575 7  90526064.71445  22107381.102                    22107389.504
 105276517.741 8  82033674.99946  20033453.945                    20033463.109
 119572611.767 7  93173509.35944  22753907.766                    22753918.082
 113673063.215 8  88576442.08946  21631261.242                    21631268.840
 111765742.478 7  87090199.493 7  21268318.945                    21268328.258
 128964180.081 6 100491571.716 6  24541065.570                    24541078.422
 11  8 12 20  6  0.0000000  0  8G24G17G11G08G26G28G07G01
 115275201.455 8  89824915.72745  21936137.820                    21936148.086
 112819367.473 8  87911261.498 7  21468808.781                    21468818.094
 116231872.167 7  90570313.99145  22118187.273                    22118194.789
 105289066.891 8  82043453.54646  20035842.133                    20035851.203
 119580846.953 7  93179926.38744  22755475.016                    22755485.434
 113651960.246 8  88559998.23646  21627245.680                    21627253.520
 111835103.926 8  87144247.326 7  21281518.164                    21281527.512
 129031849.559 6 100544301.159 6  24553942.703                    24553955.410
 11  8 12 20  6 30.0000000  0  8G24G17G11G08G26G28G07G01
 115284503.601 7  89832164.15745  21937907.984                    21937918.539
 112768770.722 8  87871835.514 7  21459180.516                    21459190.281
 116289161.113 7  90614954.73444  22129088.766                    22129097.180
 105302187.173 8  82053677.12746  20038338.867                    20038348.078
 119589666.507 7  93186798.74444  22757153.148                    22757163.602
 113630894.726 8  88543583.57346  21623236.758                    21623245.102
 111904904.385 8  87198637.241 7  21294800.898                    21294810.102
 129099917.363 6 100597341.010 6  24566895.273                    24566908.543
 11  8 12 20  7  0.0000000  0  8G24G17G11G08G26G28G07G01
 115294375.267 7  89839856.37445  21939786.844                    21939797.074
 112718543.579 8  87832697.521 7  21449622.680                    21449631.668
 116346951.008 7  90659985.80945  22140086.164                    22140094.344
 105315879.614 8  82064346.55446  20040944.641                    20040953.262
 119599069.650 7  93194125.83744  22758942.594                    22758952.801
 113609867.331 8  88527198.61946  21619235.555                    21619243.328
 111975142.916 8  87253368.510 7  21308166.703                    21308176.199
 129168382.04615 100650690.07516  24579923.766                    24579936.695
 11  8 12 20  7 30.0000000  0  8G24G17G11G08G26G28G07G01
 115304816.612 7  89847992.49445  21941773.820                    21941783.965
 112668685.956 8  87793847.469 7  21440134.820                    21440144.090
 116405239.631 7  90705405.51745  22151177.945                    22151186.410
 105330144.598 8  82075462.11346  20043659.227                    20043667.945
 119609054.608 7  93201906.31844  22760842.297                    22760853.113
 113588877.398 8  88510842.84546  21615240.992                    21615249.109
 112045817.792 8  87308439.797 7  21321615.750                    21321625.063
 129237241.06415 100704346.38316  24593026.352                    24593040.258
 11  8 12 20  8  0.0000000  0  8G24G17G11G08G26G28G07G01
 115315827.503 8  89856572.42945  21943869.102                    21943879.207
 112619198.009 8  87755285.476 7  21430717.656                    21430726.883
 116464024.830 7  90751212.16244  22162364.477                    22162372.711
 105344982.425 8  82087024.04146  20046482.656                    20046491.609
 119619620.078 7  93210139.14144  22762853.477                    22762863.801
 113567925.134 7  88494516.42546  21611254.063                    21611261.883
 112116927.556 7  87363849.949 7  21335147.656                    21335156.863
 129306492.046 6 100758308.158 6  24606205.164                    24606218.641
 11  8 12 20  8 30.0000000  0  8G24G17G11G08G26G28G07G01
 115327408.704 7  89865596.76945  21946073.117                    21946082.855
 112570080.709 8  87717012.310 7  21421370.641                    21421379.758
 116523305.822 7  90797405.14645  22173645.109                    22173653.477
 105360394.971 8  82099033.80546  20049415.594                    20049424.344
 119630765.488 7  93218823.88044  22764974.195                    22764984.402
 113547012.011 8  88478220.50546  21607274.211                    21607282.266
 112188471.535 8  87419598.452 7  21348761.969                    21348771.094
 129376134.024 6 100812574.620 6  24619457.977                    24619471.156
 11  8 12 20  9  0.0000000  0  8G24G17G11G08G26G28G07G01
 115339559.544 7  89875064.97645  21948384.648                    21948395.031
 112521332.809 8  87679026.992 7  21412094.320                    21412103.688
 116583079.590 7  90843982.10145  22185020.094                    22185028.313
 105376381.497 8  82111490.83146  20052457.367                    20052466.613
 119642489.167 7  93227959.19644  22767205.016                    22767215.707
 113526137.311 8  88461954.53146  21603302.094                    21603310.070
 112260447.455 8  87475683.543 7  21362458.195                    21362467.750
 129446164.432 6 100867143.713 6  24632784.047                    24632797.000
 11  8 12 20  9 30.0000000  0  8G24G17G11G08G26G28G07G01
 115352279.673 7  89884976.79945  21950805.609                    21950815.465
 112472954.372 7  87641329.567 7  21402888.047                    21402897.234
 116643343.896 7  90890941.31145  22196487.688                    22196496.082
 105392941.994 8  82124395.10346  20055609.117                    20055618.039
 119654789.113 7  93237543.54044  22769545.633                    22769556.645
 113505300.798 7  88445718.31046  21599337.242                    21599344.871
 112332853.824 8  87532104.052 7  21376236.930                    21376245.965
 129516580.392 6 100922013.284 6  24646184.023                    24646197.156
 11  8 12 20 10  0.0000000  0  8G24G17G11G08G26G28G07G01
 115365569.779 7  89895332.74945  21953334.422                    21953344.703
 112424946.054 8  87603920.545 7  21393752.586                    21393761.609
 116704097.498 7  90938281.77645  22208048.859                    22208056.598
 105410078.175 8  82137747.95346  20058870.125                    20058879.094
 119667664.763 7  93247576.51744  22771995.148                    22772006.289
 113484503.680 8  88429512.79146  21595379.305                    21595387.516
 112405689.710 8  87588859.236 7  21390097.063                    21390106.402
 129587380.955 6 100977182.511 6  24659657.148                    24659670.195
 11  8 12 20 10 30.0000000  0  8G24G17G11G08G26G28G07G01
 115379430.298 7  89906133.18845  21955972.016                    21955982.285
 112377308.149 7  87566800.147 7  21384687.281                    21384696.484
 116765338.519 7  90986002.06644  22219702.953                    22219710.934
 105427790.772 8  82151549.96646  20062240.625                    20062249.598
 119681115.044 7  93258057.24044  22774555.375                    22774565.742
 113463746.661 8  88413338.50646  21591429.750                    21591437.391
 112478953.718 8  87645948.040 7  21404038.773                    21404048.313
 129658564.205 6 101032649.981 6  24673202.758                    24673215.785
 11  8 12 20 11  0.0000000  0  8G24G17G11G08G26G28G07G01
 115393861.072 7  89917377.97845  21958718.172                    21958727.953
 112330040.776 8  87529968.479 7  21375692.586                    21375701.789
 116827065.159 7  91034100.74545  22231448.664                    22231457.168
 105446080.314 8  82165801.54646  20065720.867                    20065729.738
 119695138.413 7  93268984.54244  22777223.641                    22777234.121
 113443029.761 8  88397195.49846  21587487.320                    21587495.051
 112552644.347 8  87703369.274 7  21418061.469                    21418071.051
 129730127.896 6 101088413.843 6  24686821.500                    24686833.758
 11  8 12 20 11 30.0000000  0  8G24G17G11G08G26G28G07G01
 115408861.601 7  89929066.74345  21961572.539                    21961582.570
 112283143.358 8  87493425.079 7  21366768.547                    21366777.750
 116889274.603 7  91082575.63145  22243287.078                    22243294.883
 105464946.394 8  82180502.37146  20069311.148                    20069320.207
 119709733.006 7  93280356.92644  22780001.188                    22780011.344
 113422352.639 8  88381083.48046  21583552.539                    21583560.578
 112626759.595 8  87761121.389 7  21432165.453                    21432174.637
 129802069.484 6 101144472.178 6  24700510.891                    24700523.906
 11  8 12 20 12  0.0000000  0  8G24G17G11G08G26G28G07G01
 115424432.379 7  89941199.85045  21964535.781                    21964545.695
 112236616.597 8  87457170.510 7  21357914.281                    21357924.094
 116951965.662 7  91131425.79244  22255216.148                    22255225.113
 105484390.610 8  82195653.69746  20073011.195                    20073019.848
 119724898.138 7  93292173.89644  22782886.867                    22782897.426
 113401716.782 8  88365003.63846  21579625.641                    21579633.215
 112701298.762 8  87819203.815 7  21446349.531                    21446359.109
 129874387.752 6 101200824.034 6  24714272.672                    24714286.031
 11  8 12 20 12 30.0000000  0  8G24G17G11G08G26G28G07G01
 115440572.907 7  89953776.92045  21967607.055                    21967617.082
 112190460.038 7  87421204.407 7  21349131.031                    21349140.145
 117015135.922 7  91180649.36545  22267237.453                    22267245.758
 105504412.475 8  82211255.13446  20076821.469                    20076830.551
 119740631.948 7  93304433.97744  22785881.125                    22785891.680
 113381122.084 8  88348955.84646  21575706.703                    21575714.645
 112776259.755 8  87877614.938 7  21460614.602                    21460623.738
 129947079.677 6 101257467.037 6  24728105.563                    24728118.961
 11  8 12 20 13  0.0000000  0  8G24G17G11G08G26G28G07G01
 115457283.106 7  89966797.88345  21970786.641                    21970796.859
 112144673.721 8  87385526.805 7  21340418.242                    21340426.875
 117078783.143 7  91230244.59245  22279349.109                    22279357.387
 105525012.662 8  82227307.21446  20080741.602                    20080750.039
 119756933.013 7  93317136.08644  22788983.000                    22788993.836
 113360568.592 8  88332940.17046  21571795.305                    21571802.949
 112851641.178 8  87936353.663 7  21474958.672                    21474968.617
 130020143.644 6 101314399.972 6  24742009.383                    24742022.457
 11  8 12 20 13 30.0000000  0  8G24G17G11G08G26G28G07G01
 115474562.804 7  89980262.61145  21974075.055                    21974085.043
 112099257.314 8  87350137.437 7  21331775.578                    21331784.645
 117142905.429 7  91280209.98744  22291551.742                    22291559.578
 105546191.551 8  82243810.23146  20084771.516                    20084780.637
 119773799.656 7  93330278.90744  22792192.820                    22792203.195
 113340056.503 8  88316956.75246  21567891.813                    21567899.852
 112927441.324 7  87995418.663 7  21489383.180                    21489392.746
 130093577.458 6 101371621.088 6  24755983.398                    24755997.109
 11  8 12 20 14  0.0000000  0  8G24G17G11G08G26G28G07G01
 115492412.309 7  89994171.33945  21977471.734                    21977481.430
 112054211.762 8  87315037.046 7  21323203.695                    21323212.797
 117207501.354 7  91330544.44944  22303843.125                    22303851.816
 105567950.322 8  82260765.10146  20088912.461                    20088921.297
 119791231.019 7  93343861.76044  22795509.852                    22795520.809
 113319587.335 8  88301006.78046  21563996.656                    21564004.805
 113003659.391 8  88054809.313 7  21503887.539                    21503896.918
 130167379.642 6 101429129.246 6  24770027.852                    24770040.664
 11  8 12 20 14 30.0000000  0  8G24G17G11G08G26G28G07G01
 115510830.796 7  90008523.42945  21980976.852                    21980986.430
 112009536.330 8  87280225.061 7  21314702.266                    21314711.543
 117272567.978 7  91381245.70044  22316224.828                    22316233.277
 105590288.165 8  82278171.18946  20093162.945                    20093171.723
 119809225.072 7  93357883.08144  22798933.641                    22798944.730
 113299160.750 8  88285089.98646  21560109.742                    21560117.832
 113080293.056 8  88114523.809 7  21518470.227                    21518479.414
 130241547.273 6 101486922.167 6  24784140.617                    24784154.199
 11  8 12 20 15  0.0000000  0  8G24G17G11G08G26G28G07G01
 115529818.597 8  90023319.15745  21984589.969                    21984600.375
 111965231.144 8  87245701.580 7  21306271.414                    21306280.488
 117338103.682 7  91432312.45844  22328695.969                    22328704.109
 105613206.307 8  82296029.45446  20097524.258                    20097533.301
 119827780.730 7  93372342.02844  22802465.258                    22802475.465
 113278777.814 8  88269207.20646  21556230.883                    21556238.750
 113157341.311 8  88174561.356 7  21533132.070                    21533141.539
 130316078.951 6 101544998.760 6  24798324.492                    24798336.891
 11  8 12 20 15 30.0000000  0  8G24G17G11G08G26G28G07G01
 115549374.883 7  90038557.84445  21988311.219                    21988321.254
 111921295.717 8  87211466.210 7  21297910.352                    21297919.703
 117404105.896 7  91483742.73045  22341256.195                    22341264.211
 105636703.934 8  82314339.27246  20101995.633                    20102004.641
 119846895.540 7  93387236.63044  22806102.172                    22806113.176
 113258437.966 8  88253358.00446  21552360.281                    21552368.426
 113234801.808 7  88234920.139 7  21547872.289                    21547881.918
 130390971.690 6 101603356.724 6  24812575.469                    24812588.625
 11  8 12 20 16  0.0000000  0  8G24G17G11G08G26G28G07G01
 115569499.710 7  90054239.55545  21992140.938                    21992151.039
 111877730.252 8  87177519.137 7  21289620.180                    21289629.121
 117470572.813 7  91535535.10444  22353904.250                    22353912.535
 105660781.761 8  82333101.19646  20106577.469                    20106586.465
 119866568.188 7  93402565.92844  22809846.133                    22809856.746
 113238142.036 8  88237543.01946  21548498.188                    21548506.219
 113312673.221 7  88295599.114 7  21562690.891                    21562700.238
 130466223.755 6 101661994.645 6  24826896.039                    24826908.824
 11  8 12 20 16 30.0000000  0  8G24G17G11G08G26G28G07G01
 115590192.933 7  90070364.17145  21996078.453                    21996088.621
 111834534.963 8  87143860.500 7  21281400.703                    21281409.660
 117537502.425 7  91587688.02944  22366640.859                    22366648.918
 105685440.652 8  82352315.89246  20111270.078                    20111278.992
 119886797.536 7  93418329.02144  22813695.133                    22813706.020
 113217890.690 8  88221762.76946  21544644.023                    21544652.445
 113390954.230 7  88356597.245 7  21577587.547                    21577597.277
 130541833.140 6 101720911.013 6  24841284.055                    24841296.930
 11  8 12 20 17  0.0000000  0  8G24G17G11G08G26G28G07G01
 115611454.383 7  90086931.55045  22000124.391                    22000134.859
 111791709.714 8  87110490.204 7  21273251.031                    21273260.184
 117604892.765 7  91640199.95944  22379464.984                    22379472.949
 105710680.806 8  82371983.52646  20116073.227                    20116082.176
 119907581.875 7  93434524.58245  22817650.945                    22817661.121
 113197684.598 8  88206017.78546  21540799.422                    21540807.516
 113469643.120 8  88417913.211 7  21592561.289                    21592570.762
 130617797.946 5 101780104.333 6  24855739.289                    24855753.184
 11  8 12 20 17 30.0000000  0  8G24G17G11G08G26G28G07G01
 115633283.212 7  90103941.05945  22004278.719                    22004288.355
 111749253.691 8  87077407.619 7  21265171.977                    21265181.406
 117672741.015 7  91693068.71544  22392375.398                    22392383.656
 105736501.454 8  82392103.49846  20120986.453                    20120995.340
 119928918.833 7  93451150.74944  22821710.914                    22821721.785
 113177523.549 8  88190307.89446  21536962.641                    21536970.832
 113548737.952 8  88479545.498 7  21607612.367                    21607621.859
 130694115.364 5 101839572.404 6  24870263.125                    24870275.293
 11  8 12 20 18  0.0000000  0  8G24G17G11G08G26G28G07G01
 115655679.435 7  90121392.68245  22008540.445                    22008550.098
 111707167.255 8  87044613.024 7  21257163.375                    21257172.738
 117741045.423 7  91746292.90644  22405373.742                    22405382.082
 105762903.642 8  82412676.61046  20126010.844                    20126019.703
 119950807.398 7  93468206.73644  22825876.828                    22825887.555
 113157408.496 8  88174633.85246  21533135.000                    21533142.930
 113628237.240 8  88541492.935 7  21622740.930                    21622750.223
 130770783.426 6 101899313.707 6  24884850.500                    24884864.902
 11  8 12 20 18 30.0000000  0  8G24G17G11G08G26G28G07G01
 115678642.129 7  90139285.71245  22012910.000                    22012920.141
 111665449.643 8  87012105.834 7  21249224.602                    21249233.926
 117809803.229 7  91799870.40444  22418457.813                    22418466.129
 105789886.286 8  82433702.02946  20131145.352                    20131154.250
 119973245.105 7  93485690.62644  22830146.055                    22830156.574
 113137339.153 8  88158995.42646  21529315.797                    21529323.785
 113708138.780 7  88603753.827 7  21637945.563                    21637955.172
 130847799.539 5 101959326.279 6  24899507.563                    24899520.105
 11  8 12 20 19  0.0000000  0  8G24G17G11G08G26G28G07G01
 115702171.249 7  90157620.12345  22017387.383                    22017397.469
 111624101.306 8  86979886.384 7  21241356.000                    21241365.535
 117879012.537 7  91853799.71344  22431627.664                    22431635.809
 105817450.264 8  82455180.43646  20136390.445                    20136399.535
 119996230.558 7  93503601.33044  22834520.367                    22834531.090
 113117316.470 8  88143393.36046  21525505.797                    21525513.996
 113788441.280 8  88666327.152 7  21653226.773                    21653236.113
 130925162.074 6 102019608.737 6  24914229.016                    24914241.930
 11  8 12 20 19 30.0000000  0  8G24G17G11G08G26G28G07G01
 115726266.387 7  90176395.57845  22021972.078                    22021982.449
 111583122.239 8  86947954.679 7  21233558.250                    21233567.145
 117948671.440 7  91908079.35844  22444883.320                    22444891.918
 105845595.832 8  82477112.03346  20141746.781                    20141755.695
 120019762.197 7  93521937.63444  22838998.094                    22839008.848
 113097341.402 8  88127828.39346  21521704.844                    21521712.664
 113869143.058 7  88729211.600 7  21668583.445                    21668593.086
 131002868.616 6 102080159.254 6  24929015.867                    24929029.000
 11  8 12 20 20  0.0000000  0  8G24G17G11G08G26G28G07G01
 115750927.265 7  90195611.87445  22026664.883                    22026675.188
 111542512.176 8  86916310.517 7  21225830.258                    21225839.680
 118018777.939 7  91962707.78144  22458223.953                    22458232.961
 105874323.400 8  82499497.13646  20147213.195                    20147222.020
 120043838.348 7  93540698.25844  22843579.773                    22843590.230
 113077414.492 8  88112300.95846  21517912.445                    21517920.309
 113950242.656 7  88792406.034 7  21684016.539                    21684025.938
 131080917.285 6 102140976.415 6  24943867.672                    24943880.910
 11  8 12 20 20 30.0000000  0  8G24G17G11G08G26G28G07G01
 115776152.878 7  90215268.21445  22031465.359                    22031475.797
 111502270.427 8  86884953.359 7  21218172.633                    21218181.719
 118089328.899 7  92017682.55144  22471649.820                    22471657.906
 105903632.038 8  82522335.02346  20152790.398                    20152799.293
 120068456.662 7  93559881.32144  22848263.992                    22848275.078
 113057535.579 8  88096810.92346  21514129.734                    21514137.875
 114031737.767 7  88855908.671 7  21699524.508                    21699533.836
 131159305.243 6 102202057.912 6  24958785.273                    24958797.488
 11  8 12 20 21  0.0000000  0  8G24G17G11G08G26G28G07G01
 115801943.365 7  90235364.69945  22036373.414                    22036383.480
 111462397.498 8  86853883.595 7  21210585.039                    21210594.137
 118160322.751 7  92073002.41144  22485159.250                    22485167.594
 105933522.871 8  82545626.56946  20158478.641                    20158487.594
 120093615.958 7  93579485.93844  22853052.109                    22853063.598
 113037705.895 8  88081359.23946  21510355.992                    21510364.105
 114113627.187 7  88919718.545 7  21715107.523                    21715117.137
 131238031.048 6 102263402.677 6  24973766.320                    24973778.551
 11  8 12 20 21 30.0000000  0  8G24G17G11G08G26G28G07G01
 115828297.402 7  90255900.33345  22041387.734                    22041398.328
 111422892.321 8  86823100.392 7  21203067.484                    21203076.789
 118231757.066 7  92128665.49844  22498752.938                    22498761.234
 105963994.529 8  82569370.70746  20164277.016                    20164285.848
 120119313.446 7  93599509.91944  22857941.922                    22857952.809
 113017925.101 8  88065945.64946  21506592.016                    21506600.059
 114195908.194 7  88983833.569 7  21730764.844                    21730775.117
 131317091.628 6 102325008.308 6  24988810.477                    24988823.996
 11  8 12 20 22  0.0000000  0  9G24G17G11G08G04G26G28G07G01
 115855214.320 7  90276874.57945  22046510.227                    22046520.691
 111383754.249 8  86792603.243 7  21195619.680                    21195628.520
 118303628.715 7  92184669.36744  22512429.594                    22512438.293
 105995046.868 8  82593567.32046  20170186.477                    20170195.336
 129217911.41116 100689437.99952  24589372.180                    24589389.867
 120145547.414 7  93619951.93944  22862934.484                    22862945.301
 112998193.843 8  88050570.65446  21502837.383                    21502845.543
 114278579.453 8  89048252.654 7  21746496.859                    21746506.582
 131396484.684 6 102386872.998 6  25003918.414                    25003931.953
 11  8 12 20 22 30.0000000  0  8G24G17G11G08G04G26G28G07
 115882693.301 7  90298286.78645  22051739.148                    22051749.684
 111344983.106 8  86762392.005 7  21188241.633                    21188251.098
 118375935.362 7  92241012.19244  22526189.063                    22526197.289
 106026679.894 8  82618216.41846  20176206.266                    20176214.848
 129105175.468 6 100601592.17343  24567919.133                    24567937.367
 120172315.225 7  93640809.93045  22868028.086                    22868039.230
 112978512.426 8  88035234.50346  21499092.031                    21499099.746
 114361638.085 8  89112973.602 7  21762302.164                    21762312.227
 11  8 12 20 23  0.0000000  0  8G24G17G11G08G04G26G28G07
 115910733.364 7  90320136.20045  22057075.211                    22057085.379
 111306578.427 8  86732466.315 7  21180933.516                    21180942.500
 118448674.435 7  92297691.98044  22540031.141                    22540039.527
 106058893.299 8  82643317.75646  20182335.836                    20182344.781
 128992375.665 6 100513696.52443  24546454.352                    24546471.883
 120199615.275 7  93662082.65544  22873222.805                    22873234.043
 112958880.918 8  88019937.24546  21495356.297                    21495364.043
 114445082.625 8  89177995.265 7  21778181.547                    21778191.211
 11  8 12 20 23 30.0000000  0  8G24G17G11G08G04G26G28G07
 115939335.138 7  90342423.29945  22062517.727                    22062528.066
 111268541.203 8  86702826.963 7  21173695.055                    21173703.969
 118521845.099 7  92354708.06844  22553954.719                    22553963.434
 106091687.839 8  82668871.92946  20188576.492                    20188585.406
 128879515.681 6 100425754.01943  24524977.602                    24524994.648
 120227446.325 7  93683769.13644  22878519.352                    22878530.039
 112939301.364 8  88004680.46846  21491630.383                    21491638.254
 114528912.301 8  89243317.021 7  21794133.789                    21794143.789
 11  8 12 20 24  0.0000000  0  8G24G17G11G08G04G26G28G07
 115968497.952 7  90365147.57845  22068067.516                    22068077.539
 111230871.147 8  86673473.706 7  21166526.352                    21166536.246
 118595444.838 7  92412058.50444  22567960.500                    22567969.148
 106125063.557 8  82694878.96246  20194927.570                    20194936.719
 128766598.187 6 100337766.66443  24503489.055                    24503506.926
 120255806.675 7  93705868.07044  22883916.305                    22883926.918
 112919774.472 8  87989464.71746  21487914.625                    21487922.668
 114613125.257 8  89308937.445 7  21810159.469                    21810168.957
 11  8 12 20 24 30.0000000  0  8G24G17G11G08G04G26G28G07
 115998221.236 7  90388308.58645  22073724.297                    22073734.074
 111193567.622 8  86644406.053 7  21159428.109                    21159437.203
 118669471.513 7  92469741.60144  22582047.484                    22582055.906
 106159020.671 8  82721339.01946  20201389.484                    20201398.570
 128653625.871 6 100249736.59243  24481991.672                    24482008.867
 120284694.370 7  93728377.90944  22889413.438                    22889423.922
 112900300.801 8  87974290.44446  21484208.805                    21484216.645
 114697719.704 8  89374855.133 7  21826257.258                    21826267.227
 11  8 12 20 25  0.0000000  0  8G24G17G11G08G04G26G28G07
 116028504.242 7  90411905.75245  22079486.398                    22079496.742
 111156630.657 8  86615624.027 7  21152399.164                    21152408.207
 118743922.749 7  92527755.53844  22596214.859                    22596223.582
 106193558.802 8  82748251.82746  20207962.148                    20207971.039
 128540600.951 6 100161665.48343  24460483.539                    24460500.703
 120314107.344 7  93751297.08344  22895010.320                    22895021.168
 112880880.782 8  87959157.98146  21480513.352                    21480521.355
 114782694.081 7  89441068.873 7  21842427.203                    21842436.770
 11  8 12 20 25 30.0000000  0  8G24G17G11G08G04G26G28G07
 116059346.125 7  90435938.40745  22085355.195                    22085365.832
 111120059.617 8  86587127.137 7  21145439.898                    21145449.352
 118818795.960 7  92586098.28544  22610462.641                    22610471.563
 106228677.415 8  82775616.95346  20214644.625                    20214653.430
 128427526.069 6 100073555.43043  24438965.227                    24438982.746
 120344043.387 7  93774623.82744  22900707.273                    22900717.840
 112861514.959 8  87944067.74046  21476828.227                    21476835.805
 114868045.967 7  89507576.767 7  21858669.109                    21858679.164
 11  8 12 20 26  0.0000000  0  8G24G17G11G08G04G26G28G07
 116090745.856 7  90460405.74445  22091330.586                    22091340.453
 111083853.895 8  86558914.905 7  21138550.141                    21138558.906
 118894088.649 7  92644767.90144  22624790.633                    22624799.168
 106264375.509 8  82803433.61646  20221438.109                    20221446.520
 128314403.613 6  99985408.30943  24417438.906                    24417455.664
 120374500.121 7  93798356.30644  22906502.773                    22906513.344
 112842203.886 8  87929020.16446  21473153.258                    21473161.453
 114953773.391 8  89574377.286 7  21874982.680                    21874993.012
 11  8 12 20 26 30.0000000  0  8G24G17G11G08G04G26G28G07
 116122703.144 7  90485307.53945  22097411.258                    22097422.039
 111048013.673 8  86530987.487 7  21131729.883                    21131738.934
 118969798.526 7  92703762.58344  22639197.922                    22639206.141
 106300654.080 8  82831702.60146  20228341.148                    20228350.457
 128201236.766 6  99897226.62443  24395903.438                    24395920.465
 120405476.150 7  93822493.43044  22912397.305                    22912408.551
 112822948.742 8  87914016.17146  21469489.250                    21469496.602
 115039874.788 7  89641469.212 7  21891367.328                    21891376.754
 11  8 12 20 27  0.0000000  0  8G24G17G11G08G04G26G28G07
 116155216.999 7  90510643.02145  22103599.031                    22103608.836
 111012538.499 8  86503344.527 7  21124979.305                    21124988.656
 119045923.362 7  92763080.62444  22653683.773                    22653692.059
 106337512.633 8  82860423.52046  20235355.352                    20235364.797
 128088027.889 6  99809012.13142  24374360.656                    24374377.453
 120436969.034 7  93847033.30844  22918391.125                    22918400.648
 112803749.638 8  87899055.83646  21465835.422                    21465843.438
 115126348.330 7  89708851.118 7  21907822.820                    21907832.355
 11  8 12 20 27 30.0000000  0  8G24G17G11G08G04G26G28G07
 116188286.267 7  90536411.28145  22109891.867                    22109901.852
 110977427.913 8  86475985.659 7  21118297.922                    21118306.750
 119122460.654 7  92822720.05444  22668248.648                    22668256.555
 106374950.275 8  82889595.68246  20242479.703                    20242488.438
 127974779.311 6  99720766.76542  24352810.758                    24352827.203
 120468976.552 7  93871974.21944  22924481.063                    22924491.766
 112784607.304 8  87884139.74446  21462192.703                    21462200.816
 115213191.670 7  89776521.189 7  21924348.500                    21924357.977
 11  8 12 20 28  0.0000000  0  8G24G17G11G08G04G26G28G07
 116221910.107 7  90562611.68345  22116290.383                    22116300.266
 110942681.185 8  86448910.319 7  21111685.344                    21111694.598
 119199407.970 7  92882678.97444  22682890.984                    22682899.238
 106412966.528 8  82919218.70546  20249713.703                    20249722.840
 127861493.692 6  99632492.52943  24331252.477                    24331268.922
 120501496.311 7  93897314.22844  22930669.320                    22930680.266
 112765522.391 8  87869268.38746  21458561.156                    21458569.367
 115300402.606 7  89844477.688 7  21940944.141                    21940953.973
 11  8 12 20 28 30.0000000  0  8G24G17G11G08G04G26G28G07
 116256087.846 7  90589243.69145  22122793.969                    22122803.914
 110908298.189 8  86422118.403 7  21105142.969                    21105151.898
 119276762.933 7  92942955.54744  22697611.070                    22697619.512
 106451561.219 8  82949292.46346  20257058.133                    20257067.289
 127748173.759 6  99544191.58343  24309688.188                    24309705.641
 120534526.364 7  93923051.91744  22936954.484                    22936965.863
 112746495.520 8  87854442.26746  21454940.242                    21454948.461
 115387979.502 7  89912719.334 7  21957609.578                    21957619.668
 11  8 12 20 29  0.0000000  0  8G24G17G11G08G04G26G28G07
 116290818.834 7  90616306.79245  22129402.734                    22129412.773
 110874278.485 8  86395609.577 7  21098669.172                    21098678.188
 119354523.209 7  93003547.93344  22712408.836                    22712416.824
 106490734.409 8  82979817.00746  20264512.625                    20264521.508
 127634822.220 6  99455865.94643  24288118.031                    24288134.941
 120568064.542 7  93949185.52944  22943336.578                    22943347.344
 112727527.532 8  87839662.02646  21451330.938                    21451339.270
 115475920.543 7  89981244.743 7  21974344.453                    21974354.098
 11  8 12 20 29 30.0000000  0  8G24G17G11G08G04G26G28G07
 116326101.572 7  90643799.84145  22136117.430                    22136127.184
 110840621.537 8  86369383.424 7  21092264.219                    21092273.184
 119432686.040 7  93064454.01544  22727282.016                    22727290.535
 106530485.066 8  83010791.51946  20272076.992                    20272086.418
 127521441.634 6  99367517.75843  24266542.008                    24266558.480
 120602108.549 7  93975713.29944  22949815.445                    22949826.621
 112708618.973 8  87824928.09546  21447733.000                    21447740.711
 115564223.532 7  90050052.192 7  21991148.039                    21991157.402
 11  8 12 20 30  0.0000000  0  8G24G17G11G08G04G26G28G07
 116361934.976 7  90671721.97945  22142935.945                    22142946.074
 110807326.807 8  86343439.516 7  21085928.680                    21085937.332
 119511249.075 7  93125671.95344  22742232.164                    22742240.609
 106570812.524 8  83042215.48846  20279751.125                    20279760.398
 127408034.372 6  99279148.71643  24244960.961                    24244977.719
 120636656.045 7  94002633.37944  22956389.383                    22956400.969
 112689770.241 8  87810240.78346  21444145.836                    21444153.734
 115652886.170 7  90119139.880 7  22008019.844                    22008029.617
 11  8 12 20 30 30.0000000  0  8G24G17G11G08G04G26G28G07
 116398318.627 7  90700072.87545  22149859.578                    22149869.480
 110774394.068 8  86317777.691 7  21079661.672                    21079670.496
 119590210.077 7  93187199.96944  22757258.117                    22757266.551
 106611716.787 8  83074088.91846  20287534.523                    20287543.629
 127294603.251 6  99190761.13343  24223375.195                    24223392.020
 120671705.024 7  94029944.24544  22963059.148                    22963069.723
 112670982.542 8  87795601.03446  21440571.039                    21440578.848
 115741906.725 7  90188506.465 7  22024959.867                    22024969.594
 11  8 12 20 31  0.0000000  0  8G24G17G11G08G04G26G28G07
 116435251.139 7  90728851.45345  22156887.469                    22156897.332
 110741822.862 8  86292397.569 7  21073463.602                    21073472.344
 119669566.465 7  93249036.09644  22772359.008                    22772367.445
 106653197.303 8  83106411.37546  20295428.344                    20295437.832
 127181151.028 6  99102357.13743  24201786.313                    24201802.480
 120707253.104 7  94057644.00644  22969823.727                    22969834.727
 112652256.543 8  87781009.36046  21437007.500                    21437015.277
 115831283.313 7  90258150.473 7  22041968.359                    22041977.652
 11  8 12 20 31 30.0000000  0  8G24G17G11G08G04G26G28G07
 116472731.810 7  90758057.17845  22164020.078                    22164030.016
 110709612.569 8  86267298.681 7  21067334.055                    21067342.980
 119749315.731 7  93311178.35144  22787534.789                    22787543.449
 106695253.580 8  83139182.47346  20303431.359                    20303440.445
 127067680.388 6  99013938.76243  24180192.648                    24180209.777
 120743298.004 7  94085730.90944  22976682.703                    22976693.918
 112633592.798 8  87766466.20646  21433455.836                    21433463.637
 115921013.922 7  90328070.351 7  22059042.906                    22059053.363
 11  8 12 20 32  0.0000000  0  8G24G17G11G08G04G26G28G07
 116510759.184 7  90787688.90645  22171256.391                    22171266.246
 110677762.476 8  86242480.467 7  21061273.102                    21061282.230
 119829455.221 7  93373624.66944  22802785.141                    22802793.723
 106737884.277 8  83172401.18046  20311543.680                    20311552.797
 126954193.763 6  98925507.95643  24158597.133                    24158613.895
 120779837.018 7  94114202.83044  22983636.078                    22983646.703
 112614991.991 8  87751972.08946  21429916.156                    21429923.848
 116011096.220 7  90398264.274 7  22076185.148                    22076195.434
 11  8 12 20 32 30.0000000  0  8G24G17G11G08G04G26G28G07
 116549332.461 7  90817746.01645  22178596.703                    22178606.098
 110646272.364 8  86217942.759 7  21055280.914                    21055289.906
 119909982.723 7  93436373.33444  22818108.945                    22818117.445
 106781089.372 8  83206067.46546  20319765.359                    20319774.746
 126840693.646 6  98837066.63243  24136998.477                    24137014.672
 120816868.092 7  94143058.17444  22990683.023                    22990693.512
 112596454.794 8  87737527.54646  21426388.938                    21426396.480
 116101528.337 7  90468730.765 7  22093393.938                    22093403.891
 11  8 12 20 33  0.0000000  0  8G24G17G11G08G04G26G28G07
 116588450.177 7  90848227.37745  22186040.180                    22186050.141
 110615141.814 8  86193685.215 7  21049357.016                    21049365.559
 119990895.587 7  93499422.28544  22833506.633                    22833514.984
 106824867.966 8  83240180.62846  20328096.313                    20328105.219
 126727182.887 6  98748616.99343  24115397.430                    24115413.949
 120854388.827 7  94172295.07044  22997822.938                    22997833.707
 112577981.729 8  87723132.97446  21422873.422                    21422880.883
 116192307.901 7  90539468.001 7  22110668.633                    22110679.145
 11  8 12 20 33 30.0000000  0  8G24G17G11G08G04G26G28G07
 116628111.939 7  90879132.65245  22193587.633                    22193597.730
 110584369.984 8  86169707.201 7  21043501.031                    21043509.934
 120072191.486 7  93562769.68844  22848976.820                    22848985.137
 106869220.228 8  83274740.80046  20336536.055                    20336545.180
 126613664.771 6  98660161.66143  24093795.391                    24093811.918
 120892397.264 7  94201911.96644  23005055.805                    23005066.633
 112559574.339 8  87708789.58046  21419370.438                    21419378.195
 116283433.206 7  90610474.650 7  22128009.445                    22128019.621
 11  8 12 20 34  0.0000000  0  8G24G17G11G08G04G26G28G07
 116668315.931 7  90910460.43845  22201238.375                    22201248.398
 110553956.472 8  86146008.384 7  21037713.555                    21037722.477
 120153867.639 7  93626413.43244  22864518.711                    22864527.324
 106914144.550 8  83309746.74346  20345084.984                    20345093.957
 126500141.337 6  98571702.11043  24072193.000                    24072209.242
 120930890.472 7  94231906.65344  23012380.555                    23012391.844
 112541232.912 8  87694497.57946  21415880.109                    21415887.828
 116374902.086 7  90681749.008 7  22145415.633                    22145425.652
 11  8 12 20 34 30.0000000  0  8G24G17G11G08G04G26G28G07
 116709060.982 7  90942209.83445  22208991.703                    22209001.477
 110523900.460 8  86122588.134 7  21031994.203                    21032002.820
 120235921.558 7  93690351.50844  22880133.172                    22880141.898
 106959640.030 8  83345197.74246  20353742.688                    20353751.848
 126386615.009 6  98483240.36143  24050589.078                    24050604.734
 120969865.947 7  94262277.09744  23019797.219                    23019807.941
 112522958.056 8  87680257.45046  21412402.602                    21412410.383
 116466712.031 7  90753289.140 7  22162886.469                    22162896.785
 11  8 12 20 35  0.0000000  0  8G24G17G11G08G04G26G28G07
 116750346.325 7  90974380.22245  22216847.945                    22216857.906
 110494201.675 8  86099446.252 7  21026342.555                    21026351.297
 120318351.036 7  93754582.23644  22895818.703                    22895827.191
 107005706.732 8  83381093.85346  20362508.781                    20362517.676
 126273089.077 6  98394778.84243  24028985.828                    24029002.004
 121009321.632 7  94293021.72244  23027305.734                    23027317.051
 112504750.778 8  87666069.97946  21408937.906                    21408945.582
 116558861.422 7  90825093.773 7  22180421.547                    22180432.598
 11  8 12 20 35 30.0000000  0  8G24G17G11G08G04G26G28G07
 116792170.574 7  91006970.54345  22224807.273                    22224816.758
 110464859.930 8  86076582.582 7  21020758.750                    21020767.801
 120401153.655 7  93819103.72544  22911575.992                    22911584.563
 107052344.164 8  83417434.68146  20371383.570                    20371392.637
 126159566.358 6  98306319.85343  24007382.344                    24007398.586
 121049255.147 7  94324138.69744  23034904.711                    23034915.629
 112486612.262 8  87651936.09946  21405486.039                    21405493.848
 116651348.065 7  90897161.189 7  22198021.445                    22198031.594
 11  8 12 20 36  0.0000000  0  8G24G17G11G08G04G26G28G07
 116834532.725 7  91039980.00045  22232868.281                    22232878.297
 110435874.403 8  86053996.490 7  21015243.477                    21015252.066
 120484326.623 7  93883913.78144  22927403.320                    22927411.840
 107099551.116 8  83454219.28646  20380367.125                    20380375.910
 126046049.293 6  98217865.25143  23985780.852                    23985796.531
 121089664.181 6  94355626.20844  23042593.453                    23042605.145
 112468543.233 8  87637856.35446  21402047.953                    21402055.527
 116744169.889 7  90969489.803 7  22215684.898                    22215695.285
 11  8 12 20 36 30.0000000  0  8G24G17G11G08G04G26G28G07
 116877431.073 8  91073407.26845  22241031.813                    22241041.660
 110407243.906 8  86031687.046 7  21009795.117                    21009803.547
 120567867.296 7  93949010.37544  22943300.391                    22943309.313
 107147326.318 8  83491446.68746  20389458.172                    20389467.082
 125932540.348 7  98129416.95343  23964181.008                    23964196.438
 121130545.474 7  94387481.68644  23050372.969                    23050385.211
 112450543.743 8  87623830.80546  21398622.523                    21398630.215
 116837324.533 7  91042077.743 7  22233411.539                    22233422.188
 11  8 12 20 37  0.0000000  0  8G24G17G11G08G04G26G28G07
 116920864.575 7  91107251.55245  22249296.625                    22249307.141
 110378968.587 8  86009654.362 7  21004414.531                    21004423.082
 120651773.001 7  94014391.41144  22959267.141                    22959275.906
 107195669.322 8  83529116.53246  20398657.523                    20398666.430
 125819042.521 7  98040977.29443  23942582.977                    23942598.113
 121171897.050 6  94419703.63044  23058242.922                    23058254.176
 112432614.836 8  87609860.25046  21395210.711                    21395218.305
 116930809.696 7  91114923.228 7  22251201.406                    22251211.758
 11  8 12 20 37 30.0000000  0  8G24G17G11G08G04G26G28G07
 116964831.754 7  91141511.67245  22257663.742                    22257673.965
 110351047.023 8  85987897.346 7  20999100.914                    20999109.641
 120736041.304 7  94080054.99644  22975302.898                    22975311.695
 107244578.705 8  83567227.71046  20407964.617                    20407973.824
 125705558.103 7  97952548.14743  23920987.234                    23921002.648
 121213716.105 7  94452289.84744  23066200.867                    23066212.012
 112414757.318 8  87595945.32346  21391812.563                    21391820.465
 117024622.997 7  91188024.407 7  22269053.859                    22269063.984
 11  8 12 20 38  0.0000000  0  8G24G17G11G08G04G26G28G07
 117009331.169 7  91176186.53445  22266131.555                    22266141.496
 110323478.842 8  85966415.684 7  20993854.875                    20993863.824
 120820669.682 7  94145999.14544  22991407.500                    22991416.031
 107294054.250 8  83605780.05346  20417379.711                    20417389.090
 125592090.363 7  97864131.95343  23899395.453                    23899410.152
 121256000.346 6  94485238.54644  23074247.367                    23074258.598
 112396972.194 8  87582086.80946  21388428.039                    21388435.699
 117118762.690 7  91261379.930 7  22286967.953                    22286977.789
 11  8 12 20 38 30.0000000  0  8G24G17G11G08G04G26G28G07
 117054362.008 7  91211275.48545  22274700.563                    22274710.676
 110296264.181 8  85945209.489 8  20988675.656                    20988685.242
 120905655.683 7  94212221.97344  23007579.594                    23007588.305
 107344095.321 8  83644773.05746  20426902.008                    20426911.355
 125478642.079 6  97775730.94043  23877806.156                    23877821.664
 121298747.544 7  94518547.97644  23082381.805                    23082393.211
 112379260.821 8  87568285.75046  21385057.609                    21385065.398
 117213226.665 7  91334988.128 6  22304943.844                    22304954.203
 11  8 12 20 39  0.0000000  0  8G24G17G11G08G04G26G28G07
 117099922.360 7  91246777.05145  22283370.133                    22283380.344
 110269401.711 8  85924277.730 7  20983564.234                    20983573.191
 120990996.595 7  94278721.34144  23023819.523                    23023828.590
 107394700.380 8  83684205.53946  20436531.961                    20436541.227
 125365215.826 6  97687347.11943  23856221.508                    23856236.590
 121341954.536 7  94552215.71444  23090604.391                    23090615.191
 112361623.434 8  87554542.35046  21381701.664                    21381709.418
 117308012.617 7  91408847.226 7  22322981.039                    22322991.242
 11  8 12 20 39 30.0000000  0  8G24G17G11G08G04G26G28G07
 117146011.067 7  91282690.34145  22292140.742                    22292150.320
 110242890.799 8  85903619.912 7  20978519.688                    20978528.625
 121076690.075 7  94345495.45744  23040125.805                    23040134.500
 107445868.652 8  83724076.88946  20446269.297                    20446278.383
 125251814.330 6  97598982.57943  23834642.016                    23834657.168
 121385619.044 7  94586239.94444  23098913.148                    23098924.137
 112344061.097 8  87540857.42246  21378359.742                    21378366.957
 117403118.126 7  91482955.314 7  22341079.047                    22341089.316
 11  8 12 20 40  0.0000000  0  8G24G17G11G08G04G26G28G07
 117192626.757 7  91319014.25845  22301011.570                    22301021.449
 110216730.359 8  85883235.196 7  20973541.406                    20973550.395
 121162733.249 7  94412542.04644  23056499.922                    23056508.523
 107497598.917 8  83764386.14846  20456112.813                    20456122.195
 125138440.284 6  97510639.44943  23813067.523                    23813082.410
 121429738.104 7  94620618.36044  23107308.938                    23107320.074
 112326574.442 8  87527231.46746  21375031.602                    21375039.523
 117498541.169 7  91557310.829 7  22359238.047                    22359248.152
 11  8 12 20 40 30.0000000  0  8G24G17G11G08G04G26G28G07
 117239768.142 7  91355747.80445  22309982.148                    22309992.023
 110190920.272 8  85863123.466 8  20968629.742                    20968638.617
 121249123.615 7  94479859.18244  23072939.227                    23072948.098
 107549890.235 8  83805132.59446  20466063.797                    20466073.109
 125025096.198 6  97422319.67743  23791498.133                    23791513.563
 121474309.490 7  94655349.26544  23115790.055                    23115802.066
 112309164.501 8  87513665.29846  21371718.625                    21371726.402
 117594279.642 7  91631912.139 7  22377456.266                    22377466.383
 11  8 12 20 41  0.0000000  0  8G24G17G11G08G04G26G28G07
 117287433.752 7  91392889.83545  22319052.797                    22319062.988
 110165459.875 8  85843284.214 7  20963784.844                    20963793.582
 121335858.758 7  94547444.96544  23089444.953                    23089453.227
 107602742.089 8  83846315.81946  20476121.227                    20476130.801
 124911785.482 6  97334025.93744  23769936.211                    23769951.355
 121519330.645 7  94690430.61544  23124357.492                    23124368.988
 112291832.431 8  87500159.79546  21368420.773                    21368428.492
 117690331.157 7  91706757.356 7  22395734.438                    22395744.945
